<?xml version='1.0' encoding='UTF-8'?><gpx version="1.1" creator="JPX - https://github.com/jenetics/jpx" xmlns="http://www.topografix.com/GPX/1/1"><trk><trkseg><trkpt lat="45.7877794" lon="9.9798563"><ele>336.0</ele><time>2026-05-02T12:11:03.814Z</time></trkpt><trkpt lat="45.7877105" lon="9.979886"><ele>336.0</ele><time>2026-05-02T12:11:10.814Z</time></trkpt><trkpt lat="45.787645" lon="9.9798836"><ele>336.0</ele><time>2026-05-02T12:11:15.814Z</time></trkpt><trkpt lat="45.7875923" lon="9.9798101"><ele>336.0</ele><time>2026-05-02T12:12:18.813Z</time></trkpt><trkpt lat="45.7875809" lon="9.9797153"><ele>336.0</ele><time>2026-05-02T12:12:20.814Z</time></trkpt><trkpt lat="45.7875402" lon="9.9798426"><ele>336.0</ele><time>2026-05-02T12:23:12.815Z</time></trkpt><trkpt lat="45.7875604" lon="9.9799584"><ele>336.4</ele><time>2026-05-02T12:23:14.815Z</time></trkpt><trkpt lat="45.787636" lon="9.9801237"><ele>336.8</ele><time>2026-05-02T12:23:16.813Z</time></trkpt><trkpt lat="45.7876565" lon="9.9802803"><ele>337.2</ele><time>2026-05-02T12:23:18.814Z</time></trkpt><trkpt lat="45.7876762" lon="9.9803778"><ele>337.59999999999997</ele><time>2026-05-02T12:23:19.815Z</time></trkpt><trkpt lat="45.7876953" lon="9.9804852"><ele>338.0</ele><time>2026-05-02T12:23:20.814Z</time></trkpt><trkpt lat="45.7877185" lon="9.9805977"><ele>338.0</ele><time>2026-05-02T12:23:21.814Z</time></trkpt><trkpt lat="45.7877423" lon="9.9807131"><ele>338.0</ele><time>2026-05-02T12:23:22.814Z</time></trkpt><trkpt lat="45.7877767" lon="9.9808298"><ele>338.0</ele><time>2026-05-02T12:23:23.814Z</time></trkpt><trkpt lat="45.7878145" lon="9.9809444"><ele>338.0</ele><time>2026-05-02T12:23:24.814Z</time></trkpt><trkpt lat="45.7878721" lon="9.9810465"><ele>338.0</ele><time>2026-05-02T12:23:25.814Z</time></trkpt><trkpt lat="45.7879248" lon="9.9811499"><ele>338.0</ele><time>2026-05-02T12:23:26.813Z</time></trkpt><trkpt lat="45.7879842" lon="9.9812234"><ele>338.1666666666667</ele><time>2026-05-02T12:23:27.815Z</time></trkpt><trkpt lat="45.788034" lon="9.9812914"><ele>338.33333333333337</ele><time>2026-05-02T12:23:28.814Z</time></trkpt><trkpt lat="45.7880621" lon="9.9813726"><ele>338.5</ele><time>2026-05-02T12:23:29.814Z</time></trkpt><trkpt lat="45.7880138" lon="9.9815399"><ele>338.6666666666667</ele><time>2026-05-02T12:23:31.814Z</time></trkpt><trkpt lat="45.7879487" lon="9.9816039"><ele>338.8333333333333</ele><time>2026-05-02T12:23:32.815Z</time></trkpt><trkpt lat="45.7878647" lon="9.9816481"><ele>339.0</ele><time>2026-05-02T12:23:33.814Z</time></trkpt><trkpt lat="45.7877674" lon="9.9816922"><ele>339.0</ele><time>2026-05-02T12:23:34.815Z</time></trkpt><trkpt lat="45.7876629" lon="9.9817446"><ele>339.0</ele><time>2026-05-02T12:23:35.813Z</time></trkpt><trkpt lat="45.7875451" lon="9.9818009"><ele>339.0</ele><time>2026-05-02T12:23:36.815Z</time></trkpt><trkpt lat="45.7874164" lon="9.9818692"><ele>339.0</ele><time>2026-05-02T12:23:37.814Z</time></trkpt><trkpt lat="45.7872856" lon="9.981934"><ele>339.0</ele><time>2026-05-02T12:23:38.814Z</time></trkpt><trkpt lat="45.7871574" lon="9.981998"><ele>339.0</ele><time>2026-05-02T12:23:39.813Z</time></trkpt><trkpt lat="45.7870207" lon="9.9820618"><ele>339.0</ele><time>2026-05-02T12:23:40.813Z</time></trkpt><trkpt lat="45.7868912" lon="9.9821323"><ele>339.0</ele><time>2026-05-02T12:23:41.813Z</time></trkpt><trkpt lat="45.7867594" lon="9.9822051"><ele>339.0</ele><time>2026-05-02T12:23:42.815Z</time></trkpt><trkpt lat="45.7866272" lon="9.9822784"><ele>339.0</ele><time>2026-05-02T12:23:43.813Z</time></trkpt><trkpt lat="45.7864946" lon="9.982348"><ele>339.0</ele><time>2026-05-02T12:23:44.815Z</time></trkpt><trkpt lat="45.7863642" lon="9.9824265"><ele>339.0</ele><time>2026-05-02T12:23:45.815Z</time></trkpt><trkpt lat="45.7862332" lon="9.9825198"><ele>339.0</ele><time>2026-05-02T12:23:46.813Z</time></trkpt><trkpt lat="45.786104" lon="9.9826148"><ele>339.0</ele><time>2026-05-02T12:23:47.815Z</time></trkpt><trkpt lat="45.7859729" lon="9.9826944"><ele>339.0</ele><time>2026-05-02T12:23:48.814Z</time></trkpt><trkpt lat="45.7858447" lon="9.9827744"><ele>339.0</ele><time>2026-05-02T12:23:49.814Z</time></trkpt><trkpt lat="45.7857211" lon="9.9828431"><ele>340.0</ele><time>2026-05-02T12:23:50.815Z</time></trkpt><trkpt lat="45.7855955" lon="9.9828766"><ele>341.0</ele><time>2026-05-02T12:23:51.813Z</time></trkpt><trkpt lat="45.7854704" lon="9.9828961"><ele>342.0</ele><time>2026-05-02T12:23:52.814Z</time></trkpt><trkpt lat="45.7853571" lon="9.9829092"><ele>343.0</ele><time>2026-05-02T12:23:53.815Z</time></trkpt><trkpt lat="45.7852446" lon="9.9828974"><ele>344.25</ele><time>2026-05-02T12:23:54.814Z</time></trkpt><trkpt lat="45.7851287" lon="9.9828651"><ele>345.5</ele><time>2026-05-02T12:23:55.814Z</time></trkpt><trkpt lat="45.7850092" lon="9.9828269"><ele>346.75</ele><time>2026-05-02T12:23:56.814Z</time></trkpt><trkpt lat="45.784887" lon="9.9827966"><ele>348.0</ele><time>2026-05-02T12:23:57.814Z</time></trkpt><trkpt lat="45.7847634" lon="9.9827758"><ele>348.0</ele><time>2026-05-02T12:23:58.814Z</time></trkpt><trkpt lat="45.7846418" lon="9.9827696"><ele>348.0</ele><time>2026-05-02T12:23:59.813Z</time></trkpt><trkpt lat="45.7845179" lon="9.9827668"><ele>348.0</ele><time>2026-05-02T12:24:00.815Z</time></trkpt><trkpt lat="45.7843974" lon="9.9827656"><ele>348.0</ele><time>2026-05-02T12:24:01.814Z</time></trkpt><trkpt lat="45.784278" lon="9.9827697"><ele>349.75</ele><time>2026-05-02T12:24:02.815Z</time></trkpt><trkpt lat="45.7841584" lon="9.9827786"><ele>351.5</ele><time>2026-05-02T12:24:03.815Z</time></trkpt><trkpt lat="45.7840366" lon="9.9827887"><ele>353.25</ele><time>2026-05-02T12:24:04.814Z</time></trkpt><trkpt lat="45.783912" lon="9.9828024"><ele>355.0</ele><time>2026-05-02T12:24:05.815Z</time></trkpt><trkpt lat="45.7838073" lon="9.9828222"><ele>355.0</ele><time>2026-05-02T12:24:06.814Z</time></trkpt><trkpt lat="45.7836984" lon="9.9828512"><ele>355.0</ele><time>2026-05-02T12:24:07.814Z</time></trkpt><trkpt lat="45.7835907" lon="9.9828783"><ele>355.0</ele><time>2026-05-02T12:24:08.815Z</time></trkpt><trkpt lat="45.7834833" lon="9.9829059"><ele>355.0</ele><time>2026-05-02T12:24:09.814Z</time></trkpt><trkpt lat="45.7833836" lon="9.9829203"><ele>355.0</ele><time>2026-05-02T12:24:10.815Z</time></trkpt><trkpt lat="45.7832956" lon="9.9829384"><ele>357.0</ele><time>2026-05-02T12:24:11.814Z</time></trkpt><trkpt lat="45.783207" lon="9.9829547"><ele>359.0</ele><time>2026-05-02T12:24:12.813Z</time></trkpt><trkpt lat="45.7831341" lon="9.9829644"><ele>361.0</ele><time>2026-05-02T12:24:13.814Z</time></trkpt><trkpt lat="45.7830303" lon="9.9829367"><ele>363.0</ele><time>2026-05-02T12:24:15.815Z</time></trkpt><trkpt lat="45.7829686" lon="9.9828054"><ele>365.0</ele><time>2026-05-02T12:24:17.814Z</time></trkpt><trkpt lat="45.7829336" lon="9.9827071"><ele>365.0</ele><time>2026-05-02T12:24:18.812Z</time></trkpt><trkpt lat="45.7828884" lon="9.9826008"><ele>365.0</ele><time>2026-05-02T12:24:19.815Z</time></trkpt><trkpt lat="45.7828525" lon="9.9824842"><ele>365.0</ele><time>2026-05-02T12:24:20.813Z</time></trkpt><trkpt lat="45.7827955" lon="9.9823791"><ele>365.0</ele><time>2026-05-02T12:24:21.814Z</time></trkpt><trkpt lat="45.7827442" lon="9.9822629"><ele>365.0</ele><time>2026-05-02T12:24:22.814Z</time></trkpt><trkpt lat="45.7827029" lon="9.9821449"><ele>367.2</ele><time>2026-05-02T12:24:23.814Z</time></trkpt><trkpt lat="45.7826739" lon="9.9820474"><ele>369.4</ele><time>2026-05-02T12:24:24.813Z</time></trkpt><trkpt lat="45.7826031" lon="9.9819135"><ele>371.6</ele><time>2026-05-02T12:24:26.815Z</time></trkpt><trkpt lat="45.7825738" lon="9.9817831"><ele>373.8</ele><time>2026-05-02T12:24:28.814Z</time></trkpt><trkpt lat="45.782509" lon="9.9817011"><ele>376.0</ele><time>2026-05-02T12:24:30.815Z</time></trkpt><trkpt lat="45.7824313" lon="9.9816567"><ele>376.0</ele><time>2026-05-02T12:24:33.814Z</time></trkpt><trkpt lat="45.7823271" lon="9.9817219"><ele>376.0</ele><time>2026-05-02T12:24:35.813Z</time></trkpt><trkpt lat="45.7822381" lon="9.981753"><ele>376.0</ele><time>2026-05-02T12:24:39.813Z</time></trkpt><trkpt lat="45.7821739" lon="9.9817938"><ele>376.0</ele><time>2026-05-02T12:24:41.815Z</time></trkpt><trkpt lat="45.7821129" lon="9.9817644"><ele>376.0</ele><time>2026-05-02T12:24:43.814Z</time></trkpt><trkpt lat="45.782092" lon="9.9816597"><ele>376.0</ele><time>2026-05-02T12:24:45.813Z</time></trkpt><trkpt lat="45.7821599" lon="9.9815203"><ele>376.0</ele><time>2026-05-02T12:24:47.813Z</time></trkpt><trkpt lat="45.782206" lon="9.9814281"><ele>376.0</ele><time>2026-05-02T12:24:48.813Z</time></trkpt><trkpt lat="45.7822371" lon="9.9813018"><ele>376.0</ele><time>2026-05-02T12:24:49.814Z</time></trkpt><trkpt lat="45.7822616" lon="9.9811605"><ele>376.0</ele><time>2026-05-02T12:24:50.814Z</time></trkpt><trkpt lat="45.7822789" lon="9.9810389"><ele>376.0</ele><time>2026-05-02T12:24:51.814Z</time></trkpt><trkpt lat="45.7823113" lon="9.9809205"><ele>376.0</ele><time>2026-05-02T12:24:52.813Z</time></trkpt><trkpt lat="45.7823454" lon="9.9808096"><ele>377.3333333333333</ele><time>2026-05-02T12:24:53.814Z</time></trkpt><trkpt lat="45.7823684" lon="9.9807197"><ele>378.66666666666663</ele><time>2026-05-02T12:24:54.814Z</time></trkpt><trkpt lat="45.7823409" lon="9.9806075"><ele>380.0</ele><time>2026-05-02T12:24:56.813Z</time></trkpt><trkpt lat="45.7822772" lon="9.9805846"><ele>381.3333333333333</ele><time>2026-05-02T12:24:57.814Z</time></trkpt><trkpt lat="45.7822137" lon="9.9806134"><ele>382.6666666666667</ele><time>2026-05-02T12:24:58.814Z</time></trkpt><trkpt lat="45.7821333" lon="9.9806481"><ele>384.0</ele><time>2026-05-02T12:24:59.814Z</time></trkpt><trkpt lat="45.7820361" lon="9.9806635"><ele>384.0</ele><time>2026-05-02T12:25:00.814Z</time></trkpt><trkpt lat="45.7819535" lon="9.9806654"><ele>384.0</ele><time>2026-05-02T12:25:01.815Z</time></trkpt><trkpt lat="45.781883" lon="9.9806789"><ele>384.0</ele><time>2026-05-02T12:25:02.812Z</time></trkpt><trkpt lat="45.7817908" lon="9.9806773"><ele>384.0</ele><time>2026-05-02T12:25:03.812Z</time></trkpt><trkpt lat="45.7817168" lon="9.9806909"><ele>384.0</ele><time>2026-05-02T12:25:04.813Z</time></trkpt><trkpt lat="45.78162" lon="9.9806922"><ele>384.0</ele><time>2026-05-02T12:25:05.814Z</time></trkpt><trkpt lat="45.7815496" lon="9.9806727"><ele>387.3333333333333</ele><time>2026-05-02T12:25:06.813Z</time></trkpt><trkpt lat="45.7814791" lon="9.9806641"><ele>390.66666666666663</ele><time>2026-05-02T12:25:07.813Z</time></trkpt><trkpt lat="45.7814066" lon="9.9806462"><ele>394.0</ele><time>2026-05-02T12:25:08.814Z</time></trkpt><trkpt lat="45.7813271" lon="9.9806135"><ele>397.3333333333333</ele><time>2026-05-02T12:25:09.814Z</time></trkpt><trkpt lat="45.7812468" lon="9.9805622"><ele>400.66666666666663</ele><time>2026-05-02T12:25:10.813Z</time></trkpt><trkpt lat="45.7811881" lon="9.9805032"><ele>404.0</ele><time>2026-05-02T12:25:11.814Z</time></trkpt><trkpt lat="45.7811423" lon="9.9804236"><ele>404.0</ele><time>2026-05-02T12:25:12.813Z</time></trkpt><trkpt lat="45.7811069" lon="9.9803407"><ele>404.0</ele><time>2026-05-02T12:25:13.814Z</time></trkpt><trkpt lat="45.7810651" lon="9.98025"><ele>404.0</ele><time>2026-05-02T12:25:14.812Z</time></trkpt><trkpt lat="45.781018" lon="9.9801729"><ele>404.0</ele><time>2026-05-02T12:25:15.813Z</time></trkpt><trkpt lat="45.7809455" lon="9.9801716"><ele>404.0</ele><time>2026-05-02T12:26:47.814Z</time></trkpt><trkpt lat="45.7808831" lon="9.9802153"><ele>404.0</ele><time>2026-05-02T12:26:49.813Z</time></trkpt><trkpt lat="45.7808231" lon="9.9802874"><ele>404.0</ele><time>2026-05-02T12:26:51.815Z</time></trkpt><trkpt lat="45.7807713" lon="9.9803931"><ele>407.79999999999995</ele><time>2026-05-02T12:26:54.813Z</time></trkpt><trkpt lat="45.7806776" lon="9.9804422"><ele>411.59999999999997</ele><time>2026-05-02T12:26:55.814Z</time></trkpt><trkpt lat="45.7805664" lon="9.9804604"><ele>415.4</ele><time>2026-05-02T12:26:57.815Z</time></trkpt><trkpt lat="45.7805011" lon="9.9804568"><ele>419.2</ele><time>2026-05-02T12:26:58.815Z</time></trkpt><trkpt lat="45.7804102" lon="9.9804069"><ele>423.0</ele><time>2026-05-02T12:27:01.813Z</time></trkpt><trkpt lat="45.7803409" lon="9.9803304"><ele>423.0</ele><time>2026-05-02T12:27:03.815Z</time></trkpt><trkpt lat="45.7802634" lon="9.9802626"><ele>423.0</ele><time>2026-05-02T12:27:05.813Z</time></trkpt><trkpt lat="45.7801574" lon="9.980237"><ele>423.0</ele><time>2026-05-02T12:27:07.814Z</time></trkpt><trkpt lat="45.7800636" lon="9.9801935"><ele>423.0</ele><time>2026-05-02T12:27:09.814Z</time></trkpt><trkpt lat="45.7799646" lon="9.9801664"><ele>423.0</ele><time>2026-05-02T12:27:11.812Z</time></trkpt><trkpt lat="45.7798973" lon="9.9801749"><ele>428.6666666666667</ele><time>2026-05-02T12:27:14.813Z</time></trkpt><trkpt lat="45.7798196" lon="9.980147"><ele>434.33333333333337</ele><time>2026-05-02T12:27:19.813Z</time></trkpt><trkpt lat="45.779745" lon="9.980107"><ele>440.0</ele><time>2026-05-02T12:27:23.683Z</time></trkpt><trkpt lat="45.779663" lon="9.9800693"><ele>445.6666666666667</ele><time>2026-05-02T12:27:26.815Z</time></trkpt><trkpt lat="45.779605" lon="9.9800176"><ele>451.33333333333337</ele><time>2026-05-02T12:27:50.813Z</time></trkpt><trkpt lat="45.7795425" lon="9.9799774"><ele>457.0</ele><time>2026-05-02T12:28:03.815Z</time></trkpt><trkpt lat="45.7794621" lon="9.9799691"><ele>457.1428571428572</ele><time>2026-05-02T12:28:54.813Z</time></trkpt><trkpt lat="45.7793972" lon="9.9799384"><ele>457.28571428571433</ele><time>2026-05-02T12:28:59.814Z</time></trkpt><trkpt lat="45.7793335" lon="9.979934"><ele>457.42857142857144</ele><time>2026-05-02T12:30:29.813Z</time></trkpt><trkpt lat="45.7792634" lon="9.9799126"><ele>457.5714285714286</ele><time>2026-05-02T12:30:31.814Z</time></trkpt><trkpt lat="45.7791958" lon="9.9799011"><ele>457.7142857142858</ele><time>2026-05-02T12:30:33.813Z</time></trkpt><trkpt lat="45.7791271" lon="9.9798944"><ele>457.85714285714283</ele><time>2026-05-02T12:30:36.813Z</time></trkpt><trkpt lat="45.77904" lon="9.9798774"><ele>458.0</ele><time>2026-05-02T12:30:39.814Z</time></trkpt><trkpt lat="45.7789628" lon="9.9798635"><ele>460.3333333333333</ele><time>2026-05-02T12:30:46.813Z</time></trkpt><trkpt lat="45.7788798" lon="9.9798998"><ele>462.66666666666663</ele><time>2026-05-02T12:30:47.812Z</time></trkpt><trkpt lat="45.7787811" lon="9.9798738"><ele>465.0</ele><time>2026-05-02T12:30:49.814Z</time></trkpt><trkpt lat="45.7786935" lon="9.9798334"><ele>467.33333333333337</ele><time>2026-05-02T12:30:51.813Z</time></trkpt><trkpt lat="45.7786154" lon="9.9797936"><ele>469.6666666666667</ele><time>2026-05-02T12:30:53.813Z</time></trkpt><trkpt lat="45.7785455" lon="9.979782"><ele>472.0</ele><time>2026-05-02T12:30:55.812Z</time></trkpt><trkpt lat="45.778473" lon="9.9797391"><ele>474.0</ele><time>2026-05-02T12:30:59.814Z</time></trkpt><trkpt lat="45.7783991" lon="9.9797172"><ele>476.0</ele><time>2026-05-02T12:31:03.814Z</time></trkpt><trkpt lat="45.7783265" lon="9.9796948"><ele>478.0</ele><time>2026-05-02T12:31:19.813Z</time></trkpt><trkpt lat="45.7782657" lon="9.9796643"><ele>480.0</ele><time>2026-05-02T12:31:27.813Z</time></trkpt><trkpt lat="45.7782057" lon="9.9796296"><ele>482.0</ele><time>2026-05-02T12:31:35.813Z</time></trkpt><trkpt lat="45.7781507" lon="9.9795773"><ele>484.0</ele><time>2026-05-02T12:31:40.813Z</time></trkpt><trkpt lat="45.7780873" lon="9.979538"><ele>486.0</ele><time>2026-05-02T12:31:45.814Z</time></trkpt><trkpt lat="45.7780214" lon="9.9795213"><ele>486.0</ele><time>2026-05-02T12:31:59.812Z</time></trkpt><trkpt lat="45.7779582" lon="9.9794825"><ele>486.0</ele><time>2026-05-02T12:32:03.813Z</time></trkpt><trkpt lat="45.777894" lon="9.9794788"><ele>486.0</ele><time>2026-05-02T12:32:23.814Z</time></trkpt><trkpt lat="45.7778206" lon="9.9794095"><ele>486.0</ele><time>2026-05-02T12:32:27.813Z</time></trkpt><trkpt lat="45.7777642" lon="9.979327"><ele>486.0</ele><time>2026-05-02T12:34:27.813Z</time></trkpt><trkpt lat="45.7776749" lon="9.9792792"><ele>486.0</ele><time>2026-05-02T12:34:30.813Z</time></trkpt><trkpt lat="45.7775935" lon="9.9791858"><ele>489.8333333333333</ele><time>2026-05-02T12:34:32.813Z</time></trkpt><trkpt lat="45.7775031" lon="9.9791282"><ele>493.66666666666663</ele><time>2026-05-02T12:34:34.813Z</time></trkpt><trkpt lat="45.7774155" lon="9.979144"><ele>497.5</ele><time>2026-05-02T12:34:36.815Z</time></trkpt><trkpt lat="45.7773202" lon="9.9791998"><ele>501.3333333333333</ele><time>2026-05-02T12:34:38.814Z</time></trkpt><trkpt lat="45.7772412" lon="9.9792296"><ele>505.16666666666663</ele><time>2026-05-02T12:34:40.812Z</time></trkpt><trkpt lat="45.7771804" lon="9.9792627"><ele>509.0</ele><time>2026-05-02T12:34:42.813Z</time></trkpt><trkpt lat="45.7771244" lon="9.9793543"><ele>508.99999999999994</ele><time>2026-05-02T12:34:44.813Z</time></trkpt><trkpt lat="45.7770745" lon="9.9794137"><ele>509.0</ele><time>2026-05-02T12:36:08.814Z</time></trkpt><trkpt lat="45.777018" lon="9.9794713"><ele>508.99999999999994</ele><time>2026-05-02T12:37:34.813Z</time></trkpt><trkpt lat="45.7769877" lon="9.9795569"><ele>508.99999999999994</ele><time>2026-05-02T12:38:42.813Z</time></trkpt><trkpt lat="45.7770385" lon="9.9796149"><ele>509.0</ele><time>2026-05-02T12:39:32.813Z</time></trkpt><trkpt lat="45.777099" lon="9.979645"><ele>508.99999999999994</ele><time>2026-05-02T12:39:35.813Z</time></trkpt><trkpt lat="45.777171" lon="9.9796946"><ele>508.99999999999994</ele><time>2026-05-02T12:39:38.814Z</time></trkpt><trkpt lat="45.777226" lon="9.9797563"><ele>509.0</ele><time>2026-05-02T12:39:41.812Z</time></trkpt><trkpt lat="45.7772684" lon="9.9798368"><ele>509.0</ele><time>2026-05-02T12:39:43.813Z</time></trkpt><trkpt lat="45.7773705" lon="9.9800585"><ele>509.0</ele><time>2026-05-02T12:39:45.813Z</time></trkpt><trkpt lat="45.7773972" lon="9.9801652"><ele>509.0</ele><time>2026-05-02T12:39:46.813Z</time></trkpt><trkpt lat="45.777471" lon="9.9801998"><ele>509.0</ele><time>2026-05-02T12:39:50.813Z</time></trkpt><trkpt lat="45.7775551" lon="9.9802815"><ele>506.25</ele><time>2026-05-02T12:39:54.814Z</time></trkpt><trkpt lat="45.7776543" lon="9.9803767"><ele>503.5</ele><time>2026-05-02T12:39:56.812Z</time></trkpt><trkpt lat="45.7777661" lon="9.9804872"><ele>500.75</ele><time>2026-05-02T12:39:58.813Z</time></trkpt><trkpt lat="45.7778313" lon="9.9805563"><ele>498.0</ele><time>2026-05-02T12:39:59.813Z</time></trkpt><trkpt lat="45.7779173" lon="9.9806721"><ele>498.0</ele><time>2026-05-02T12:40:00.813Z</time></trkpt><trkpt lat="45.7779911" lon="9.980761"><ele>498.0</ele><time>2026-05-02T12:40:01.814Z</time></trkpt><trkpt lat="45.7780434" lon="9.9808344"><ele>498.0</ele><time>2026-05-02T12:40:02.813Z</time></trkpt><trkpt lat="45.778121" lon="9.9809044"><ele>498.0</ele><time>2026-05-02T12:40:04.812Z</time></trkpt><trkpt lat="45.7781595" lon="9.9810411"><ele>498.0</ele><time>2026-05-02T12:40:26.814Z</time></trkpt><trkpt lat="45.7780965" lon="9.9810391"><ele>498.0</ele><time>2026-05-02T12:40:29.813Z</time></trkpt><trkpt lat="45.7780099" lon="9.9810094"><ele>499.0</ele><time>2026-05-02T12:40:31.814Z</time></trkpt><trkpt lat="45.777942" lon="9.9810021"><ele>499.99999999999994</ele><time>2026-05-02T12:40:33.814Z</time></trkpt><trkpt lat="45.7778634" lon="9.9809858"><ele>501.0</ele><time>2026-05-02T12:40:35.813Z</time></trkpt><trkpt lat="45.7777976" lon="9.9809809"><ele>502.0</ele><time>2026-05-02T12:40:37.812Z</time></trkpt><trkpt lat="45.7777186" lon="9.9809734"><ele>502.99999999999994</ele><time>2026-05-02T12:40:39.814Z</time></trkpt><trkpt lat="45.7776546" lon="9.981005"><ele>504.0</ele><time>2026-05-02T12:40:42.814Z</time></trkpt><trkpt lat="45.7776041" lon="9.9810677"><ele>505.0</ele><time>2026-05-02T12:40:45.744Z</time></trkpt><trkpt lat="45.7775522" lon="9.9811331"><ele>510.0</ele><time>2026-05-02T12:40:48.813Z</time></trkpt><trkpt lat="45.7774957" lon="9.9811733"><ele>515.0</ele><time>2026-05-02T12:41:12.813Z</time></trkpt><trkpt lat="45.7774322" lon="9.9812228"><ele>520.0</ele><time>2026-05-02T12:49:46.813Z</time></trkpt><trkpt lat="45.7773991" lon="9.9813045"><ele>525.0</ele><time>2026-05-02T12:50:00.812Z</time></trkpt><trkpt lat="45.7773365" lon="9.9813156"><ele>530.0</ele><time>2026-05-02T12:50:04.812Z</time></trkpt><trkpt lat="45.7772659" lon="9.9813761"><ele>535.0</ele><time>2026-05-02T12:51:29.814Z</time></trkpt><trkpt lat="45.777213" lon="9.9814382"><ele>540.0</ele><time>2026-05-02T12:51:35.813Z</time></trkpt><trkpt lat="45.7771421" lon="9.9815075"><ele>540.0</ele><time>2026-05-02T12:58:25.813Z</time></trkpt><trkpt lat="45.777164" lon="9.9816173"><ele>540.0</ele><time>2026-05-02T12:58:29.813Z</time></trkpt><trkpt lat="45.777222" lon="9.9817427"><ele>540.0</ele><time>2026-05-02T12:58:31.814Z</time></trkpt><trkpt lat="45.7772599" lon="9.9818605"><ele>540.0</ele><time>2026-05-02T12:58:32.814Z</time></trkpt><trkpt lat="45.7773091" lon="9.9820211"><ele>540.0</ele><time>2026-05-02T12:58:33.814Z</time></trkpt><trkpt lat="45.7773517" lon="9.9821651"><ele>544.75</ele><time>2026-05-02T12:58:34.814Z</time></trkpt><trkpt lat="45.7774799" lon="9.9825452"><ele>549.5</ele><time>2026-05-02T12:58:35.812Z</time></trkpt><trkpt lat="45.777506" lon="9.9826562"><ele>554.25</ele><time>2026-05-02T12:58:36.813Z</time></trkpt><trkpt lat="45.7775356" lon="9.9827511"><ele>559.0</ele><time>2026-05-02T12:58:37.814Z</time></trkpt><trkpt lat="45.7775885" lon="9.9828941"><ele>559.0</ele><time>2026-05-02T12:58:39.813Z</time></trkpt><trkpt lat="45.7776561" lon="9.9830254"><ele>559.0</ele><time>2026-05-02T12:58:41.812Z</time></trkpt><trkpt lat="45.7777005" lon="9.9830932"><ele>559.0</ele><time>2026-05-02T12:58:42.813Z</time></trkpt><trkpt lat="45.7777743" lon="9.9832127"><ele>559.0</ele><time>2026-05-02T12:58:43.813Z</time></trkpt><trkpt lat="45.7778339" lon="9.983304"><ele>559.0</ele><time>2026-05-02T12:58:44.813Z</time></trkpt><trkpt lat="45.7778831" lon="9.983441"><ele>554.6</ele><time>2026-05-02T12:58:45.813Z</time></trkpt><trkpt lat="45.7779335" lon="9.9835584"><ele>550.2</ele><time>2026-05-02T12:58:46.813Z</time></trkpt><trkpt lat="45.7779905" lon="9.9836749"><ele>545.8000000000001</ele><time>2026-05-02T12:58:47.812Z</time></trkpt><trkpt lat="45.7780452" lon="9.9838188"><ele>541.4</ele><time>2026-05-02T12:58:48.814Z</time></trkpt><trkpt lat="45.7780764" lon="9.9839119"><ele>537.0</ele><time>2026-05-02T12:58:49.813Z</time></trkpt><trkpt lat="45.7781626" lon="9.983988"><ele>537.0</ele><time>2026-05-02T12:58:50.814Z</time></trkpt><trkpt lat="45.7782388" lon="9.9841123"><ele>537.0</ele><time>2026-05-02T12:58:51.812Z</time></trkpt><trkpt lat="45.778301" lon="9.9842165"><ele>537.0</ele><time>2026-05-02T12:58:52.813Z</time></trkpt><trkpt lat="45.7783174" lon="9.9843071"><ele>537.0</ele><time>2026-05-02T12:58:53.814Z</time></trkpt><trkpt lat="45.778359" lon="9.984406"><ele>537.0</ele><time>2026-05-02T12:58:54.814Z</time></trkpt><trkpt lat="45.7783906" lon="9.9845034"><ele>537.0</ele><time>2026-05-02T12:58:55.813Z</time></trkpt><trkpt lat="45.7784347" lon="9.9846638"><ele>538.6</ele><time>2026-05-02T12:58:56.812Z</time></trkpt><trkpt lat="45.7784467" lon="9.984789"><ele>540.2</ele><time>2026-05-02T12:58:57.813Z</time></trkpt><trkpt lat="45.7784947" lon="9.9849156"><ele>541.8</ele><time>2026-05-02T12:58:58.812Z</time></trkpt><trkpt lat="45.7785105" lon="9.9850745"><ele>543.4</ele><time>2026-05-02T12:58:59.813Z</time></trkpt><trkpt lat="45.7785053" lon="9.9852148"><ele>545.0</ele><time>2026-05-02T12:59:00.812Z</time></trkpt><trkpt lat="45.7785115" lon="9.9853869"><ele>545.5</ele><time>2026-05-02T12:59:01.814Z</time></trkpt><trkpt lat="45.7785041" lon="9.9855423"><ele>546.0</ele><time>2026-05-02T12:59:02.813Z</time></trkpt><trkpt lat="45.7784962" lon="9.9856357"><ele>546.5</ele><time>2026-05-02T12:59:03.813Z</time></trkpt><trkpt lat="45.7785284" lon="9.9857255"><ele>547.0</ele><time>2026-05-02T12:59:04.812Z</time></trkpt><trkpt lat="45.7785778" lon="9.9858517"><ele>547.5</ele><time>2026-05-02T12:59:05.814Z</time></trkpt><trkpt lat="45.778643" lon="9.9859355"><ele>548.0</ele><time>2026-05-02T12:59:06.813Z</time></trkpt><trkpt lat="45.778674" lon="9.986051"><ele>541.0</ele><time>2026-05-02T12:59:07.813Z</time></trkpt><trkpt lat="45.7787126" lon="9.9861614"><ele>534.0</ele><time>2026-05-02T12:59:08.813Z</time></trkpt><trkpt lat="45.7787491" lon="9.9862672"><ele>527.0</ele><time>2026-05-02T12:59:09.812Z</time></trkpt><trkpt lat="45.7787917" lon="9.9864414"><ele>520.0</ele><time>2026-05-02T12:59:11.814Z</time></trkpt><trkpt lat="45.778819" lon="9.9865301"><ele>513.0</ele><time>2026-05-02T12:59:12.813Z</time></trkpt><trkpt lat="45.7788973" lon="9.9866451"><ele>512.0</ele><time>2026-05-02T12:59:14.813Z</time></trkpt><trkpt lat="45.7789193" lon="9.9867444"><ele>510.99999999999994</ele><time>2026-05-02T12:59:15.814Z</time></trkpt><trkpt lat="45.7789009" lon="9.9869316"><ele>509.99999999999994</ele><time>2026-05-02T12:59:16.813Z</time></trkpt><trkpt lat="45.77892" lon="9.9870926"><ele>509.0</ele><time>2026-05-02T12:59:17.813Z</time></trkpt><trkpt lat="45.7789419" lon="9.9872448"><ele>508.0</ele><time>2026-05-02T12:59:18.813Z</time></trkpt><trkpt lat="45.7789438" lon="9.9873757"><ele>508.0</ele><time>2026-05-02T12:59:19.813Z</time></trkpt><trkpt lat="45.7789346" lon="9.9874973"><ele>507.99999999999994</ele><time>2026-05-02T12:59:20.814Z</time></trkpt><trkpt lat="45.7789314" lon="9.9876319"><ele>507.99999999999994</ele><time>2026-05-02T12:59:21.813Z</time></trkpt><trkpt lat="45.7789249" lon="9.9877573"><ele>508.0</ele><time>2026-05-02T12:59:22.814Z</time></trkpt><trkpt lat="45.7789164" lon="9.9878828"><ele>508.0</ele><time>2026-05-02T12:59:23.812Z</time></trkpt><trkpt lat="45.7789027" lon="9.988032"><ele>506.79999999999995</ele><time>2026-05-02T12:59:24.813Z</time></trkpt><trkpt lat="45.7788754" lon="9.9881833"><ele>505.59999999999997</ele><time>2026-05-02T12:59:25.812Z</time></trkpt><trkpt lat="45.778853" lon="9.9883232"><ele>504.40000000000003</ele><time>2026-05-02T12:59:26.813Z</time></trkpt><trkpt lat="45.778836" lon="9.9884926"><ele>503.20000000000005</ele><time>2026-05-02T12:59:27.812Z</time></trkpt><trkpt lat="45.7788178" lon="9.9886289"><ele>502.0</ele><time>2026-05-02T12:59:28.812Z</time></trkpt><trkpt lat="45.7787961" lon="9.9887971"><ele>501.40000000000003</ele><time>2026-05-02T12:59:29.813Z</time></trkpt><trkpt lat="45.7787725" lon="9.9889637"><ele>500.80000000000007</ele><time>2026-05-02T12:59:30.814Z</time></trkpt><trkpt lat="45.7788213" lon="9.9891088"><ele>500.2</ele><time>2026-05-02T12:59:31.814Z</time></trkpt><trkpt lat="45.7788073" lon="9.9892639"><ele>499.6</ele><time>2026-05-02T12:59:32.814Z</time></trkpt><trkpt lat="45.7788089" lon="9.9894161"><ele>499.0</ele><time>2026-05-02T12:59:33.813Z</time></trkpt><trkpt lat="45.7788193" lon="9.9896139"><ele>499.0</ele><time>2026-05-02T12:59:34.812Z</time></trkpt><trkpt lat="45.778816" lon="9.9897437"><ele>499.0</ele><time>2026-05-02T12:59:35.813Z</time></trkpt><trkpt lat="45.7788088" lon="9.9898819"><ele>499.0</ele><time>2026-05-02T12:59:36.813Z</time></trkpt><trkpt lat="45.7788179" lon="9.9900208"><ele>499.0</ele><time>2026-05-02T12:59:37.813Z</time></trkpt><trkpt lat="45.7789391" lon="9.9901349"><ele>499.0</ele><time>2026-05-02T12:59:38.813Z</time></trkpt><trkpt lat="45.7789861" lon="9.9902542"><ele>499.0</ele><time>2026-05-02T12:59:39.814Z</time></trkpt><trkpt lat="45.7790342" lon="9.9903467"><ele>499.0</ele><time>2026-05-02T12:59:40.813Z</time></trkpt><trkpt lat="45.779081" lon="9.9904282"><ele>499.0</ele><time>2026-05-02T12:59:41.814Z</time></trkpt><trkpt lat="45.7791407" lon="9.99051"><ele>499.0</ele><time>2026-05-02T12:59:42.814Z</time></trkpt><trkpt lat="45.7792153" lon="9.9906714"><ele>499.0</ele><time>2026-05-02T12:59:44.814Z</time></trkpt><trkpt lat="45.7791768" lon="9.9908441"><ele>499.0</ele><time>2026-05-02T12:59:46.814Z</time></trkpt><trkpt lat="45.7791834" lon="9.9909381"><ele>499.0</ele><time>2026-05-02T12:59:47.812Z</time></trkpt><trkpt lat="45.7792027" lon="9.9910891"><ele>499.0</ele><time>2026-05-02T12:59:48.813Z</time></trkpt><trkpt lat="45.7791762" lon="9.9912525"><ele>499.0</ele><time>2026-05-02T12:59:49.813Z</time></trkpt><trkpt lat="45.7791515" lon="9.9914183"><ele>499.0</ele><time>2026-05-02T12:59:50.813Z</time></trkpt><trkpt lat="45.7791242" lon="9.9915925"><ele>498.0</ele><time>2026-05-02T12:59:51.814Z</time></trkpt><trkpt lat="45.7790884" lon="9.9917894"><ele>497.0</ele><time>2026-05-02T12:59:52.813Z</time></trkpt><trkpt lat="45.7790654" lon="9.9919535"><ele>496.0</ele><time>2026-05-02T12:59:53.814Z</time></trkpt><trkpt lat="45.7790537" lon="9.9921042"><ele>495.0</ele><time>2026-05-02T12:59:54.812Z</time></trkpt><trkpt lat="45.7790463" lon="9.9922545"><ele>495.0</ele><time>2026-05-02T12:59:55.813Z</time></trkpt><trkpt lat="45.779041" lon="9.9924032"><ele>495.0</ele><time>2026-05-02T12:59:56.813Z</time></trkpt><trkpt lat="45.7790423" lon="9.992546"><ele>495.0</ele><time>2026-05-02T12:59:57.812Z</time></trkpt><trkpt lat="45.7790309" lon="9.9926997"><ele>495.0</ele><time>2026-05-02T12:59:58.814Z</time></trkpt><trkpt lat="45.7789928" lon="9.9928337"><ele>495.0</ele><time>2026-05-02T12:59:59.813Z</time></trkpt><trkpt lat="45.7789696" lon="9.9929698"><ele>493.6</ele><time>2026-05-02T13:00:00.814Z</time></trkpt><trkpt lat="45.7789476" lon="9.9930939"><ele>492.2</ele><time>2026-05-02T13:00:01.813Z</time></trkpt><trkpt lat="45.7788734" lon="9.9932017"><ele>490.79999999999995</ele><time>2026-05-02T13:00:02.813Z</time></trkpt><trkpt lat="45.7787998" lon="9.9933527"><ele>489.4</ele><time>2026-05-02T13:00:03.813Z</time></trkpt><trkpt lat="45.7787348" lon="9.9935068"><ele>488.0</ele><time>2026-05-02T13:00:04.813Z</time></trkpt><trkpt lat="45.7786341" lon="9.9936976"><ele>488.5</ele><time>2026-05-02T13:00:05.814Z</time></trkpt><trkpt lat="45.7785542" lon="9.9938554"><ele>489.0</ele><time>2026-05-02T13:00:06.813Z</time></trkpt><trkpt lat="45.7784808" lon="9.9939866"><ele>489.5</ele><time>2026-05-02T13:00:07.813Z</time></trkpt><trkpt lat="45.7783828" lon="9.9941037"><ele>490.0</ele><time>2026-05-02T13:00:08.812Z</time></trkpt><trkpt lat="45.7783114" lon="9.9941982"><ele>490.00000000000006</ele><time>2026-05-02T13:00:09.813Z</time></trkpt><trkpt lat="45.7782544" lon="9.9942809"><ele>490.0</ele><time>2026-05-02T13:00:10.814Z</time></trkpt><trkpt lat="45.7781993" lon="9.9943475"><ele>490.0</ele><time>2026-05-02T13:00:11.812Z</time></trkpt><trkpt lat="45.7781312" lon="9.9945086"><ele>490.0</ele><time>2026-05-02T13:00:13.813Z</time></trkpt><trkpt lat="45.778098" lon="9.994591"><ele>490.00000000000006</ele><time>2026-05-02T13:00:14.813Z</time></trkpt><trkpt lat="45.7780855" lon="9.994716"><ele>490.0</ele><time>2026-05-02T13:00:15.814Z</time></trkpt><trkpt lat="45.7779483" lon="9.9949056"><ele>490.0</ele><time>2026-05-02T13:00:17.813Z</time></trkpt><trkpt lat="45.7778932" lon="9.9949777"><ele>490.0</ele><time>2026-05-02T13:00:18.811Z</time></trkpt><trkpt lat="45.7778223" lon="9.9950658"><ele>490.0</ele><time>2026-05-02T13:00:19.812Z</time></trkpt><trkpt lat="45.7777614" lon="9.995141"><ele>490.0</ele><time>2026-05-02T13:00:20.813Z</time></trkpt><trkpt lat="45.7776751" lon="9.9952096"><ele>490.0</ele><time>2026-05-02T13:00:21.813Z</time></trkpt><trkpt lat="45.7775869" lon="9.9952888"><ele>491.0</ele><time>2026-05-02T13:00:22.814Z</time></trkpt><trkpt lat="45.7775021" lon="9.9953346"><ele>492.0</ele><time>2026-05-02T13:00:23.812Z</time></trkpt><trkpt lat="45.7774396" lon="9.9953764"><ele>493.0</ele><time>2026-05-02T13:00:24.813Z</time></trkpt><trkpt lat="45.7773355" lon="9.9954148"><ele>494.0</ele><time>2026-05-02T13:00:26.812Z</time></trkpt><trkpt lat="45.7772188" lon="9.9953877"><ele>495.0</ele><time>2026-05-02T13:00:28.812Z</time></trkpt><trkpt lat="45.7771384" lon="9.9954537"><ele>495.0</ele><time>2026-05-02T13:00:29.813Z</time></trkpt><trkpt lat="45.777102" lon="9.9955456"><ele>495.0</ele><time>2026-05-02T13:00:31.813Z</time></trkpt><trkpt lat="45.7770971" lon="9.9956912"><ele>495.0</ele><time>2026-05-02T13:00:33.813Z</time></trkpt><trkpt lat="45.777011" lon="9.9958478"><ele>495.0</ele><time>2026-05-02T13:00:35.812Z</time></trkpt><trkpt lat="45.7769624" lon="9.995945"><ele>495.0</ele><time>2026-05-02T13:00:36.812Z</time></trkpt><trkpt lat="45.7769297" lon="9.9960452"><ele>496.0</ele><time>2026-05-02T13:00:37.814Z</time></trkpt><trkpt lat="45.7768832" lon="9.9961488"><ele>497.0</ele><time>2026-05-02T13:00:38.814Z</time></trkpt><trkpt lat="45.7769273" lon="9.9963155"><ele>498.0</ele><time>2026-05-02T13:00:40.813Z</time></trkpt><trkpt lat="45.7770052" lon="9.9963795"><ele>499.0</ele><time>2026-05-02T13:00:41.811Z</time></trkpt><trkpt lat="45.7770915" lon="9.9964077"><ele>500.0</ele><time>2026-05-02T13:00:42.812Z</time></trkpt><trkpt lat="45.777172" lon="9.9964506"><ele>499.99999999999994</ele><time>2026-05-02T13:00:43.813Z</time></trkpt><trkpt lat="45.7772502" lon="9.9964943"><ele>500.0</ele><time>2026-05-02T13:00:44.812Z</time></trkpt><trkpt lat="45.7773302" lon="9.9965722"><ele>500.0</ele><time>2026-05-02T13:00:45.814Z</time></trkpt><trkpt lat="45.7774026" lon="9.9966501"><ele>500.0</ele><time>2026-05-02T13:00:46.812Z</time></trkpt><trkpt lat="45.777431" lon="9.9967404"><ele>499.99999999999994</ele><time>2026-05-02T13:00:47.812Z</time></trkpt><trkpt lat="45.7774741" lon="9.9968174"><ele>500.0</ele><time>2026-05-02T13:00:48.813Z</time></trkpt><trkpt lat="45.7774919" lon="9.9969606"><ele>500.8333333333333</ele><time>2026-05-02T13:00:49.813Z</time></trkpt><trkpt lat="45.7774783" lon="9.9970778"><ele>501.66666666666663</ele><time>2026-05-02T13:00:50.813Z</time></trkpt><trkpt lat="45.7774608" lon="9.9972081"><ele>502.5</ele><time>2026-05-02T13:00:51.814Z</time></trkpt><trkpt lat="45.7774129" lon="9.9973131"><ele>503.33333333333337</ele><time>2026-05-02T13:00:52.811Z</time></trkpt><trkpt lat="45.777389" lon="9.9974351"><ele>504.1666666666667</ele><time>2026-05-02T13:00:53.812Z</time></trkpt><trkpt lat="45.7773841" lon="9.9975277"><ele>505.0</ele><time>2026-05-02T13:00:54.813Z</time></trkpt><trkpt lat="45.7774009" lon="9.9976573"><ele>505.8</ele><time>2026-05-02T13:00:56.812Z</time></trkpt><trkpt lat="45.7774313" lon="9.9977862"><ele>506.6</ele><time>2026-05-02T13:00:57.812Z</time></trkpt><trkpt lat="45.7775196" lon="9.9978959"><ele>507.4</ele><time>2026-05-02T13:00:58.812Z</time></trkpt><trkpt lat="45.777567" lon="9.9979858"><ele>508.2</ele><time>2026-05-02T13:00:59.812Z</time></trkpt><trkpt lat="45.777625" lon="9.9980702"><ele>509.0</ele><time>2026-05-02T13:01:00.812Z</time></trkpt><trkpt lat="45.7776805" lon="9.9982399"><ele>508.3333333333333</ele><time>2026-05-02T13:01:02.813Z</time></trkpt><trkpt lat="45.7776923" lon="9.9983346"><ele>507.66666666666663</ele><time>2026-05-02T13:01:03.813Z</time></trkpt><trkpt lat="45.7776821" lon="9.998471"><ele>507.0</ele><time>2026-05-02T13:01:05.813Z</time></trkpt><trkpt lat="45.7777716" lon="9.9985645"><ele>506.33333333333337</ele><time>2026-05-02T13:01:08.811Z</time></trkpt><trkpt lat="45.7778333" lon="9.9986469"><ele>505.6666666666667</ele><time>2026-05-02T13:01:10.812Z</time></trkpt><trkpt lat="45.7778928" lon="9.9987041"><ele>505.0</ele><time>2026-05-02T13:01:12.813Z</time></trkpt><trkpt lat="45.7779698" lon="9.9987404"><ele>505.00000000000006</ele><time>2026-05-02T13:01:14.812Z</time></trkpt><trkpt lat="45.7780435" lon="9.998773"><ele>505.0</ele><time>2026-05-02T13:01:16.813Z</time></trkpt><trkpt lat="45.7781277" lon="9.9988298"><ele>505.0</ele><time>2026-05-02T13:01:19.811Z</time></trkpt><trkpt lat="45.7781747" lon="9.9988908"><ele>505.0</ele><time>2026-05-02T13:01:20.813Z</time></trkpt><trkpt lat="45.7782459" lon="9.9990095"><ele>505.00000000000006</ele><time>2026-05-02T13:01:22.812Z</time></trkpt><trkpt lat="45.7782803" lon="9.9991148"><ele>505.0</ele><time>2026-05-02T13:01:24.813Z</time></trkpt><trkpt lat="45.7783026" lon="9.9992027"><ele>504.2</ele><time>2026-05-02T13:01:25.812Z</time></trkpt><trkpt lat="45.7783616" lon="9.9993279"><ele>503.4</ele><time>2026-05-02T13:01:26.814Z</time></trkpt><trkpt lat="45.7784117" lon="9.9994414"><ele>502.6</ele><time>2026-05-02T13:01:27.813Z</time></trkpt><trkpt lat="45.7784138" lon="9.9995652"><ele>501.8</ele><time>2026-05-02T13:01:29.813Z</time></trkpt><trkpt lat="45.7785046" lon="9.9996275"><ele>501.0</ele><time>2026-05-02T13:01:31.812Z</time></trkpt><trkpt lat="45.778601" lon="9.999598"><ele>501.0</ele><time>2026-05-02T13:01:33.813Z</time></trkpt><trkpt lat="45.7786614" lon="9.9995652"><ele>501.0</ele><time>2026-05-02T13:01:34.812Z</time></trkpt><trkpt lat="45.778783" lon="9.9995214"><ele>501.0</ele><time>2026-05-02T13:01:36.811Z</time></trkpt><trkpt lat="45.7788812" lon="9.9995176"><ele>501.0</ele><time>2026-05-02T13:01:38.813Z</time></trkpt><trkpt lat="45.7789423" lon="9.9995553"><ele>501.0</ele><time>2026-05-02T13:01:39.812Z</time></trkpt><trkpt lat="45.7790742" lon="9.9996866"><ele>501.0</ele><time>2026-05-02T13:01:41.812Z</time></trkpt><trkpt lat="45.7791347" lon="9.9997947"><ele>501.0</ele><time>2026-05-02T13:01:42.813Z</time></trkpt><trkpt lat="45.7791932" lon="9.999906"><ele>501.0</ele><time>2026-05-02T13:01:43.812Z</time></trkpt><trkpt lat="45.7792358" lon="10.0000266"><ele>501.0</ele><time>2026-05-02T13:01:44.812Z</time></trkpt><trkpt lat="45.779282" lon="10.0001595"><ele>501.0</ele><time>2026-05-02T13:01:45.813Z</time></trkpt><trkpt lat="45.779315" lon="10.0003059"><ele>501.0</ele><time>2026-05-02T13:01:46.813Z</time></trkpt><trkpt lat="45.7793333" lon="10.0004473"><ele>501.0</ele><time>2026-05-02T13:01:47.813Z</time></trkpt><trkpt lat="45.7793439" lon="10.0005882"><ele>501.0</ele><time>2026-05-02T13:01:48.812Z</time></trkpt><trkpt lat="45.7793675" lon="10.0007389"><ele>501.0</ele><time>2026-05-02T13:01:49.811Z</time></trkpt><trkpt lat="45.7794194" lon="10.0008776"><ele>501.0</ele><time>2026-05-02T13:01:50.813Z</time></trkpt><trkpt lat="45.7794782" lon="10.0010161"><ele>498.0</ele><time>2026-05-02T13:01:51.814Z</time></trkpt><trkpt lat="45.7795233" lon="10.0011788"><ele>495.0</ele><time>2026-05-02T13:01:52.813Z</time></trkpt><trkpt lat="45.7795638" lon="10.0013868"><ele>492.0</ele><time>2026-05-02T13:01:53.813Z</time></trkpt><trkpt lat="45.7795925" lon="10.0015872"><ele>489.0</ele><time>2026-05-02T13:01:54.811Z</time></trkpt><trkpt lat="45.7796135" lon="10.0017557"><ele>489.0</ele><time>2026-05-02T13:01:55.812Z</time></trkpt><trkpt lat="45.7796424" lon="10.0019044"><ele>489.0</ele><time>2026-05-02T13:01:56.814Z</time></trkpt><trkpt lat="45.7796797" lon="10.0020653"><ele>489.0</ele><time>2026-05-02T13:01:57.814Z</time></trkpt><trkpt lat="45.7796898" lon="10.002198"><ele>489.0</ele><time>2026-05-02T13:01:58.813Z</time></trkpt><trkpt lat="45.7796985" lon="10.0023195"><ele>489.0</ele><time>2026-05-02T13:01:59.812Z</time></trkpt><trkpt lat="45.7796802" lon="10.0024605"><ele>489.2</ele><time>2026-05-02T13:02:00.813Z</time></trkpt><trkpt lat="45.7796566" lon="10.0026196"><ele>489.4</ele><time>2026-05-02T13:02:01.812Z</time></trkpt><trkpt lat="45.7796364" lon="10.0027873"><ele>489.6</ele><time>2026-05-02T13:02:02.812Z</time></trkpt><trkpt lat="45.7796036" lon="10.0029453"><ele>489.8</ele><time>2026-05-02T13:02:03.811Z</time></trkpt><trkpt lat="45.7795936" lon="10.0030863"><ele>490.0</ele><time>2026-05-02T13:02:04.813Z</time></trkpt><trkpt lat="45.7795786" lon="10.0032176"><ele>490.00000000000006</ele><time>2026-05-02T13:02:05.812Z</time></trkpt><trkpt lat="45.7795509" lon="10.0033219"><ele>490.0</ele><time>2026-05-02T13:02:06.812Z</time></trkpt><trkpt lat="45.7794965" lon="10.0034445"><ele>490.0</ele><time>2026-05-02T13:02:07.812Z</time></trkpt><trkpt lat="45.7794706" lon="10.0035465"><ele>490.0</ele><time>2026-05-02T13:02:08.812Z</time></trkpt><trkpt lat="45.7794708" lon="10.0036613"><ele>490.00000000000006</ele><time>2026-05-02T13:02:09.813Z</time></trkpt><trkpt lat="45.779467" lon="10.0037822"><ele>490.0</ele><time>2026-05-02T13:02:10.814Z</time></trkpt><trkpt lat="45.7794501" lon="10.0039115"><ele>489.1666666666667</ele><time>2026-05-02T13:02:11.813Z</time></trkpt><trkpt lat="45.779452" lon="10.0040264"><ele>488.33333333333337</ele><time>2026-05-02T13:02:12.813Z</time></trkpt><trkpt lat="45.7794838" lon="10.004146"><ele>487.5</ele><time>2026-05-02T13:02:13.813Z</time></trkpt><trkpt lat="45.7795" lon="10.0042628"><ele>486.66666666666663</ele><time>2026-05-02T13:02:14.811Z</time></trkpt><trkpt lat="45.7795028" lon="10.0043827"><ele>485.8333333333333</ele><time>2026-05-02T13:02:15.814Z</time></trkpt><trkpt lat="45.7795019" lon="10.0044825"><ele>485.0</ele><time>2026-05-02T13:02:16.812Z</time></trkpt><trkpt lat="45.7794877" lon="10.0045978"><ele>484.16666666666663</ele><time>2026-05-02T13:02:17.814Z</time></trkpt><trkpt lat="45.7794445" lon="10.0046877"><ele>483.3333333333333</ele><time>2026-05-02T13:02:18.813Z</time></trkpt><trkpt lat="45.7794113" lon="10.0047768"><ele>482.5</ele><time>2026-05-02T13:02:20.814Z</time></trkpt><trkpt lat="45.7793623" lon="10.0048789"><ele>481.66666666666663</ele><time>2026-05-02T13:02:25.814Z</time></trkpt><trkpt lat="45.779333" lon="10.0049964"><ele>480.8333333333333</ele><time>2026-05-02T13:02:28.812Z</time></trkpt><trkpt lat="45.7792702" lon="10.0050826"><ele>480.0</ele><time>2026-05-02T13:02:29.813Z</time></trkpt><trkpt lat="45.7792737" lon="10.0051805"><ele>484.4</ele><time>2026-05-02T13:02:30.814Z</time></trkpt><trkpt lat="45.7792328" lon="10.0053613"><ele>488.8</ele><time>2026-05-02T13:02:32.814Z</time></trkpt><trkpt lat="45.7791849" lon="10.0054572"><ele>493.20000000000005</ele><time>2026-05-02T13:02:33.813Z</time></trkpt><trkpt lat="45.7791413" lon="10.0055617"><ele>497.6</ele><time>2026-05-02T13:02:34.813Z</time></trkpt><trkpt lat="45.7791419" lon="10.0057353"><ele>502.0</ele><time>2026-05-02T13:02:36.812Z</time></trkpt><trkpt lat="45.7791476" lon="10.0058423"><ele>502.00000000000006</ele><time>2026-05-02T13:02:38.813Z</time></trkpt><trkpt lat="45.7791905" lon="10.0059441"><ele>502.0</ele><time>2026-05-02T13:02:40.812Z</time></trkpt><trkpt lat="45.7792001" lon="10.0060638"><ele>502.0</ele><time>2026-05-02T13:02:42.813Z</time></trkpt><trkpt lat="45.7791923" lon="10.0061809"><ele>502.0</ele><time>2026-05-02T13:02:43.812Z</time></trkpt><trkpt lat="45.7791884" lon="10.0063039"><ele>502.00000000000006</ele><time>2026-05-02T13:02:44.814Z</time></trkpt><trkpt lat="45.7791361" lon="10.0064403"><ele>502.0</ele><time>2026-05-02T13:02:45.813Z</time></trkpt><trkpt lat="45.7791324" lon="10.0066062"><ele>501.0</ele><time>2026-05-02T13:02:46.813Z</time></trkpt><trkpt lat="45.7791086" lon="10.0067383"><ele>500.00000000000006</ele><time>2026-05-02T13:02:47.813Z</time></trkpt><trkpt lat="45.7790463" lon="10.0068938"><ele>499.00000000000006</ele><time>2026-05-02T13:02:48.812Z</time></trkpt><trkpt lat="45.7790067" lon="10.0069849"><ele>498.0</ele><time>2026-05-02T13:02:49.813Z</time></trkpt><trkpt lat="45.7789329" lon="10.0070948"><ele>497.0</ele><time>2026-05-02T13:02:50.813Z</time></trkpt><trkpt lat="45.7788465" lon="10.0072189"><ele>497.0</ele><time>2026-05-02T13:02:51.813Z</time></trkpt><trkpt lat="45.7787662" lon="10.0073376"><ele>497.0</ele><time>2026-05-02T13:02:52.811Z</time></trkpt><trkpt lat="45.7786654" lon="10.007457"><ele>497.0</ele><time>2026-05-02T13:02:53.813Z</time></trkpt><trkpt lat="45.778554" lon="10.0075823"><ele>497.0</ele><time>2026-05-02T13:02:54.812Z</time></trkpt><trkpt lat="45.7784687" lon="10.0076762"><ele>498.8333333333333</ele><time>2026-05-02T13:02:55.811Z</time></trkpt><trkpt lat="45.7783775" lon="10.0077384"><ele>500.66666666666663</ele><time>2026-05-02T13:02:56.813Z</time></trkpt><trkpt lat="45.7783093" lon="10.0077992"><ele>502.5</ele><time>2026-05-02T13:02:57.812Z</time></trkpt><trkpt lat="45.7782375" lon="10.0078423"><ele>504.33333333333337</ele><time>2026-05-02T13:02:58.813Z</time></trkpt><trkpt lat="45.7782015" lon="10.0079995"><ele>506.1666666666667</ele><time>2026-05-02T13:03:00.814Z</time></trkpt><trkpt lat="45.778177" lon="10.0080867"><ele>508.0</ele><time>2026-05-02T13:03:01.812Z</time></trkpt><trkpt lat="45.7781553" lon="10.0082353"><ele>505.25</ele><time>2026-05-02T13:03:03.813Z</time></trkpt><trkpt lat="45.7782138" lon="10.0083766"><ele>502.5</ele><time>2026-05-02T13:03:05.812Z</time></trkpt><trkpt lat="45.7783447" lon="10.008548"><ele>499.75</ele><time>2026-05-02T13:03:07.813Z</time></trkpt><trkpt lat="45.7784255" lon="10.0086431"><ele>497.0</ele><time>2026-05-02T13:03:08.813Z</time></trkpt><trkpt lat="45.7784721" lon="10.0087269"><ele>495.6</ele><time>2026-05-02T13:03:09.813Z</time></trkpt><trkpt lat="45.778526" lon="10.0088674"><ele>494.20000000000005</ele><time>2026-05-02T13:03:10.812Z</time></trkpt><trkpt lat="45.7785875" lon="10.0090086"><ele>492.8</ele><time>2026-05-02T13:03:11.812Z</time></trkpt><trkpt lat="45.7786478" lon="10.0091238"><ele>491.4</ele><time>2026-05-02T13:03:12.812Z</time></trkpt><trkpt lat="45.7787318" lon="10.0092262"><ele>490.0</ele><time>2026-05-02T13:03:13.813Z</time></trkpt><trkpt lat="45.7788086" lon="10.0092914"><ele>490.0</ele><time>2026-05-02T13:03:14.814Z</time></trkpt><trkpt lat="45.7788764" lon="10.0093591"><ele>490.0</ele><time>2026-05-02T13:03:15.811Z</time></trkpt><trkpt lat="45.7789417" lon="10.0094272"><ele>490.0</ele><time>2026-05-02T13:03:16.812Z</time></trkpt><trkpt lat="45.7790013" lon="10.0095029"><ele>490.0</ele><time>2026-05-02T13:03:17.813Z</time></trkpt><trkpt lat="45.7790644" lon="10.0095742"><ele>490.0</ele><time>2026-05-02T13:03:18.813Z</time></trkpt><trkpt lat="45.7791487" lon="10.0097268"><ele>490.0</ele><time>2026-05-02T13:03:20.812Z</time></trkpt><trkpt lat="45.7792045" lon="10.009875"><ele>490.0</ele><time>2026-05-02T13:03:22.814Z</time></trkpt><trkpt lat="45.7792433" lon="10.0100698"><ele>490.0</ele><time>2026-05-02T13:03:24.812Z</time></trkpt><trkpt lat="45.779263" lon="10.0102352"><ele>490.0</ele><time>2026-05-02T13:03:26.812Z</time></trkpt><trkpt lat="45.7791826" lon="10.0103904"><ele>490.1666666666667</ele><time>2026-05-02T13:03:27.813Z</time></trkpt><trkpt lat="45.7791912" lon="10.0104898"><ele>490.33333333333337</ele><time>2026-05-02T13:03:28.812Z</time></trkpt><trkpt lat="45.7791879" lon="10.0106065"><ele>490.5</ele><time>2026-05-02T13:03:29.814Z</time></trkpt><trkpt lat="45.7791841" lon="10.0107222"><ele>490.66666666666663</ele><time>2026-05-02T13:03:30.813Z</time></trkpt><trkpt lat="45.7791836" lon="10.010828"><ele>490.8333333333333</ele><time>2026-05-02T13:03:31.812Z</time></trkpt><trkpt lat="45.7791589" lon="10.0110096"><ele>491.0</ele><time>2026-05-02T13:03:33.812Z</time></trkpt><trkpt lat="45.7791839" lon="10.0111295"><ele>490.66666666666663</ele><time>2026-05-02T13:03:34.813Z</time></trkpt><trkpt lat="45.7792045" lon="10.0112413"><ele>490.3333333333333</ele><time>2026-05-02T13:03:35.813Z</time></trkpt><trkpt lat="45.7792406" lon="10.0113541"><ele>490.0</ele><time>2026-05-02T13:03:36.813Z</time></trkpt><trkpt lat="45.7792693" lon="10.0114624"><ele>489.66666666666663</ele><time>2026-05-02T13:03:37.812Z</time></trkpt><trkpt lat="45.7792937" lon="10.0115721"><ele>489.3333333333333</ele><time>2026-05-02T13:03:38.812Z</time></trkpt><trkpt lat="45.7793162" lon="10.0116919"><ele>489.0</ele><time>2026-05-02T13:03:39.812Z</time></trkpt><trkpt lat="45.7793315" lon="10.0118258"><ele>488.8333333333333</ele><time>2026-05-02T13:03:40.813Z</time></trkpt><trkpt lat="45.7793288" lon="10.0119505"><ele>488.66666666666663</ele><time>2026-05-02T13:03:41.811Z</time></trkpt><trkpt lat="45.7793393" lon="10.0120707"><ele>488.5</ele><time>2026-05-02T13:03:42.813Z</time></trkpt><trkpt lat="45.7793767" lon="10.0121941"><ele>488.3333333333333</ele><time>2026-05-02T13:03:43.811Z</time></trkpt><trkpt lat="45.7793821" lon="10.0123173"><ele>488.16666666666663</ele><time>2026-05-02T13:03:44.812Z</time></trkpt><trkpt lat="45.7794083" lon="10.0124127"><ele>488.0</ele><time>2026-05-02T13:03:45.814Z</time></trkpt><trkpt lat="45.779435" lon="10.012512"><ele>485.66666666666663</ele><time>2026-05-02T13:03:46.813Z</time></trkpt><trkpt lat="45.7794459" lon="10.0127067"><ele>483.3333333333333</ele><time>2026-05-02T13:03:48.813Z</time></trkpt><trkpt lat="45.7794554" lon="10.0128136"><ele>481.0</ele><time>2026-05-02T13:03:49.812Z</time></trkpt><trkpt lat="45.7794689" lon="10.0129124"><ele>478.66666666666663</ele><time>2026-05-02T13:03:50.813Z</time></trkpt><trkpt lat="45.7795175" lon="10.0129958"><ele>476.3333333333333</ele><time>2026-05-02T13:03:51.813Z</time></trkpt><trkpt lat="45.7795733" lon="10.0130854"><ele>474.0</ele><time>2026-05-02T13:03:52.812Z</time></trkpt><trkpt lat="45.7796355" lon="10.0132032"><ele>474.0</ele><time>2026-05-02T13:03:53.812Z</time></trkpt><trkpt lat="45.7796874" lon="10.0132979"><ele>474.0</ele><time>2026-05-02T13:03:54.813Z</time></trkpt><trkpt lat="45.7797185" lon="10.0134126"><ele>474.0</ele><time>2026-05-02T13:03:55.814Z</time></trkpt><trkpt lat="45.7797291" lon="10.0135357"><ele>474.0</ele><time>2026-05-02T13:03:56.812Z</time></trkpt><trkpt lat="45.7797365" lon="10.0136456"><ele>474.0</ele><time>2026-05-02T13:03:57.813Z</time></trkpt><trkpt lat="45.7797517" lon="10.0137684"><ele>474.0</ele><time>2026-05-02T13:03:58.812Z</time></trkpt><trkpt lat="45.7797746" lon="10.0138894"><ele>473.6</ele><time>2026-05-02T13:03:59.813Z</time></trkpt><trkpt lat="45.7797731" lon="10.0139987"><ele>473.2</ele><time>2026-05-02T13:04:00.812Z</time></trkpt><trkpt lat="45.7797601" lon="10.0141281"><ele>472.80000000000007</ele><time>2026-05-02T13:04:01.813Z</time></trkpt><trkpt lat="45.7797648" lon="10.0142858"><ele>472.40000000000003</ele><time>2026-05-02T13:04:02.813Z</time></trkpt><trkpt lat="45.7797454" lon="10.0144057"><ele>472.0</ele><time>2026-05-02T13:04:03.813Z</time></trkpt><trkpt lat="45.7797401" lon="10.0145457"><ele>471.0</ele><time>2026-05-02T13:04:04.812Z</time></trkpt><trkpt lat="45.7797219" lon="10.0146812"><ele>470.00000000000006</ele><time>2026-05-02T13:04:05.812Z</time></trkpt><trkpt lat="45.7797053" lon="10.0148131"><ele>469.00000000000006</ele><time>2026-05-02T13:04:06.813Z</time></trkpt><trkpt lat="45.7797091" lon="10.0149392"><ele>468.0</ele><time>2026-05-02T13:04:07.812Z</time></trkpt><trkpt lat="45.7797421" lon="10.0150934"><ele>467.0</ele><time>2026-05-02T13:04:08.812Z</time></trkpt><trkpt lat="45.7797499" lon="10.0152477"><ele>465.6</ele><time>2026-05-02T13:04:09.813Z</time></trkpt><trkpt lat="45.7797649" lon="10.0153872"><ele>464.20000000000005</ele><time>2026-05-02T13:04:10.812Z</time></trkpt><trkpt lat="45.7797543" lon="10.0155154"><ele>462.8</ele><time>2026-05-02T13:04:11.813Z</time></trkpt><trkpt lat="45.7797579" lon="10.0156498"><ele>461.4</ele><time>2026-05-02T13:04:12.812Z</time></trkpt><trkpt lat="45.7797655" lon="10.0157753"><ele>460.0</ele><time>2026-05-02T13:04:13.813Z</time></trkpt><trkpt lat="45.7797824" lon="10.0159021"><ele>459.1666666666667</ele><time>2026-05-02T13:04:14.813Z</time></trkpt><trkpt lat="45.7797921" lon="10.0160324"><ele>458.33333333333337</ele><time>2026-05-02T13:04:15.814Z</time></trkpt><trkpt lat="45.7798434" lon="10.0161445"><ele>457.5</ele><time>2026-05-02T13:04:16.813Z</time></trkpt><trkpt lat="45.7798846" lon="10.0162637"><ele>456.66666666666663</ele><time>2026-05-02T13:04:17.813Z</time></trkpt><trkpt lat="45.7799279" lon="10.0163613"><ele>455.8333333333333</ele><time>2026-05-02T13:04:18.813Z</time></trkpt><trkpt lat="45.7799572" lon="10.0164826"><ele>455.0</ele><time>2026-05-02T13:04:19.812Z</time></trkpt><trkpt lat="45.7799767" lon="10.0165884"><ele>453.99999999999994</ele><time>2026-05-02T13:04:20.811Z</time></trkpt><trkpt lat="45.7800113" lon="10.0166939"><ele>453.0</ele><time>2026-05-02T13:04:21.813Z</time></trkpt><trkpt lat="45.7800324" lon="10.016796"><ele>452.0</ele><time>2026-05-02T13:04:22.811Z</time></trkpt><trkpt lat="45.780038" lon="10.0168983"><ele>451.0</ele><time>2026-05-02T13:04:23.813Z</time></trkpt><trkpt lat="45.78005" lon="10.0169933"><ele>449.99999999999994</ele><time>2026-05-02T13:04:24.813Z</time></trkpt><trkpt lat="45.7800426" lon="10.0170887"><ele>449.0</ele><time>2026-05-02T13:04:25.812Z</time></trkpt><trkpt lat="45.7800341" lon="10.0172804"><ele>449.0</ele><time>2026-05-02T13:04:27.812Z</time></trkpt><trkpt lat="45.7800219" lon="10.0173896"><ele>448.99999999999994</ele><time>2026-05-02T13:04:28.813Z</time></trkpt><trkpt lat="45.780002" lon="10.017496"><ele>449.0</ele><time>2026-05-02T13:04:29.812Z</time></trkpt><trkpt lat="45.779977" lon="10.0175922"><ele>449.0</ele><time>2026-05-02T13:04:30.812Z</time></trkpt><trkpt lat="45.7799438" lon="10.0176798"><ele>448.99999999999994</ele><time>2026-05-02T13:04:31.812Z</time></trkpt><trkpt lat="45.7799308" lon="10.0177953"><ele>449.0</ele><time>2026-05-02T13:04:32.812Z</time></trkpt><trkpt lat="45.7799186" lon="10.0178918"><ele>449.0</ele><time>2026-05-02T13:04:33.813Z</time></trkpt><trkpt lat="45.7799153" lon="10.0180328"><ele>448.2</ele><time>2026-05-02T13:04:35.813Z</time></trkpt><trkpt lat="45.779927" lon="10.0182247"><ele>447.4</ele><time>2026-05-02T13:04:37.814Z</time></trkpt><trkpt lat="45.7799442" lon="10.0183327"><ele>446.6</ele><time>2026-05-02T13:04:38.813Z</time></trkpt><trkpt lat="45.7799651" lon="10.0184953"><ele>445.8</ele><time>2026-05-02T13:04:40.812Z</time></trkpt><trkpt lat="45.7800048" lon="10.0186185"><ele>445.0</ele><time>2026-05-02T13:04:42.811Z</time></trkpt><trkpt lat="45.7800181" lon="10.0187383"><ele>444.33333333333337</ele><time>2026-05-02T13:04:45.812Z</time></trkpt><trkpt lat="45.7799998" lon="10.0188553"><ele>443.6666666666667</ele><time>2026-05-02T13:04:48.812Z</time></trkpt><trkpt lat="45.7800031" lon="10.0189493"><ele>443.0</ele><time>2026-05-02T13:04:51.813Z</time></trkpt><trkpt lat="45.7800328" lon="10.0190359"><ele>442.33333333333337</ele><time>2026-05-02T13:09:14.814Z</time></trkpt><trkpt lat="45.7800796" lon="10.0191467"><ele>441.6666666666667</ele><time>2026-05-02T13:09:16.813Z</time></trkpt><trkpt lat="45.7801416" lon="10.0192272"><ele>441.0</ele><time>2026-05-02T13:09:17.812Z</time></trkpt><trkpt lat="45.7802116" lon="10.0193045"><ele>439.25</ele><time>2026-05-02T13:09:18.813Z</time></trkpt><trkpt lat="45.7803025" lon="10.0194025"><ele>437.5</ele><time>2026-05-02T13:09:19.813Z</time></trkpt><trkpt lat="45.7803943" lon="10.0194993"><ele>435.75</ele><time>2026-05-02T13:09:20.813Z</time></trkpt><trkpt lat="45.780481" lon="10.0196002"><ele>434.0</ele><time>2026-05-02T13:09:21.813Z</time></trkpt><trkpt lat="45.7805739" lon="10.0197032"><ele>434.0</ele><time>2026-05-02T13:09:22.814Z</time></trkpt><trkpt lat="45.7806677" lon="10.0198024"><ele>434.0</ele><time>2026-05-02T13:09:23.813Z</time></trkpt><trkpt lat="45.7807589" lon="10.0198959"><ele>434.0</ele><time>2026-05-02T13:09:24.813Z</time></trkpt><trkpt lat="45.7808489" lon="10.0199843"><ele>434.0</ele><time>2026-05-02T13:09:25.812Z</time></trkpt><trkpt lat="45.780936" lon="10.0200746"><ele>434.0</ele><time>2026-05-02T13:09:26.812Z</time></trkpt><trkpt lat="45.7810225" lon="10.0201621"><ele>435.2</ele><time>2026-05-02T13:09:27.812Z</time></trkpt><trkpt lat="45.781109" lon="10.0202484"><ele>436.4</ele><time>2026-05-02T13:09:28.813Z</time></trkpt><trkpt lat="45.7811802" lon="10.020335"><ele>437.6</ele><time>2026-05-02T13:09:29.813Z</time></trkpt><trkpt lat="45.7812465" lon="10.0204226"><ele>438.8</ele><time>2026-05-02T13:09:30.814Z</time></trkpt><trkpt lat="45.7812978" lon="10.0204961"><ele>440.0</ele><time>2026-05-02T13:09:31.814Z</time></trkpt><trkpt lat="45.7813761" lon="10.0206206"><ele>440.0</ele><time>2026-05-02T13:09:33.814Z</time></trkpt><trkpt lat="45.7814099" lon="10.0207368"><ele>440.0</ele><time>2026-05-02T13:09:35.812Z</time></trkpt><trkpt lat="45.7814261" lon="10.0208379"><ele>440.0</ele><time>2026-05-02T13:09:37.812Z</time></trkpt><trkpt lat="45.7814485" lon="10.0209777"><ele>440.0</ele><time>2026-05-02T13:09:39.812Z</time></trkpt><trkpt lat="45.7814613" lon="10.0211842"><ele>440.0</ele><time>2026-05-02T13:09:41.813Z</time></trkpt><trkpt lat="45.7814613" lon="10.0212981"><ele>441.0</ele><time>2026-05-02T13:09:42.812Z</time></trkpt><trkpt lat="45.7814691" lon="10.0214329"><ele>442.0</ele><time>2026-05-02T13:09:43.813Z</time></trkpt><trkpt lat="45.7814856" lon="10.0215701"><ele>443.0</ele><time>2026-05-02T13:09:44.812Z</time></trkpt><trkpt lat="45.7814994" lon="10.0217042"><ele>444.0</ele><time>2026-05-02T13:09:45.813Z</time></trkpt><trkpt lat="45.7815258" lon="10.0218331"><ele>445.0</ele><time>2026-05-02T13:09:46.813Z</time></trkpt><trkpt lat="45.7815539" lon="10.021956"><ele>445.50000000000006</ele><time>2026-05-02T13:09:47.812Z</time></trkpt><trkpt lat="45.7815962" lon="10.0220722"><ele>446.0</ele><time>2026-05-02T13:09:48.813Z</time></trkpt><trkpt lat="45.7816357" lon="10.022178"><ele>446.5</ele><time>2026-05-02T13:09:49.811Z</time></trkpt><trkpt lat="45.7816936" lon="10.0222693"><ele>447.0</ele><time>2026-05-02T13:09:50.812Z</time></trkpt><trkpt lat="45.7817629" lon="10.0223155"><ele>447.50000000000006</ele><time>2026-05-02T13:09:51.813Z</time></trkpt><trkpt lat="45.7818575" lon="10.0222956"><ele>448.0</ele><time>2026-05-02T13:09:52.812Z</time></trkpt><trkpt lat="45.7819499" lon="10.0222806"><ele>450.4</ele><time>2026-05-02T13:09:53.813Z</time></trkpt><trkpt lat="45.7820737" lon="10.022244"><ele>452.79999999999995</ele><time>2026-05-02T13:09:54.813Z</time></trkpt><trkpt lat="45.7821765" lon="10.0222134"><ele>455.2</ele><time>2026-05-02T13:09:55.814Z</time></trkpt><trkpt lat="45.7822743" lon="10.0221864"><ele>457.6</ele><time>2026-05-02T13:09:56.811Z</time></trkpt><trkpt lat="45.7823659" lon="10.0221544"><ele>460.0</ele><time>2026-05-02T13:09:57.814Z</time></trkpt><trkpt lat="45.7824404" lon="10.0220853"><ele>460.0</ele><time>2026-05-02T13:09:58.814Z</time></trkpt><trkpt lat="45.7824804" lon="10.0219859"><ele>460.0</ele><time>2026-05-02T13:09:59.813Z</time></trkpt><trkpt lat="45.7825063" lon="10.0218469"><ele>460.0</ele><time>2026-05-02T13:10:00.812Z</time></trkpt><trkpt lat="45.7825256" lon="10.021697"><ele>460.0</ele><time>2026-05-02T13:10:01.812Z</time></trkpt><trkpt lat="45.7825499" lon="10.0215205"><ele>460.0</ele><time>2026-05-02T13:10:02.813Z</time></trkpt><trkpt lat="45.7825786" lon="10.0213469"><ele>459.25</ele><time>2026-05-02T13:10:03.812Z</time></trkpt><trkpt lat="45.782617" lon="10.021176"><ele>458.5</ele><time>2026-05-02T13:10:04.813Z</time></trkpt><trkpt lat="45.782678" lon="10.0210131"><ele>457.75</ele><time>2026-05-02T13:10:05.813Z</time></trkpt><trkpt lat="45.7827824" lon="10.0208844"><ele>457.0</ele><time>2026-05-02T13:10:06.813Z</time></trkpt><trkpt lat="45.7829093" lon="10.0207415"><ele>462.75</ele><time>2026-05-02T13:10:07.812Z</time></trkpt><trkpt lat="45.7830237" lon="10.0205858"><ele>468.5</ele><time>2026-05-02T13:10:08.814Z</time></trkpt><trkpt lat="45.7831047" lon="10.0204268"><ele>474.25</ele><time>2026-05-02T13:10:09.811Z</time></trkpt><trkpt lat="45.7831475" lon="10.0202587"><ele>480.0</ele><time>2026-05-02T13:10:10.811Z</time></trkpt><trkpt lat="45.7831665" lon="10.0200942"><ele>480.0</ele><time>2026-05-02T13:10:11.814Z</time></trkpt><trkpt lat="45.7831717" lon="10.0199461"><ele>480.0</ele><time>2026-05-02T13:10:12.814Z</time></trkpt><trkpt lat="45.7831685" lon="10.0198362"><ele>480.0</ele><time>2026-05-02T13:10:13.814Z</time></trkpt><trkpt lat="45.7831951" lon="10.0197347"><ele>480.0</ele><time>2026-05-02T13:10:14.812Z</time></trkpt><trkpt lat="45.7832719" lon="10.0197812"><ele>480.0</ele><time>2026-05-02T13:10:16.813Z</time></trkpt><trkpt lat="45.7832763" lon="10.0198834"><ele>480.0</ele><time>2026-05-02T13:10:17.812Z</time></trkpt><trkpt lat="45.7832791" lon="10.0199854"><ele>480.0</ele><time>2026-05-02T13:10:18.813Z</time></trkpt><trkpt lat="45.7832832" lon="10.0200965"><ele>480.0</ele><time>2026-05-02T13:10:19.813Z</time></trkpt><trkpt lat="45.7833282" lon="10.0202268"><ele>480.0</ele><time>2026-05-02T13:10:21.813Z</time></trkpt><trkpt lat="45.7833463" lon="10.0200718"><ele>480.0</ele><time>2026-05-02T13:10:24.813Z</time></trkpt><trkpt lat="45.7833424" lon="10.0199668"><ele>480.0</ele><time>2026-05-02T13:10:25.813Z</time></trkpt><trkpt lat="45.7833384" lon="10.0198496"><ele>480.0</ele><time>2026-05-02T13:10:26.813Z</time></trkpt><trkpt lat="45.7833292" lon="10.0197386"><ele>479.4</ele><time>2026-05-02T13:10:27.813Z</time></trkpt><trkpt lat="45.783322" lon="10.0196381"><ele>478.8</ele><time>2026-05-02T13:10:28.813Z</time></trkpt><trkpt lat="45.7833425" lon="10.0194832"><ele>478.20000000000005</ele><time>2026-05-02T13:10:30.813Z</time></trkpt><trkpt lat="45.783432" lon="10.019342"><ele>477.6</ele><time>2026-05-02T13:10:32.813Z</time></trkpt><trkpt lat="45.7835108" lon="10.0192556"><ele>477.0</ele><time>2026-05-02T13:10:33.812Z</time></trkpt><trkpt lat="45.7835786" lon="10.0191798"><ele>477.0</ele><time>2026-05-02T13:10:34.814Z</time></trkpt><trkpt lat="45.7836398" lon="10.0191008"><ele>477.00000000000006</ele><time>2026-05-02T13:10:35.811Z</time></trkpt><trkpt lat="45.7836976" lon="10.01897"><ele>477.00000000000006</ele><time>2026-05-02T13:10:36.812Z</time></trkpt><trkpt lat="45.7837535" lon="10.0188615"><ele>477.0</ele><time>2026-05-02T13:10:37.814Z</time></trkpt><trkpt lat="45.7838469" lon="10.0187759"><ele>477.0</ele><time>2026-05-02T13:10:39.812Z</time></trkpt><trkpt lat="45.783983" lon="10.0188195"><ele>477.0</ele><time>2026-05-02T13:10:41.813Z</time></trkpt><trkpt lat="45.7840775" lon="10.0188651"><ele>477.00000000000006</ele><time>2026-05-02T13:10:42.811Z</time></trkpt><trkpt lat="45.7841828" lon="10.0189342"><ele>477.00000000000006</ele><time>2026-05-02T13:10:43.814Z</time></trkpt><trkpt lat="45.7842864" lon="10.0189886"><ele>477.0</ele><time>2026-05-02T13:10:44.812Z</time></trkpt><trkpt lat="45.784381" lon="10.0190283"><ele>477.0</ele><time>2026-05-02T13:10:45.812Z</time></trkpt><trkpt lat="45.7844498" lon="10.0190426"><ele>479.1666666666667</ele><time>2026-05-02T13:10:46.812Z</time></trkpt><trkpt lat="45.7845584" lon="10.0191218"><ele>481.33333333333337</ele><time>2026-05-02T13:10:48.812Z</time></trkpt><trkpt lat="45.7846195" lon="10.0191945"><ele>483.5</ele><time>2026-05-02T13:10:50.813Z</time></trkpt><trkpt lat="45.7846502" lon="10.0193015"><ele>485.6666666666667</ele><time>2026-05-02T13:10:52.813Z</time></trkpt><trkpt lat="45.7847062" lon="10.0193722"><ele>487.83333333333337</ele><time>2026-05-02T13:10:55.812Z</time></trkpt><trkpt lat="45.7847661" lon="10.0193113"><ele>490.0</ele><time>2026-05-02T13:10:57.812Z</time></trkpt><trkpt lat="45.7847965" lon="10.0192104"><ele>490.0</ele><time>2026-05-02T13:10:58.812Z</time></trkpt><trkpt lat="45.7848108" lon="10.019068"><ele>490.0</ele><time>2026-05-02T13:10:59.812Z</time></trkpt><trkpt lat="45.7848408" lon="10.0189372"><ele>490.0</ele><time>2026-05-02T13:11:00.812Z</time></trkpt><trkpt lat="45.7848547" lon="10.0188083"><ele>490.0</ele><time>2026-05-02T13:11:01.813Z</time></trkpt><trkpt lat="45.7848601" lon="10.0186715"><ele>490.0</ele><time>2026-05-02T13:11:02.813Z</time></trkpt><trkpt lat="45.7848563" lon="10.0185371"><ele>490.00000000000006</ele><time>2026-05-02T13:11:03.813Z</time></trkpt><trkpt lat="45.7848429" lon="10.0184146"><ele>490.0</ele><time>2026-05-02T13:11:04.811Z</time></trkpt><trkpt lat="45.7848376" lon="10.0182799"><ele>490.0</ele><time>2026-05-02T13:11:05.812Z</time></trkpt><trkpt lat="45.7848334" lon="10.0181475"><ele>490.0</ele><time>2026-05-02T13:11:06.813Z</time></trkpt><trkpt lat="45.7848443" lon="10.0180471"><ele>490.00000000000006</ele><time>2026-05-02T13:11:07.812Z</time></trkpt><trkpt lat="45.7848555" lon="10.0179475"><ele>490.0</ele><time>2026-05-02T13:11:08.812Z</time></trkpt><trkpt lat="45.7848682" lon="10.0178331"><ele>488.50000000000006</ele><time>2026-05-02T13:11:09.814Z</time></trkpt><trkpt lat="45.7848882" lon="10.0177221"><ele>487.0</ele><time>2026-05-02T13:11:10.813Z</time></trkpt><trkpt lat="45.7849097" lon="10.0176135"><ele>485.5</ele><time>2026-05-02T13:11:11.812Z</time></trkpt><trkpt lat="45.7849423" lon="10.0175163"><ele>484.0</ele><time>2026-05-02T13:11:12.813Z</time></trkpt><trkpt lat="45.7849863" lon="10.0174287"><ele>482.50000000000006</ele><time>2026-05-02T13:11:13.813Z</time></trkpt><trkpt lat="45.785039" lon="10.0173335"><ele>481.0</ele><time>2026-05-02T13:11:14.812Z</time></trkpt><trkpt lat="45.7850943" lon="10.0172636"><ele>481.6666666666667</ele><time>2026-05-02T13:11:15.811Z</time></trkpt><trkpt lat="45.7851625" lon="10.0172264"><ele>482.33333333333337</ele><time>2026-05-02T13:11:16.813Z</time></trkpt><trkpt lat="45.7852408" lon="10.0172028"><ele>483.0</ele><time>2026-05-02T13:11:17.814Z</time></trkpt><trkpt lat="45.7853232" lon="10.0171951"><ele>483.66666666666663</ele><time>2026-05-02T13:11:18.813Z</time></trkpt><trkpt lat="45.7854037" lon="10.0172114"><ele>484.3333333333333</ele><time>2026-05-02T13:11:19.813Z</time></trkpt><trkpt lat="45.7854958" lon="10.0172932"><ele>485.0</ele><time>2026-05-02T13:11:21.812Z</time></trkpt><trkpt lat="45.7855882" lon="10.0173014"><ele>485.0</ele><time>2026-05-02T13:11:23.814Z</time></trkpt><trkpt lat="45.7856958" lon="10.0173017"><ele>485.0</ele><time>2026-05-02T13:11:25.813Z</time></trkpt><trkpt lat="45.7858164" lon="10.0173176"><ele>485.0</ele><time>2026-05-02T13:11:26.813Z</time></trkpt><trkpt lat="45.7858873" lon="10.0173078"><ele>485.0</ele><time>2026-05-02T13:11:27.812Z</time></trkpt><trkpt lat="45.7859723" lon="10.0172353"><ele>485.0</ele><time>2026-05-02T13:11:28.813Z</time></trkpt><trkpt lat="45.7860318" lon="10.0171612"><ele>488.66666666666663</ele><time>2026-05-02T13:11:29.812Z</time></trkpt><trkpt lat="45.7860834" lon="10.0170878"><ele>492.3333333333333</ele><time>2026-05-02T13:11:30.812Z</time></trkpt><trkpt lat="45.7861136" lon="10.01695"><ele>496.0</ele><time>2026-05-02T13:11:31.813Z</time></trkpt><trkpt lat="45.7861631" lon="10.0168121"><ele>499.66666666666663</ele><time>2026-05-02T13:11:33.813Z</time></trkpt><trkpt lat="45.7862109" lon="10.0168844"><ele>503.3333333333333</ele><time>2026-05-02T13:11:38.813Z</time></trkpt><trkpt lat="45.7862535" lon="10.0169662"><ele>507.0</ele><time>2026-05-02T13:11:40.812Z</time></trkpt><trkpt lat="45.7863719" lon="10.0169824"><ele>507.0</ele><time>2026-05-02T13:11:42.813Z</time></trkpt><trkpt lat="45.7864988" lon="10.0169756"><ele>507.00000000000006</ele><time>2026-05-02T13:11:44.813Z</time></trkpt><trkpt lat="45.7866176" lon="10.0168869"><ele>507.00000000000006</ele><time>2026-05-02T13:11:46.812Z</time></trkpt><trkpt lat="45.7866862" lon="10.0168285"><ele>507.0</ele><time>2026-05-02T13:11:47.814Z</time></trkpt><trkpt lat="45.7867787" lon="10.0168032"><ele>507.0</ele><time>2026-05-02T13:11:48.813Z</time></trkpt><trkpt lat="45.7868656" lon="10.0167888"><ele>509.1666666666667</ele><time>2026-05-02T13:11:49.813Z</time></trkpt><trkpt lat="45.7869447" lon="10.016784"><ele>511.33333333333337</ele><time>2026-05-02T13:11:50.811Z</time></trkpt><trkpt lat="45.7870763" lon="10.0168336"><ele>513.5</ele><time>2026-05-02T13:11:52.813Z</time></trkpt><trkpt lat="45.7871392" lon="10.0168806"><ele>515.6666666666667</ele><time>2026-05-02T13:11:53.813Z</time></trkpt><trkpt lat="45.7871968" lon="10.0169401"><ele>517.8333333333334</ele><time>2026-05-02T13:11:54.812Z</time></trkpt><trkpt lat="45.787254" lon="10.0170188"><ele>520.0</ele><time>2026-05-02T13:11:55.813Z</time></trkpt><trkpt lat="45.7873025" lon="10.0171039"><ele>520.0</ele><time>2026-05-02T13:11:56.812Z</time></trkpt><trkpt lat="45.7873511" lon="10.0171858"><ele>520.0</ele><time>2026-05-02T13:11:57.813Z</time></trkpt><trkpt lat="45.7874554" lon="10.01726"><ele>520.0</ele><time>2026-05-02T13:11:59.813Z</time></trkpt><trkpt lat="45.7874904" lon="10.0173781"><ele>520.0</ele><time>2026-05-02T13:12:01.813Z</time></trkpt><trkpt lat="45.7875066" lon="10.017476"><ele>520.0</ele><time>2026-05-02T13:12:02.811Z</time></trkpt><trkpt lat="45.7875026" lon="10.0175784"><ele>520.0</ele><time>2026-05-02T13:12:03.813Z</time></trkpt><trkpt lat="45.7875225" lon="10.0176681"><ele>522.0</ele><time>2026-05-02T13:12:04.813Z</time></trkpt><trkpt lat="45.7875296" lon="10.0177896"><ele>524.0</ele><time>2026-05-02T13:12:05.813Z</time></trkpt><trkpt lat="45.7875759" lon="10.01795"><ele>526.0</ele><time>2026-05-02T13:12:06.814Z</time></trkpt><trkpt lat="45.7876201" lon="10.0180723"><ele>528.0</ele><time>2026-05-02T13:12:07.813Z</time></trkpt><trkpt lat="45.7876735" lon="10.0181834"><ele>530.0</ele><time>2026-05-02T13:12:08.812Z</time></trkpt><trkpt lat="45.7877223" lon="10.0182908"><ele>533.0</ele><time>2026-05-02T13:12:09.812Z</time></trkpt><trkpt lat="45.7877877" lon="10.0184382"><ele>536.0</ele><time>2026-05-02T13:12:10.814Z</time></trkpt><trkpt lat="45.7878897" lon="10.0186188"><ele>539.0</ele><time>2026-05-02T13:12:11.812Z</time></trkpt><trkpt lat="45.7879722" lon="10.0187947"><ele>542.0</ele><time>2026-05-02T13:12:12.813Z</time></trkpt><trkpt lat="45.7880475" lon="10.0189322"><ele>542.0</ele><time>2026-05-02T13:12:13.812Z</time></trkpt><trkpt lat="45.788153" lon="10.0190634"><ele>542.0</ele><time>2026-05-02T13:12:14.814Z</time></trkpt><trkpt lat="45.7882542" lon="10.0191882"><ele>542.0</ele><time>2026-05-02T13:12:15.812Z</time></trkpt><trkpt lat="45.7883599" lon="10.0192926"><ele>542.0</ele><time>2026-05-02T13:12:16.813Z</time></trkpt><trkpt lat="45.788443" lon="10.0193943"><ele>543.6</ele><time>2026-05-02T13:12:17.812Z</time></trkpt><trkpt lat="45.7884815" lon="10.0195089"><ele>545.2</ele><time>2026-05-02T13:12:18.813Z</time></trkpt><trkpt lat="45.7885301" lon="10.0196391"><ele>546.8</ele><time>2026-05-02T13:12:19.812Z</time></trkpt><trkpt lat="45.7885781" lon="10.0197781"><ele>548.4</ele><time>2026-05-02T13:12:20.813Z</time></trkpt><trkpt lat="45.7886312" lon="10.0199531"><ele>550.0</ele><time>2026-05-02T13:12:21.813Z</time></trkpt><trkpt lat="45.7886912" lon="10.0201133"><ele>553.75</ele><time>2026-05-02T13:12:22.812Z</time></trkpt><trkpt lat="45.7887495" lon="10.0202748"><ele>557.5</ele><time>2026-05-02T13:12:23.814Z</time></trkpt><trkpt lat="45.7888249" lon="10.0204367"><ele>561.25</ele><time>2026-05-02T13:12:24.813Z</time></trkpt><trkpt lat="45.7889082" lon="10.0206022"><ele>565.0</ele><time>2026-05-02T13:12:25.813Z</time></trkpt><trkpt lat="45.7890058" lon="10.0207647"><ele>566.25</ele><time>2026-05-02T13:12:26.812Z</time></trkpt><trkpt lat="45.7890974" lon="10.0209378"><ele>567.5</ele><time>2026-05-02T13:12:27.814Z</time></trkpt><trkpt lat="45.7892124" lon="10.0211138"><ele>568.75</ele><time>2026-05-02T13:12:28.814Z</time></trkpt><trkpt lat="45.7892875" lon="10.0212574"><ele>570.0</ele><time>2026-05-02T13:12:29.812Z</time></trkpt><trkpt lat="45.7893901" lon="10.021382"><ele>572.0</ele><time>2026-05-02T13:12:30.813Z</time></trkpt><trkpt lat="45.7894793" lon="10.0214705"><ele>574.0</ele><time>2026-05-02T13:12:31.812Z</time></trkpt><trkpt lat="45.7895524" lon="10.0215638"><ele>576.0</ele><time>2026-05-02T13:12:32.812Z</time></trkpt><trkpt lat="45.7896254" lon="10.0216746"><ele>578.0</ele><time>2026-05-02T13:12:33.813Z</time></trkpt><trkpt lat="45.7896875" lon="10.0218081"><ele>580.0</ele><time>2026-05-02T13:12:34.813Z</time></trkpt><trkpt lat="45.7897438" lon="10.0219197"><ele>580.0</ele><time>2026-05-02T13:12:35.812Z</time></trkpt><trkpt lat="45.7898025" lon="10.0220211"><ele>580.0</ele><time>2026-05-02T13:12:36.813Z</time></trkpt><trkpt lat="45.7898672" lon="10.0221779"><ele>580.0</ele><time>2026-05-02T13:12:38.813Z</time></trkpt><trkpt lat="45.7898892" lon="10.0222678"><ele>580.0</ele><time>2026-05-02T13:12:39.813Z</time></trkpt><trkpt lat="45.7899475" lon="10.0224014"><ele>580.0</ele><time>2026-05-02T13:12:41.812Z</time></trkpt><trkpt lat="45.7899689" lon="10.022523"><ele>580.0</ele><time>2026-05-02T13:12:43.812Z</time></trkpt><trkpt lat="45.7899535" lon="10.0226327"><ele>580.0</ele><time>2026-05-02T13:12:46.812Z</time></trkpt><trkpt lat="45.7899611" lon="10.0227304"><ele>580.0</ele><time>2026-05-02T13:12:50.813Z</time></trkpt><trkpt lat="45.7899486" lon="10.0228304"><ele>580.0</ele><time>2026-05-02T13:12:51.812Z</time></trkpt><trkpt lat="45.7899202" lon="10.0229193"><ele>580.0</ele><time>2026-05-02T13:12:52.813Z</time></trkpt><trkpt lat="45.7899036" lon="10.0230345"><ele>580.0</ele><time>2026-05-02T13:12:53.813Z</time></trkpt><trkpt lat="45.7898882" lon="10.0231419"><ele>580.0</ele><time>2026-05-02T13:12:54.811Z</time></trkpt><trkpt lat="45.7898695" lon="10.023265"><ele>579.8333333333334</ele><time>2026-05-02T13:12:55.813Z</time></trkpt><trkpt lat="45.7898517" lon="10.0233776"><ele>579.6666666666667</ele><time>2026-05-02T13:12:56.814Z</time></trkpt><trkpt lat="45.7898348" lon="10.0234967"><ele>579.5</ele><time>2026-05-02T13:12:57.812Z</time></trkpt><trkpt lat="45.7898212" lon="10.0236161"><ele>579.3333333333334</ele><time>2026-05-02T13:12:58.812Z</time></trkpt><trkpt lat="45.7898198" lon="10.0237397"><ele>579.1666666666666</ele><time>2026-05-02T13:12:59.813Z</time></trkpt><trkpt lat="45.7898195" lon="10.0238617"><ele>579.0</ele><time>2026-05-02T13:13:00.812Z</time></trkpt><trkpt lat="45.7898295" lon="10.0239916"><ele>579.0</ele><time>2026-05-02T13:13:01.811Z</time></trkpt><trkpt lat="45.7897955" lon="10.0240992"><ele>579.0</ele><time>2026-05-02T13:13:02.813Z</time></trkpt><trkpt lat="45.789777" lon="10.0242104"><ele>579.0</ele><time>2026-05-02T13:13:03.813Z</time></trkpt><trkpt lat="45.7897618" lon="10.0243313"><ele>579.0</ele><time>2026-05-02T13:13:04.814Z</time></trkpt><trkpt lat="45.7897564" lon="10.02446"><ele>579.0</ele><time>2026-05-02T13:13:05.812Z</time></trkpt><trkpt lat="45.7897454" lon="10.0245859"><ele>579.0</ele><time>2026-05-02T13:13:06.814Z</time></trkpt><trkpt lat="45.7897197" lon="10.0247097"><ele>578.9999999999999</ele><time>2026-05-02T13:13:07.813Z</time></trkpt><trkpt lat="45.789694" lon="10.0247952"><ele>579.0</ele><time>2026-05-02T13:13:08.812Z</time></trkpt><trkpt lat="45.7896711" lon="10.0248848"><ele>579.0</ele><time>2026-05-02T13:13:09.813Z</time></trkpt><trkpt lat="45.7896944" lon="10.0249963"><ele>579.0</ele><time>2026-05-02T13:13:10.814Z</time></trkpt><trkpt lat="45.789734" lon="10.0250946"><ele>579.0</ele><time>2026-05-02T13:13:11.814Z</time></trkpt><trkpt lat="45.7897823" lon="10.0251951"><ele>578.9999999999999</ele><time>2026-05-02T13:13:12.814Z</time></trkpt><trkpt lat="45.7898176" lon="10.0252858"><ele>579.0</ele><time>2026-05-02T13:13:13.812Z</time></trkpt><trkpt lat="45.7897781" lon="10.0254434"><ele>579.2</ele><time>2026-05-02T13:13:15.812Z</time></trkpt><trkpt lat="45.7897172" lon="10.0255812"><ele>579.4</ele><time>2026-05-02T13:13:17.813Z</time></trkpt><trkpt lat="45.7896808" lon="10.025731"><ele>579.6</ele><time>2026-05-02T13:13:19.813Z</time></trkpt><trkpt lat="45.7896285" lon="10.025853"><ele>579.8</ele><time>2026-05-02T13:13:21.812Z</time></trkpt><trkpt lat="45.789608" lon="10.0259511"><ele>580.0</ele><time>2026-05-02T13:13:26.812Z</time></trkpt><trkpt lat="45.7896973" lon="10.0260678"><ele>580.3333333333334</ele><time>2026-05-02T13:13:36.813Z</time></trkpt><trkpt lat="45.7897427" lon="10.026133"><ele>580.6666666666667</ele><time>2026-05-02T13:13:37.812Z</time></trkpt><trkpt lat="45.7897938" lon="10.026201"><ele>581.0</ele><time>2026-05-02T13:13:38.813Z</time></trkpt><trkpt lat="45.7898389" lon="10.026276"><ele>581.3333333333334</ele><time>2026-05-02T13:13:39.813Z</time></trkpt><trkpt lat="45.7899292" lon="10.0264192"><ele>581.6666666666666</ele><time>2026-05-02T13:13:41.812Z</time></trkpt><trkpt lat="45.7899617" lon="10.0265286"><ele>582.0</ele><time>2026-05-02T13:13:42.813Z</time></trkpt><trkpt lat="45.7899836" lon="10.0266474"><ele>582.0</ele><time>2026-05-02T13:13:43.813Z</time></trkpt><trkpt lat="45.7900082" lon="10.0267458"><ele>582.0</ele><time>2026-05-02T13:13:44.812Z</time></trkpt><trkpt lat="45.790038" lon="10.0268714"><ele>582.0</ele><time>2026-05-02T13:13:45.812Z</time></trkpt><trkpt lat="45.7900585" lon="10.0269984"><ele>582.0</ele><time>2026-05-02T13:13:46.813Z</time></trkpt><trkpt lat="45.7900711" lon="10.0271216"><ele>582.0</ele><time>2026-05-02T13:13:47.814Z</time></trkpt><trkpt lat="45.7900856" lon="10.0272459"><ele>582.0</ele><time>2026-05-02T13:13:48.812Z</time></trkpt><trkpt lat="45.7900888" lon="10.0273611"><ele>582.3333333333334</ele><time>2026-05-02T13:13:49.814Z</time></trkpt><trkpt lat="45.7900943" lon="10.0274772"><ele>582.6666666666666</ele><time>2026-05-02T13:13:50.814Z</time></trkpt><trkpt lat="45.7901146" lon="10.0275939"><ele>583.0</ele><time>2026-05-02T13:13:51.813Z</time></trkpt><trkpt lat="45.7901264" lon="10.0277062"><ele>583.3333333333333</ele><time>2026-05-02T13:13:52.813Z</time></trkpt><trkpt lat="45.790131" lon="10.0278212"><ele>583.6666666666666</ele><time>2026-05-02T13:13:53.812Z</time></trkpt><trkpt lat="45.7901486" lon="10.0279448"><ele>584.0</ele><time>2026-05-02T13:13:54.813Z</time></trkpt><trkpt lat="45.7901717" lon="10.0280597"><ele>586.2</ele><time>2026-05-02T13:13:55.812Z</time></trkpt><trkpt lat="45.7902054" lon="10.0281745"><ele>588.4</ele><time>2026-05-02T13:13:56.813Z</time></trkpt><trkpt lat="45.7902517" lon="10.0282801"><ele>590.6</ele><time>2026-05-02T13:13:57.814Z</time></trkpt><trkpt lat="45.7903184" lon="10.0283675"><ele>592.8</ele><time>2026-05-02T13:13:58.812Z</time></trkpt><trkpt lat="45.7904001" lon="10.0284449"><ele>595.0</ele><time>2026-05-02T13:13:59.812Z</time></trkpt><trkpt lat="45.7904868" lon="10.0284979"><ele>595.0</ele><time>2026-05-02T13:14:00.814Z</time></trkpt><trkpt lat="45.7905815" lon="10.0285386"><ele>595.0</ele><time>2026-05-02T13:14:01.814Z</time></trkpt><trkpt lat="45.7906704" lon="10.0286093"><ele>595.0</ele><time>2026-05-02T13:14:02.812Z</time></trkpt><trkpt lat="45.7907399" lon="10.0287106"><ele>595.0</ele><time>2026-05-02T13:14:03.812Z</time></trkpt><trkpt lat="45.7908059" lon="10.0288044"><ele>595.0</ele><time>2026-05-02T13:14:04.813Z</time></trkpt><trkpt lat="45.7908677" lon="10.0289087"><ele>595.0</ele><time>2026-05-02T13:14:05.812Z</time></trkpt><trkpt lat="45.7909223" lon="10.0290043"><ele>595.0</ele><time>2026-05-02T13:14:06.813Z</time></trkpt><trkpt lat="45.7909726" lon="10.029093"><ele>595.0</ele><time>2026-05-02T13:14:07.813Z</time></trkpt><trkpt lat="45.7910305" lon="10.029161"><ele>595.0</ele><time>2026-05-02T13:14:08.813Z</time></trkpt><trkpt lat="45.7910928" lon="10.0291964"><ele>595.0</ele><time>2026-05-02T13:14:09.813Z</time></trkpt><trkpt lat="45.7911715" lon="10.029204"><ele>595.0</ele><time>2026-05-02T13:14:10.813Z</time></trkpt><trkpt lat="45.7912593" lon="10.0292612"><ele>596.5</ele><time>2026-05-02T13:14:11.812Z</time></trkpt><trkpt lat="45.7913344" lon="10.0293073"><ele>598.0</ele><time>2026-05-02T13:14:12.814Z</time></trkpt><trkpt lat="45.7914052" lon="10.0294202"><ele>599.5</ele><time>2026-05-02T13:14:13.812Z</time></trkpt><trkpt lat="45.7914764" lon="10.0294794"><ele>601.0</ele><time>2026-05-02T13:14:14.811Z</time></trkpt><trkpt lat="45.7915432" lon="10.0295315"><ele>602.5</ele><time>2026-05-02T13:14:15.813Z</time></trkpt><trkpt lat="45.7916163" lon="10.0295709"><ele>604.0</ele><time>2026-05-02T13:14:16.814Z</time></trkpt><trkpt lat="45.7916978" lon="10.0296004"><ele>604.0</ele><time>2026-05-02T13:14:17.813Z</time></trkpt><trkpt lat="45.7917919" lon="10.0296128"><ele>604.0</ele><time>2026-05-02T13:14:18.811Z</time></trkpt><trkpt lat="45.7918866" lon="10.0296115"><ele>604.0</ele><time>2026-05-02T13:14:19.812Z</time></trkpt><trkpt lat="45.7919879" lon="10.0295635"><ele>604.0</ele><time>2026-05-02T13:14:20.813Z</time></trkpt><trkpt lat="45.7920964" lon="10.0295244"><ele>604.0</ele><time>2026-05-02T13:14:21.811Z</time></trkpt><trkpt lat="45.7921993" lon="10.0294698"><ele>604.6</ele><time>2026-05-02T13:14:22.813Z</time></trkpt><trkpt lat="45.7922912" lon="10.0294134"><ele>605.2</ele><time>2026-05-02T13:14:23.814Z</time></trkpt><trkpt lat="45.7923789" lon="10.0293587"><ele>605.8000000000001</ele><time>2026-05-02T13:14:24.812Z</time></trkpt><trkpt lat="45.7924829" lon="10.0292878"><ele>606.4</ele><time>2026-05-02T13:14:25.813Z</time></trkpt><trkpt lat="45.7925672" lon="10.0292112"><ele>607.0</ele><time>2026-05-02T13:14:26.812Z</time></trkpt><trkpt lat="45.7926519" lon="10.0291257"><ele>609.4</ele><time>2026-05-02T13:14:27.814Z</time></trkpt><trkpt lat="45.7927139" lon="10.0290411"><ele>611.8000000000001</ele><time>2026-05-02T13:14:28.812Z</time></trkpt><trkpt lat="45.7927606" lon="10.0289392"><ele>614.2</ele><time>2026-05-02T13:14:29.811Z</time></trkpt><trkpt lat="45.792809" lon="10.0287995"><ele>616.6</ele><time>2026-05-02T13:14:30.811Z</time></trkpt><trkpt lat="45.7928515" lon="10.0286765"><ele>619.0</ele><time>2026-05-02T13:14:31.812Z</time></trkpt><trkpt lat="45.7929344" lon="10.0285325"><ele>619.0</ele><time>2026-05-02T13:14:32.811Z</time></trkpt><trkpt lat="45.7929981" lon="10.0283785"><ele>619.0</ele><time>2026-05-02T13:14:33.812Z</time></trkpt><trkpt lat="45.7930406" lon="10.0282447"><ele>619.0</ele><time>2026-05-02T13:14:34.813Z</time></trkpt><trkpt lat="45.7930928" lon="10.028152"><ele>619.0</ele><time>2026-05-02T13:14:35.812Z</time></trkpt><trkpt lat="45.7931673" lon="10.0280751"><ele>619.0</ele><time>2026-05-02T13:14:36.812Z</time></trkpt><trkpt lat="45.7932375" lon="10.0280097"><ele>620.6666666666667</ele><time>2026-05-02T13:14:37.813Z</time></trkpt><trkpt lat="45.7933288" lon="10.0279226"><ele>622.3333333333334</ele><time>2026-05-02T13:14:39.813Z</time></trkpt><trkpt lat="45.793422" lon="10.0278515"><ele>624.0</ele><time>2026-05-02T13:14:41.812Z</time></trkpt><trkpt lat="45.7934838" lon="10.0278098"><ele>625.6666666666666</ele><time>2026-05-02T13:14:42.812Z</time></trkpt><trkpt lat="45.7935663" lon="10.0277888"><ele>627.3333333333333</ele><time>2026-05-02T13:14:43.813Z</time></trkpt><trkpt lat="45.7936286" lon="10.027771"><ele>629.0</ele><time>2026-05-02T13:14:44.814Z</time></trkpt><trkpt lat="45.7937171" lon="10.0277567"><ele>632.1666666666666</ele><time>2026-05-02T13:14:45.811Z</time></trkpt><trkpt lat="45.7937897" lon="10.0277545"><ele>635.3333333333333</ele><time>2026-05-02T13:14:46.812Z</time></trkpt><trkpt lat="45.7938737" lon="10.027794"><ele>638.5</ele><time>2026-05-02T13:14:47.813Z</time></trkpt><trkpt lat="45.7939537" lon="10.0278318"><ele>641.6666666666666</ele><time>2026-05-02T13:14:48.813Z</time></trkpt><trkpt lat="45.7940289" lon="10.0279108"><ele>644.8333333333334</ele><time>2026-05-02T13:14:49.811Z</time></trkpt><trkpt lat="45.7940857" lon="10.0279584"><ele>648.0</ele><time>2026-05-02T13:14:50.813Z</time></trkpt><trkpt lat="45.7941688" lon="10.0280369"><ele>648.0</ele><time>2026-05-02T13:14:52.812Z</time></trkpt><trkpt lat="45.7942409" lon="10.0281218"><ele>648.0</ele><time>2026-05-02T13:14:54.811Z</time></trkpt><trkpt lat="45.7942749" lon="10.0282076"><ele>648.0</ele><time>2026-05-02T13:14:56.812Z</time></trkpt><trkpt lat="45.7943468" lon="10.0282964"><ele>648.0</ele><time>2026-05-02T13:14:58.812Z</time></trkpt><trkpt lat="45.7944189" lon="10.0283702"><ele>648.0</ele><time>2026-05-02T13:15:00.812Z</time></trkpt><trkpt lat="45.7944752" lon="10.0284203"><ele>648.0</ele><time>2026-05-02T13:15:01.812Z</time></trkpt><trkpt lat="45.7945679" lon="10.0285323"><ele>651.1666666666666</ele><time>2026-05-02T13:15:03.811Z</time></trkpt><trkpt lat="45.7946668" lon="10.0286598"><ele>654.3333333333334</ele><time>2026-05-02T13:15:05.814Z</time></trkpt><trkpt lat="45.7947227" lon="10.0287257"><ele>657.5</ele><time>2026-05-02T13:15:06.813Z</time></trkpt><trkpt lat="45.79478" lon="10.0287874"><ele>660.6666666666667</ele><time>2026-05-02T13:15:07.812Z</time></trkpt><trkpt lat="45.7948325" lon="10.0288654"><ele>663.8333333333334</ele><time>2026-05-02T13:15:08.813Z</time></trkpt><trkpt lat="45.7948852" lon="10.0289294"><ele>667.0</ele><time>2026-05-02T13:15:09.814Z</time></trkpt><trkpt lat="45.7949384" lon="10.0289987"><ele>667.0</ele><time>2026-05-02T13:15:10.812Z</time></trkpt><trkpt lat="45.7950044" lon="10.029123"><ele>667.0</ele><time>2026-05-02T13:15:12.813Z</time></trkpt><trkpt lat="45.7950178" lon="10.0292193"><ele>667.0</ele><time>2026-05-02T13:15:13.813Z</time></trkpt><trkpt lat="45.7950253" lon="10.0293455"><ele>667.0</ele><time>2026-05-02T13:15:14.813Z</time></trkpt><trkpt lat="45.7950482" lon="10.0294539"><ele>667.0</ele><time>2026-05-02T13:15:15.813Z</time></trkpt><trkpt lat="45.7950913" lon="10.0295369"><ele>667.0</ele><time>2026-05-02T13:15:16.812Z</time></trkpt><trkpt lat="45.7951345" lon="10.02962"><ele>668.8</ele><time>2026-05-02T13:15:17.812Z</time></trkpt><trkpt lat="45.7951857" lon="10.0297034"><ele>670.6</ele><time>2026-05-02T13:15:18.812Z</time></trkpt><trkpt lat="45.7952583" lon="10.0297533"><ele>672.4</ele><time>2026-05-02T13:15:19.812Z</time></trkpt><trkpt lat="45.7953106" lon="10.0298168"><ele>674.1999999999999</ele><time>2026-05-02T13:15:20.814Z</time></trkpt><trkpt lat="45.7954154" lon="10.0298599"><ele>676.0</ele><time>2026-05-02T13:15:22.811Z</time></trkpt><trkpt lat="45.7955082" lon="10.0299744"><ele>672.25</ele><time>2026-05-02T13:15:24.813Z</time></trkpt><trkpt lat="45.7956054" lon="10.0301463"><ele>668.5</ele><time>2026-05-02T13:15:26.814Z</time></trkpt><trkpt lat="45.7956483" lon="10.0302796"><ele>664.75</ele><time>2026-05-02T13:15:27.813Z</time></trkpt><trkpt lat="45.7957013" lon="10.0304203"><ele>661.0</ele><time>2026-05-02T13:15:28.814Z</time></trkpt><trkpt lat="45.7957362" lon="10.0305817"><ele>661.0</ele><time>2026-05-02T13:15:29.813Z</time></trkpt><trkpt lat="45.7957633" lon="10.0306649"><ele>661.0</ele><time>2026-05-02T13:15:30.813Z</time></trkpt><trkpt lat="45.7957898" lon="10.0307611"><ele>661.0</ele><time>2026-05-02T13:15:31.812Z</time></trkpt><trkpt lat="45.7957549" lon="10.030892"><ele>661.0</ele><time>2026-05-02T13:15:32.811Z</time></trkpt><trkpt lat="45.7957081" lon="10.0309683"><ele>661.0</ele><time>2026-05-02T13:15:33.814Z</time></trkpt><trkpt lat="45.7956522" lon="10.0310878"><ele>661.0</ele><time>2026-05-02T13:15:34.812Z</time></trkpt><trkpt lat="45.7956182" lon="10.0311944"><ele>660.6666666666667</ele><time>2026-05-02T13:15:35.813Z</time></trkpt><trkpt lat="45.7955801" lon="10.0312905"><ele>660.3333333333334</ele><time>2026-05-02T13:15:36.812Z</time></trkpt><trkpt lat="45.7955647" lon="10.0313993"><ele>660.0</ele><time>2026-05-02T13:15:37.811Z</time></trkpt><trkpt lat="45.7955444" lon="10.0315412"><ele>659.6666666666666</ele><time>2026-05-02T13:15:39.814Z</time></trkpt><trkpt lat="45.795487" lon="10.0315996"><ele>659.3333333333333</ele><time>2026-05-02T13:15:40.812Z</time></trkpt><trkpt lat="45.7955031" lon="10.0317164"><ele>659.0</ele><time>2026-05-02T13:15:41.812Z</time></trkpt><trkpt lat="45.7955211" lon="10.031857"><ele>659.0</ele><time>2026-05-02T13:15:42.813Z</time></trkpt><trkpt lat="45.7954971" lon="10.0319712"><ele>659.0</ele><time>2026-05-02T13:15:43.812Z</time></trkpt><trkpt lat="45.795617" lon="10.0319089"><ele>659.0</ele><time>2026-05-02T13:15:49.811Z</time></trkpt><trkpt lat="45.7957118" lon="10.031817"><ele>659.0</ele><time>2026-05-02T13:15:50.812Z</time></trkpt><trkpt lat="45.7957746" lon="10.0317481"><ele>659.0</ele><time>2026-05-02T13:15:51.812Z</time></trkpt><trkpt lat="45.7958533" lon="10.0316759"><ele>657.8333333333333</ele><time>2026-05-02T13:15:52.812Z</time></trkpt><trkpt lat="45.7959248" lon="10.0316376"><ele>656.6666666666666</ele><time>2026-05-02T13:15:53.813Z</time></trkpt><trkpt lat="45.7959976" lon="10.0316316"><ele>655.5</ele><time>2026-05-02T13:15:54.814Z</time></trkpt><trkpt lat="45.7960906" lon="10.031664"><ele>654.3333333333334</ele><time>2026-05-02T13:15:55.811Z</time></trkpt><trkpt lat="45.7961915" lon="10.0316889"><ele>653.1666666666667</ele><time>2026-05-02T13:15:56.814Z</time></trkpt><trkpt lat="45.7962747" lon="10.0316991"><ele>652.0</ele><time>2026-05-02T13:15:57.812Z</time></trkpt><trkpt lat="45.7964305" lon="10.0315998"><ele>654.8333333333334</ele><time>2026-05-02T13:15:59.812Z</time></trkpt><trkpt lat="45.7964963" lon="10.0315647"><ele>657.6666666666667</ele><time>2026-05-02T13:16:00.813Z</time></trkpt><trkpt lat="45.7965603" lon="10.0315082"><ele>660.5</ele><time>2026-05-02T13:16:01.812Z</time></trkpt><trkpt lat="45.7966461" lon="10.0314219"><ele>663.3333333333334</ele><time>2026-05-02T13:16:02.814Z</time></trkpt><trkpt lat="45.7967071" lon="10.0313462"><ele>666.1666666666666</ele><time>2026-05-02T13:16:03.812Z</time></trkpt><trkpt lat="45.7967964" lon="10.0312755"><ele>669.0</ele><time>2026-05-02T13:16:04.813Z</time></trkpt><trkpt lat="45.7968696" lon="10.0311985"><ele>670.2</ele><time>2026-05-02T13:16:05.813Z</time></trkpt><trkpt lat="45.7969694" lon="10.0311223"><ele>671.4000000000001</ele><time>2026-05-02T13:16:06.813Z</time></trkpt><trkpt lat="45.797058" lon="10.0310703"><ele>672.6</ele><time>2026-05-02T13:16:07.812Z</time></trkpt><trkpt lat="45.7971214" lon="10.0310002"><ele>673.8</ele><time>2026-05-02T13:16:08.813Z</time></trkpt><trkpt lat="45.7971776" lon="10.0309361"><ele>675.0</ele><time>2026-05-02T13:16:09.812Z</time></trkpt><trkpt lat="45.7972903" lon="10.0309677"><ele>675.0</ele><time>2026-05-02T13:16:12.813Z</time></trkpt><trkpt lat="45.7973242" lon="10.0310792"><ele>675.0</ele><time>2026-05-02T13:16:13.813Z</time></trkpt><trkpt lat="45.7973624" lon="10.031177"><ele>675.0</ele><time>2026-05-02T13:16:14.813Z</time></trkpt><trkpt lat="45.7974483" lon="10.0312561"><ele>675.0</ele><time>2026-05-02T13:16:16.811Z</time></trkpt><trkpt lat="45.7975494" lon="10.0312971"><ele>675.0</ele><time>2026-05-02T13:16:18.812Z</time></trkpt><trkpt lat="45.7976149" lon="10.0313215"><ele>675.0</ele><time>2026-05-02T13:16:19.811Z</time></trkpt><trkpt lat="45.7976791" lon="10.031332"><ele>673.8</ele><time>2026-05-02T13:16:20.814Z</time></trkpt><trkpt lat="45.7977866" lon="10.0314197"><ele>672.6</ele><time>2026-05-02T13:16:22.813Z</time></trkpt><trkpt lat="45.7977733" lon="10.0315867"><ele>671.4000000000001</ele><time>2026-05-02T13:16:24.812Z</time></trkpt><trkpt lat="45.7977302" lon="10.0316993"><ele>670.2</ele><time>2026-05-02T13:16:25.812Z</time></trkpt><trkpt lat="45.7976837" lon="10.0317834"><ele>669.0</ele><time>2026-05-02T13:16:26.811Z</time></trkpt><trkpt lat="45.7976539" lon="10.0318794"><ele>672.6666666666666</ele><time>2026-05-02T13:16:27.812Z</time></trkpt><trkpt lat="45.7976454" lon="10.0319866"><ele>676.3333333333334</ele><time>2026-05-02T13:16:28.814Z</time></trkpt><trkpt lat="45.7976428" lon="10.0321025"><ele>680.0</ele><time>2026-05-02T13:16:29.813Z</time></trkpt><trkpt lat="45.7976238" lon="10.0322108"><ele>683.6666666666667</ele><time>2026-05-02T13:16:30.814Z</time></trkpt><trkpt lat="45.7975336" lon="10.0323346"><ele>687.3333333333334</ele><time>2026-05-02T13:16:31.812Z</time></trkpt><trkpt lat="45.7974932" lon="10.0324394"><ele>691.0</ele><time>2026-05-02T13:16:32.811Z</time></trkpt><trkpt lat="45.7974425" lon="10.0325639"><ele>693.0</ele><time>2026-05-02T13:16:33.812Z</time></trkpt><trkpt lat="45.797421" lon="10.0326787"><ele>695.0</ele><time>2026-05-02T13:16:34.812Z</time></trkpt><trkpt lat="45.7973785" lon="10.0327594"><ele>697.0</ele><time>2026-05-02T13:16:35.812Z</time></trkpt><trkpt lat="45.7973554" lon="10.0328607"><ele>699.0</ele><time>2026-05-02T13:16:36.814Z</time></trkpt><trkpt lat="45.7973385" lon="10.0329849"><ele>701.0</ele><time>2026-05-02T13:16:37.813Z</time></trkpt><trkpt lat="45.7973199" lon="10.033132"><ele>703.0</ele><time>2026-05-02T13:16:38.813Z</time></trkpt><trkpt lat="45.7973202" lon="10.0332783"><ele>705.8</ele><time>2026-05-02T13:16:39.812Z</time></trkpt><trkpt lat="45.7973136" lon="10.0333886"><ele>708.5999999999999</ele><time>2026-05-02T13:16:40.813Z</time></trkpt><trkpt lat="45.7972934" lon="10.0335008"><ele>711.4000000000001</ele><time>2026-05-02T13:16:41.812Z</time></trkpt><trkpt lat="45.7973291" lon="10.0336148"><ele>714.2</ele><time>2026-05-02T13:16:42.814Z</time></trkpt><trkpt lat="45.7973458" lon="10.0337115"><ele>717.0</ele><time>2026-05-02T13:16:43.813Z</time></trkpt><trkpt lat="45.7972567" lon="10.0338709"><ele>717.0</ele><time>2026-05-02T13:16:45.812Z</time></trkpt><trkpt lat="45.7972149" lon="10.0339476"><ele>717.0</ele><time>2026-05-02T13:16:46.814Z</time></trkpt><trkpt lat="45.7971386" lon="10.0340603"><ele>717.0</ele><time>2026-05-02T13:16:47.813Z</time></trkpt><trkpt lat="45.7970886" lon="10.0341918"><ele>717.0</ele><time>2026-05-02T13:16:48.813Z</time></trkpt><trkpt lat="45.7970314" lon="10.0343169"><ele>717.0</ele><time>2026-05-02T13:16:49.813Z</time></trkpt><trkpt lat="45.7969894" lon="10.0344281"><ele>716.0</ele><time>2026-05-02T13:16:50.812Z</time></trkpt><trkpt lat="45.7969344" lon="10.0345435"><ele>715.0</ele><time>2026-05-02T13:16:51.812Z</time></trkpt><trkpt lat="45.7968928" lon="10.0346788"><ele>714.0</ele><time>2026-05-02T13:16:52.813Z</time></trkpt><trkpt lat="45.7968354" lon="10.034792"><ele>713.0</ele><time>2026-05-02T13:16:53.812Z</time></trkpt><trkpt lat="45.7967829" lon="10.0348801"><ele>712.0</ele><time>2026-05-02T13:16:54.812Z</time></trkpt><trkpt lat="45.7967498" lon="10.034985"><ele>712.0</ele><time>2026-05-02T13:16:55.812Z</time></trkpt><trkpt lat="45.7967177" lon="10.035086"><ele>712.0</ele><time>2026-05-02T13:16:56.813Z</time></trkpt><trkpt lat="45.7967023" lon="10.0351911"><ele>712.0</ele><time>2026-05-02T13:16:57.813Z</time></trkpt><trkpt lat="45.796723" lon="10.0353193"><ele>712.0</ele><time>2026-05-02T13:16:58.813Z</time></trkpt><trkpt lat="45.796744" lon="10.0354644"><ele>712.0</ele><time>2026-05-02T13:16:59.813Z</time></trkpt><trkpt lat="45.7967739" lon="10.0356424"><ele>712.0</ele><time>2026-05-02T13:17:00.812Z</time></trkpt><trkpt lat="45.7967807" lon="10.0357712"><ele>712.0</ele><time>2026-05-02T13:17:01.813Z</time></trkpt><trkpt lat="45.796775" lon="10.0359013"><ele>712.0</ele><time>2026-05-02T13:17:02.813Z</time></trkpt><trkpt lat="45.7967585" lon="10.0360146"><ele>712.0</ele><time>2026-05-02T13:17:03.812Z</time></trkpt><trkpt lat="45.796774" lon="10.0361882"><ele>712.0</ele><time>2026-05-02T13:17:05.812Z</time></trkpt><trkpt lat="45.7968187" lon="10.0363129"><ele>719.0</ele><time>2026-05-02T13:17:07.812Z</time></trkpt><trkpt lat="45.7968824" lon="10.0363782"><ele>726.0</ele><time>2026-05-02T13:17:09.812Z</time></trkpt><trkpt lat="45.7969925" lon="10.036449"><ele>733.0</ele><time>2026-05-02T13:17:11.812Z</time></trkpt><trkpt lat="45.7970593" lon="10.0364885"><ele>740.0</ele><time>2026-05-02T13:17:12.811Z</time></trkpt><trkpt lat="45.7971409" lon="10.0366022"><ele>747.0</ele><time>2026-05-02T13:17:14.812Z</time></trkpt><trkpt lat="45.7972045" lon="10.0367183"><ele>747.0</ele><time>2026-05-02T13:17:16.812Z</time></trkpt><trkpt lat="45.7972276" lon="10.0368437"><ele>747.0</ele><time>2026-05-02T13:17:17.812Z</time></trkpt><trkpt lat="45.7972867" lon="10.036987"><ele>747.0</ele><time>2026-05-02T13:17:19.813Z</time></trkpt><trkpt lat="45.7973607" lon="10.0370239"><ele>747.0</ele><time>2026-05-02T13:17:20.813Z</time></trkpt><trkpt lat="45.7974628" lon="10.0370536"><ele>747.0</ele><time>2026-05-02T13:17:22.813Z</time></trkpt><trkpt lat="45.7975651" lon="10.0369839"><ele>747.0</ele><time>2026-05-02T13:17:24.811Z</time></trkpt><trkpt lat="45.7976395" lon="10.0370682"><ele>747.0</ele><time>2026-05-02T13:17:26.813Z</time></trkpt><trkpt lat="45.7977175" lon="10.0371065"><ele>747.0</ele><time>2026-05-02T13:17:29.812Z</time></trkpt><trkpt lat="45.7977992" lon="10.0370226"><ele>747.0</ele><time>2026-05-02T13:17:31.813Z</time></trkpt><trkpt lat="45.797869" lon="10.0369826"><ele>747.0</ele><time>2026-05-02T13:17:32.813Z</time></trkpt><trkpt lat="45.7979222" lon="10.0368624"><ele>749.5</ele><time>2026-05-02T13:17:34.812Z</time></trkpt><trkpt lat="45.7979254" lon="10.0367666"><ele>752.0</ele><time>2026-05-02T13:17:35.813Z</time></trkpt><trkpt lat="45.7979305" lon="10.0366319"><ele>754.5</ele><time>2026-05-02T13:17:36.812Z</time></trkpt><trkpt lat="45.7979383" lon="10.0365096"><ele>757.0</ele><time>2026-05-02T13:17:37.812Z</time></trkpt><trkpt lat="45.7979487" lon="10.0363882"><ele>759.5</ele><time>2026-05-02T13:17:38.813Z</time></trkpt><trkpt lat="45.7979412" lon="10.0362714"><ele>762.0</ele><time>2026-05-02T13:17:39.813Z</time></trkpt><trkpt lat="45.797926" lon="10.0361437"><ele>765.4000000000001</ele><time>2026-05-02T13:17:40.814Z</time></trkpt><trkpt lat="45.7979469" lon="10.036031"><ele>768.8000000000001</ele><time>2026-05-02T13:17:41.812Z</time></trkpt><trkpt lat="45.7979899" lon="10.0358577"><ele>772.2</ele><time>2026-05-02T13:17:43.813Z</time></trkpt><trkpt lat="45.7980168" lon="10.035732"><ele>775.6</ele><time>2026-05-02T13:17:44.813Z</time></trkpt><trkpt lat="45.7980454" lon="10.0355931"><ele>779.0</ele><time>2026-05-02T13:17:45.812Z</time></trkpt><trkpt lat="45.7980651" lon="10.0354428"><ele>779.8000000000001</ele><time>2026-05-02T13:17:46.812Z</time></trkpt><trkpt lat="45.7980621" lon="10.0353274"><ele>780.6</ele><time>2026-05-02T13:17:47.811Z</time></trkpt><trkpt lat="45.798111" lon="10.0351532"><ele>781.4</ele><time>2026-05-02T13:17:49.812Z</time></trkpt><trkpt lat="45.7981428" lon="10.0350363"><ele>782.2</ele><time>2026-05-02T13:17:50.812Z</time></trkpt><trkpt lat="45.7981771" lon="10.0349302"><ele>783.0</ele><time>2026-05-02T13:17:51.812Z</time></trkpt><trkpt lat="45.7982242" lon="10.0348286"><ele>783.5</ele><time>2026-05-02T13:17:52.813Z</time></trkpt><trkpt lat="45.7982841" lon="10.0347337"><ele>784.0</ele><time>2026-05-02T13:17:53.811Z</time></trkpt><trkpt lat="45.7983414" lon="10.0346588"><ele>784.5</ele><time>2026-05-02T13:17:54.811Z</time></trkpt><trkpt lat="45.7983962" lon="10.0346076"><ele>785.0</ele><time>2026-05-02T13:17:55.812Z</time></trkpt><trkpt lat="45.79845" lon="10.0345592"><ele>785.5</ele><time>2026-05-02T13:17:56.814Z</time></trkpt><trkpt lat="45.7985391" lon="10.0344773"><ele>786.0</ele><time>2026-05-02T13:17:58.813Z</time></trkpt><trkpt lat="45.7986078" lon="10.0343864"><ele>786.0</ele><time>2026-05-02T13:18:00.813Z</time></trkpt><trkpt lat="45.7986936" lon="10.0343403"><ele>786.0</ele><time>2026-05-02T13:18:02.813Z</time></trkpt><trkpt lat="45.7987733" lon="10.0342965"><ele>786.0</ele><time>2026-05-02T13:18:03.811Z</time></trkpt><trkpt lat="45.7988287" lon="10.0342531"><ele>786.0</ele><time>2026-05-02T13:18:04.813Z</time></trkpt><trkpt lat="45.7988942" lon="10.0342284"><ele>786.0</ele><time>2026-05-02T13:18:05.813Z</time></trkpt><trkpt lat="45.7989476" lon="10.0341779"><ele>786.0</ele><time>2026-05-02T13:18:06.813Z</time></trkpt><trkpt lat="45.7990328" lon="10.0340819"><ele>783.1666666666666</ele><time>2026-05-02T13:18:08.812Z</time></trkpt><trkpt lat="45.7991207" lon="10.0339663"><ele>780.3333333333333</ele><time>2026-05-02T13:18:10.812Z</time></trkpt><trkpt lat="45.7991664" lon="10.0338464"><ele>777.5</ele><time>2026-05-02T13:18:13.812Z</time></trkpt><trkpt lat="45.7992059" lon="10.0337348"><ele>774.6666666666666</ele><time>2026-05-02T13:18:15.813Z</time></trkpt><trkpt lat="45.7991953" lon="10.0336432"><ele>771.8333333333333</ele><time>2026-05-02T13:18:18.814Z</time></trkpt><trkpt lat="45.7991909" lon="10.0335508"><ele>769.0</ele><time>2026-05-02T13:18:20.813Z</time></trkpt><trkpt lat="45.7991867" lon="10.0334574"><ele>769.0</ele><time>2026-05-02T13:18:22.811Z</time></trkpt><trkpt lat="45.7991684" lon="10.0333387"><ele>769.0</ele><time>2026-05-02T13:18:25.812Z</time></trkpt><trkpt lat="45.7991646" lon="10.0332208"><ele>769.0</ele><time>2026-05-02T13:19:08.812Z</time></trkpt><trkpt lat="45.799152" lon="10.0331285"><ele>769.0</ele><time>2026-05-02T13:19:28.812Z</time></trkpt><trkpt lat="45.7991423" lon="10.0330267"><ele>769.0</ele><time>2026-05-02T13:19:36.813Z</time></trkpt><trkpt lat="45.7991283" lon="10.0329352"><ele>769.0</ele><time>2026-05-02T13:19:43.811Z</time></trkpt><trkpt lat="45.79919" lon="10.0329048"><ele>769.0</ele><time>2026-05-02T13:24:55.811Z</time></trkpt><trkpt lat="45.7991757" lon="10.0329943"><ele>769.0</ele><time>2026-05-02T13:26:45.813Z</time></trkpt><trkpt lat="45.7991769" lon="10.0330889"><ele>769.0</ele><time>2026-05-02T13:26:53.812Z</time></trkpt><trkpt lat="45.7991483" lon="10.0331722"><ele>769.0</ele><time>2026-05-02T13:27:03.813Z</time></trkpt><trkpt lat="45.7992135" lon="10.0332026"><ele>769.0</ele><time>2026-05-02T13:27:11.844Z</time></trkpt><trkpt lat="45.7991636" lon="10.0332599"><ele>769.0</ele><time>2026-05-02T13:30:02.813Z</time></trkpt><trkpt lat="45.7991759" lon="10.0333523"><ele>769.0</ele><time>2026-05-02T13:30:07.811Z</time></trkpt><trkpt lat="45.7992206" lon="10.0334546"><ele>769.0</ele><time>2026-05-02T13:30:09.813Z</time></trkpt><trkpt lat="45.7992414" lon="10.0335641"><ele>769.0</ele><time>2026-05-02T13:30:12.812Z</time></trkpt><trkpt lat="45.7992808" lon="10.0336635"><ele>769.0</ele><time>2026-05-02T13:30:14.813Z</time></trkpt><trkpt lat="45.7992335" lon="10.0337918"><ele>769.0</ele><time>2026-05-02T13:30:16.813Z</time></trkpt><trkpt lat="45.7991878" lon="10.0339275"><ele>769.0</ele><time>2026-05-02T13:30:18.812Z</time></trkpt><trkpt lat="45.7991117" lon="10.0340473"><ele>769.0</ele><time>2026-05-02T13:30:20.813Z</time></trkpt><trkpt lat="45.7990638" lon="10.0341135"><ele>771.4285714285714</ele><time>2026-05-02T13:30:21.812Z</time></trkpt><trkpt lat="45.7990166" lon="10.0341765"><ele>773.8571428571429</ele><time>2026-05-02T13:30:22.813Z</time></trkpt><trkpt lat="45.798946" lon="10.0342325"><ele>776.2857142857143</ele><time>2026-05-02T13:30:23.812Z</time></trkpt><trkpt lat="45.7988838" lon="10.0342821"><ele>778.7142857142858</ele><time>2026-05-02T13:30:24.813Z</time></trkpt><trkpt lat="45.7988238" lon="10.0343302"><ele>781.1428571428571</ele><time>2026-05-02T13:30:25.812Z</time></trkpt><trkpt lat="45.7987607" lon="10.0343792"><ele>783.5714285714287</ele><time>2026-05-02T13:30:26.813Z</time></trkpt><trkpt lat="45.7986953" lon="10.0344186"><ele>786.0</ele><time>2026-05-02T13:30:27.812Z</time></trkpt><trkpt lat="45.7986209" lon="10.0345022"><ele>786.0</ele><time>2026-05-02T13:30:28.811Z</time></trkpt><trkpt lat="45.7985584" lon="10.0345574"><ele>786.0</ele><time>2026-05-02T13:30:29.813Z</time></trkpt><trkpt lat="45.7984738" lon="10.0346241"><ele>786.0</ele><time>2026-05-02T13:30:31.813Z</time></trkpt><trkpt lat="45.7983649" lon="10.0347056"><ele>786.0</ele><time>2026-05-02T13:30:33.812Z</time></trkpt><trkpt lat="45.7982777" lon="10.0348176"><ele>786.0</ele><time>2026-05-02T13:30:35.813Z</time></trkpt><trkpt lat="45.7981845" lon="10.0349416"><ele>785.4</ele><time>2026-05-02T13:30:37.812Z</time></trkpt><trkpt lat="45.798159" lon="10.0350506"><ele>784.8</ele><time>2026-05-02T13:30:38.812Z</time></trkpt><trkpt lat="45.7981225" lon="10.0351548"><ele>784.1999999999999</ele><time>2026-05-02T13:30:39.812Z</time></trkpt><trkpt lat="45.7980946" lon="10.0352445"><ele>783.5999999999999</ele><time>2026-05-02T13:30:40.812Z</time></trkpt><trkpt lat="45.7980639" lon="10.0354101"><ele>783.0</ele><time>2026-05-02T13:30:42.812Z</time></trkpt><trkpt lat="45.7980632" lon="10.0355721"><ele>783.0</ele><time>2026-05-02T13:30:44.812Z</time></trkpt><trkpt lat="45.7980411" lon="10.0357487"><ele>783.0</ele><time>2026-05-02T13:30:46.813Z</time></trkpt><trkpt lat="45.7980256" lon="10.0358462"><ele>783.0</ele><time>2026-05-02T13:30:47.813Z</time></trkpt><trkpt lat="45.7980038" lon="10.035934"><ele>783.0</ele><time>2026-05-02T13:30:48.811Z</time></trkpt><trkpt lat="45.7979729" lon="10.0360632"><ele>783.0</ele><time>2026-05-02T13:30:50.813Z</time></trkpt><trkpt lat="45.7979932" lon="10.0361923"><ele>783.0</ele><time>2026-05-02T13:30:52.812Z</time></trkpt><trkpt lat="45.798027" lon="10.0363405"><ele>782.3333333333334</ele><time>2026-05-02T13:30:54.812Z</time></trkpt><trkpt lat="45.7980185" lon="10.036492"><ele>781.6666666666667</ele><time>2026-05-02T13:30:56.813Z</time></trkpt><trkpt lat="45.7980081" lon="10.0366174"><ele>781.0</ele><time>2026-05-02T13:30:58.812Z</time></trkpt><trkpt lat="45.7980179" lon="10.0367386"><ele>780.3333333333334</ele><time>2026-05-02T13:31:00.812Z</time></trkpt><trkpt lat="45.7980126" lon="10.0368562"><ele>779.6666666666667</ele><time>2026-05-02T13:31:02.812Z</time></trkpt><trkpt lat="45.7979801" lon="10.0369456"><ele>779.0</ele><time>2026-05-02T13:31:04.813Z</time></trkpt><trkpt lat="45.7979031" lon="10.0370004"><ele>776.1666666666667</ele><time>2026-05-02T13:31:06.813Z</time></trkpt><trkpt lat="45.7978237" lon="10.0370366"><ele>773.3333333333334</ele><time>2026-05-02T13:31:08.811Z</time></trkpt><trkpt lat="45.7977726" lon="10.0371203"><ele>770.5</ele><time>2026-05-02T13:31:10.813Z</time></trkpt><trkpt lat="45.7976913" lon="10.0371123"><ele>767.6666666666667</ele><time>2026-05-02T13:31:12.812Z</time></trkpt><trkpt lat="45.7976459" lon="10.0370491"><ele>764.8333333333334</ele><time>2026-05-02T13:31:14.812Z</time></trkpt><trkpt lat="45.7975441" lon="10.0370653"><ele>762.0</ele><time>2026-05-02T13:31:16.812Z</time></trkpt><trkpt lat="45.797461" lon="10.0371199"><ele>759.0</ele><time>2026-05-02T13:31:18.812Z</time></trkpt><trkpt lat="45.7973677" lon="10.0370929"><ele>756.0</ele><time>2026-05-02T13:31:20.813Z</time></trkpt><trkpt lat="45.797314" lon="10.0370405"><ele>753.0</ele><time>2026-05-02T13:31:21.812Z</time></trkpt><trkpt lat="45.7972424" lon="10.0369349"><ele>750.0</ele><time>2026-05-02T13:31:23.811Z</time></trkpt><trkpt lat="45.7972116" lon="10.0368136"><ele>747.0</ele><time>2026-05-02T13:31:25.814Z</time></trkpt><trkpt lat="45.7972005" lon="10.0369642"><ele>747.0</ele><time>2026-05-02T13:31:31.812Z</time></trkpt><trkpt lat="45.7972309" lon="10.0370742"><ele>747.0</ele><time>2026-05-02T13:31:32.813Z</time></trkpt><trkpt lat="45.79726" lon="10.0371772"><ele>747.0</ele><time>2026-05-02T13:31:33.813Z</time></trkpt><trkpt lat="45.7972708" lon="10.0372684"><ele>747.0</ele><time>2026-05-02T13:31:34.812Z</time></trkpt><trkpt lat="45.7972861" lon="10.0373563"><ele>747.0</ele><time>2026-05-02T13:31:35.812Z</time></trkpt><trkpt lat="45.7973118" lon="10.0374448"><ele>747.0</ele><time>2026-05-02T13:31:36.813Z</time></trkpt><trkpt lat="45.7973911" lon="10.0375715"><ele>745.5</ele><time>2026-05-02T13:31:38.813Z</time></trkpt><trkpt lat="45.7974612" lon="10.0376245"><ele>744.0</ele><time>2026-05-02T13:31:39.812Z</time></trkpt><trkpt lat="45.7975395" lon="10.0376604"><ele>742.5</ele><time>2026-05-02T13:31:40.813Z</time></trkpt><trkpt lat="45.7976206" lon="10.0377058"><ele>741.0</ele><time>2026-05-02T13:31:41.812Z</time></trkpt><trkpt lat="45.7976851" lon="10.0377779"><ele>739.5</ele><time>2026-05-02T13:31:42.812Z</time></trkpt><trkpt lat="45.797752" lon="10.0378478"><ele>738.0</ele><time>2026-05-02T13:31:43.812Z</time></trkpt><trkpt lat="45.7977984" lon="10.0379453"><ele>738.0</ele><time>2026-05-02T13:31:44.812Z</time></trkpt><trkpt lat="45.7978466" lon="10.0380271"><ele>738.0</ele><time>2026-05-02T13:31:45.812Z</time></trkpt><trkpt lat="45.7978919" lon="10.0381181"><ele>738.0</ele><time>2026-05-02T13:31:46.812Z</time></trkpt><trkpt lat="45.7980126" lon="10.0382075"><ele>738.0</ele><time>2026-05-02T13:31:48.813Z</time></trkpt><trkpt lat="45.7980821" lon="10.0382328"><ele>738.0</ele><time>2026-05-02T13:31:49.811Z</time></trkpt><trkpt lat="45.7981817" lon="10.038234"><ele>738.0</ele><time>2026-05-02T13:31:50.812Z</time></trkpt><trkpt lat="45.7982983" lon="10.0382652"><ele>738.0</ele><time>2026-05-02T13:31:51.813Z</time></trkpt><trkpt lat="45.79841" lon="10.0382771"><ele>738.0</ele><time>2026-05-02T13:31:52.812Z</time></trkpt><trkpt lat="45.7984996" lon="10.0382952"><ele>738.0</ele><time>2026-05-02T13:31:53.813Z</time></trkpt><trkpt lat="45.7985576" lon="10.0383402"><ele>738.0</ele><time>2026-05-02T13:31:54.811Z</time></trkpt><trkpt lat="45.798631" lon="10.03835"><ele>735.0</ele><time>2026-05-02T13:31:55.811Z</time></trkpt><trkpt lat="45.7986977" lon="10.0383289"><ele>732.0</ele><time>2026-05-02T13:31:56.812Z</time></trkpt><trkpt lat="45.7987706" lon="10.0383144"><ele>729.0</ele><time>2026-05-02T13:31:57.812Z</time></trkpt><trkpt lat="45.7988494" lon="10.0382752"><ele>726.0</ele><time>2026-05-02T13:31:58.812Z</time></trkpt><trkpt lat="45.7989282" lon="10.0382385"><ele>723.0</ele><time>2026-05-02T13:31:59.813Z</time></trkpt><trkpt lat="45.7989994" lon="10.0381246"><ele>720.0</ele><time>2026-05-02T13:32:01.814Z</time></trkpt><trkpt lat="45.7990341" lon="10.0380396"><ele>720.0</ele><time>2026-05-02T13:32:02.812Z</time></trkpt><trkpt lat="45.7990698" lon="10.0379464"><ele>720.0</ele><time>2026-05-02T13:32:03.812Z</time></trkpt><trkpt lat="45.7990974" lon="10.037856"><ele>720.0</ele><time>2026-05-02T13:32:04.813Z</time></trkpt><trkpt lat="45.7991398" lon="10.0377209"><ele>720.0</ele><time>2026-05-02T13:32:06.812Z</time></trkpt><trkpt lat="45.7992066" lon="10.0378576"><ele>720.0</ele><time>2026-05-02T13:32:08.812Z</time></trkpt><trkpt lat="45.7992183" lon="10.0379622"><ele>720.0</ele><time>2026-05-02T13:32:09.812Z</time></trkpt><trkpt lat="45.7992262" lon="10.0380722"><ele>720.0</ele><time>2026-05-02T13:32:10.813Z</time></trkpt><trkpt lat="45.7992498" lon="10.038186"><ele>720.0</ele><time>2026-05-02T13:32:11.813Z</time></trkpt><trkpt lat="45.7992688" lon="10.0382921"><ele>720.0</ele><time>2026-05-02T13:32:12.812Z</time></trkpt><trkpt lat="45.7992941" lon="10.0383933"><ele>720.0</ele><time>2026-05-02T13:32:13.812Z</time></trkpt><trkpt lat="45.7992711" lon="10.0385718"><ele>720.0</ele><time>2026-05-02T13:32:15.813Z</time></trkpt><trkpt lat="45.799253" lon="10.0386606"><ele>720.0</ele><time>2026-05-02T13:32:16.812Z</time></trkpt><trkpt lat="45.7992052" lon="10.0387633"><ele>717.6666666666666</ele><time>2026-05-02T13:32:17.813Z</time></trkpt><trkpt lat="45.799156" lon="10.0388536"><ele>715.3333333333334</ele><time>2026-05-02T13:32:18.812Z</time></trkpt><trkpt lat="45.7990909" lon="10.03894"><ele>713.0</ele><time>2026-05-02T13:32:19.812Z</time></trkpt><trkpt lat="45.799049" lon="10.0390172"><ele>710.6666666666667</ele><time>2026-05-02T13:32:20.812Z</time></trkpt><trkpt lat="45.7990002" lon="10.0391068"><ele>708.3333333333334</ele><time>2026-05-02T13:32:21.813Z</time></trkpt><trkpt lat="45.7989257" lon="10.0391478"><ele>706.0</ele><time>2026-05-02T13:32:22.813Z</time></trkpt><trkpt lat="45.7988342" lon="10.0391772"><ele>704.3333333333334</ele><time>2026-05-02T13:32:23.811Z</time></trkpt><trkpt lat="45.7987553" lon="10.039199"><ele>702.6666666666667</ele><time>2026-05-02T13:32:24.813Z</time></trkpt><trkpt lat="45.7986872" lon="10.0392343"><ele>701.0</ele><time>2026-05-02T13:32:25.812Z</time></trkpt><trkpt lat="45.7986146" lon="10.0393105"><ele>699.3333333333334</ele><time>2026-05-02T13:32:26.813Z</time></trkpt><trkpt lat="45.798551" lon="10.0394021"><ele>697.6666666666666</ele><time>2026-05-02T13:32:27.811Z</time></trkpt><trkpt lat="45.7984996" lon="10.0395053"><ele>696.0</ele><time>2026-05-02T13:32:28.813Z</time></trkpt><trkpt lat="45.7984592" lon="10.0396214"><ele>696.0</ele><time>2026-05-02T13:32:29.812Z</time></trkpt><trkpt lat="45.7984103" lon="10.0397342"><ele>696.0</ele><time>2026-05-02T13:32:30.811Z</time></trkpt><trkpt lat="45.7983656" lon="10.0398436"><ele>696.0</ele><time>2026-05-02T13:32:31.813Z</time></trkpt><trkpt lat="45.7983187" lon="10.0399445"><ele>696.0</ele><time>2026-05-02T13:32:32.813Z</time></trkpt><trkpt lat="45.798278" lon="10.0400405"><ele>696.0</ele><time>2026-05-02T13:32:33.812Z</time></trkpt><trkpt lat="45.7982317" lon="10.0401303"><ele>696.0</ele><time>2026-05-02T13:32:34.814Z</time></trkpt><trkpt lat="45.7981828" lon="10.0402056"><ele>691.8</ele><time>2026-05-02T13:32:35.812Z</time></trkpt><trkpt lat="45.7981281" lon="10.040275"><ele>687.5999999999999</ele><time>2026-05-02T13:32:36.813Z</time></trkpt><trkpt lat="45.7980856" lon="10.0403435"><ele>683.4</ele><time>2026-05-02T13:32:37.813Z</time></trkpt><trkpt lat="45.7979517" lon="10.0404307"><ele>679.2</ele><time>2026-05-02T13:32:39.811Z</time></trkpt><trkpt lat="45.7978638" lon="10.0404218"><ele>675.0</ele><time>2026-05-02T13:32:40.811Z</time></trkpt><trkpt lat="45.7977739" lon="10.040403"><ele>675.0</ele><time>2026-05-02T13:32:41.813Z</time></trkpt><trkpt lat="45.7976887" lon="10.0403529"><ele>675.0</ele><time>2026-05-02T13:32:42.812Z</time></trkpt><trkpt lat="45.7975979" lon="10.0403163"><ele>675.0</ele><time>2026-05-02T13:32:43.812Z</time></trkpt><trkpt lat="45.7974904" lon="10.0402662"><ele>675.0</ele><time>2026-05-02T13:32:44.813Z</time></trkpt><trkpt lat="45.7974033" lon="10.0402255"><ele>675.0</ele><time>2026-05-02T13:32:45.813Z</time></trkpt><trkpt lat="45.7973132" lon="10.0401938"><ele>674.0</ele><time>2026-05-02T13:32:46.814Z</time></trkpt><trkpt lat="45.7972296" lon="10.0401795"><ele>673.0</ele><time>2026-05-02T13:32:47.811Z</time></trkpt><trkpt lat="45.7971531" lon="10.0401548"><ele>672.0</ele><time>2026-05-02T13:32:48.813Z</time></trkpt><trkpt lat="45.7970979" lon="10.0400849"><ele>671.0</ele><time>2026-05-02T13:32:49.813Z</time></trkpt><trkpt lat="45.7970475" lon="10.0400258"><ele>670.0</ele><time>2026-05-02T13:32:50.812Z</time></trkpt><trkpt lat="45.7970037" lon="10.0399569"><ele>669.0</ele><time>2026-05-02T13:32:51.812Z</time></trkpt><trkpt lat="45.7969033" lon="10.0398722"><ele>666.6</ele><time>2026-05-02T13:32:53.812Z</time></trkpt><trkpt lat="45.7968076" lon="10.0397762"><ele>664.2</ele><time>2026-05-02T13:32:55.813Z</time></trkpt><trkpt lat="45.796771" lon="10.0396949"><ele>661.8000000000001</ele><time>2026-05-02T13:32:56.812Z</time></trkpt><trkpt lat="45.7967338" lon="10.0395588"><ele>659.4000000000001</ele><time>2026-05-02T13:32:57.813Z</time></trkpt><trkpt lat="45.7966734" lon="10.0394449"><ele>657.0</ele><time>2026-05-02T13:32:58.812Z</time></trkpt><trkpt lat="45.7966053" lon="10.0393463"><ele>657.0</ele><time>2026-05-02T13:32:59.812Z</time></trkpt><trkpt lat="45.796559" lon="10.0392381"><ele>657.0</ele><time>2026-05-02T13:33:00.813Z</time></trkpt><trkpt lat="45.7965048" lon="10.0391398"><ele>657.0</ele><time>2026-05-02T13:33:01.812Z</time></trkpt><trkpt lat="45.7964475" lon="10.0390833"><ele>657.0</ele><time>2026-05-02T13:33:02.811Z</time></trkpt><trkpt lat="45.7963799" lon="10.0390178"><ele>657.0</ele><time>2026-05-02T13:33:03.813Z</time></trkpt><trkpt lat="45.7962978" lon="10.0389641"><ele>657.0</ele><time>2026-05-02T13:33:04.812Z</time></trkpt><trkpt lat="45.7962525" lon="10.0388804"><ele>654.1666666666666</ele><time>2026-05-02T13:33:05.812Z</time></trkpt><trkpt lat="45.7962074" lon="10.0388107"><ele>651.3333333333334</ele><time>2026-05-02T13:33:06.812Z</time></trkpt><trkpt lat="45.7961522" lon="10.0387505"><ele>648.5</ele><time>2026-05-02T13:33:07.812Z</time></trkpt><trkpt lat="45.7961099" lon="10.0386767"><ele>645.6666666666667</ele><time>2026-05-02T13:33:08.812Z</time></trkpt><trkpt lat="45.7960443" lon="10.0386313"><ele>642.8333333333334</ele><time>2026-05-02T13:33:09.811Z</time></trkpt><trkpt lat="45.7959497" lon="10.038498"><ele>640.0</ele><time>2026-05-02T13:33:11.811Z</time></trkpt><trkpt lat="45.7959005" lon="10.0383878"><ele>643.0</ele><time>2026-05-02T13:33:12.813Z</time></trkpt><trkpt lat="45.7958514" lon="10.0382727"><ele>646.0</ele><time>2026-05-02T13:33:13.813Z</time></trkpt><trkpt lat="45.7957814" lon="10.0381636"><ele>649.0</ele><time>2026-05-02T13:33:14.811Z</time></trkpt><trkpt lat="45.7957178" lon="10.0380666"><ele>652.0</ele><time>2026-05-02T13:33:15.813Z</time></trkpt><trkpt lat="45.7956619" lon="10.0379807"><ele>655.0</ele><time>2026-05-02T13:33:16.811Z</time></trkpt><trkpt lat="45.7955954" lon="10.0379067"><ele>655.0</ele><time>2026-05-02T13:33:17.813Z</time></trkpt><trkpt lat="45.7955438" lon="10.0378413"><ele>655.0</ele><time>2026-05-02T13:33:18.811Z</time></trkpt><trkpt lat="45.7955043" lon="10.0377595"><ele>655.0</ele><time>2026-05-02T13:33:19.813Z</time></trkpt><trkpt lat="45.795435" lon="10.03764"><ele>655.0</ele><time>2026-05-02T13:33:21.812Z</time></trkpt><trkpt lat="45.7954007" lon="10.0375519"><ele>655.0</ele><time>2026-05-02T13:33:23.813Z</time></trkpt><trkpt lat="45.795316" lon="10.0375157"><ele>655.0</ele><time>2026-05-02T13:33:26.813Z</time></trkpt><trkpt lat="45.795246" lon="10.0375014"><ele>655.0</ele><time>2026-05-02T13:33:29.812Z</time></trkpt><trkpt lat="45.7951809" lon="10.0374969"><ele>655.0</ele><time>2026-05-02T13:33:31.812Z</time></trkpt><trkpt lat="45.7950925" lon="10.037466"><ele>655.0</ele><time>2026-05-02T13:33:33.813Z</time></trkpt><trkpt lat="45.7950146" lon="10.0374503"><ele>655.0</ele><time>2026-05-02T13:33:35.814Z</time></trkpt><trkpt lat="45.7949382" lon="10.0374161"><ele>655.0</ele><time>2026-05-02T13:33:37.813Z</time></trkpt><trkpt lat="45.7948937" lon="10.0373204"><ele>655.0</ele><time>2026-05-02T13:33:39.812Z</time></trkpt><trkpt lat="45.7949131" lon="10.0372056"><ele>651.5714285714286</ele><time>2026-05-02T13:33:41.812Z</time></trkpt><trkpt lat="45.7949746" lon="10.0371395"><ele>648.1428571428571</ele><time>2026-05-02T13:33:42.811Z</time></trkpt><trkpt lat="45.7950502" lon="10.0371074"><ele>644.7142857142858</ele><time>2026-05-02T13:33:44.812Z</time></trkpt><trkpt lat="45.7950646" lon="10.0369848"><ele>641.2857142857142</ele><time>2026-05-02T13:33:47.813Z</time></trkpt><trkpt lat="45.7950565" lon="10.0368909"><ele>637.8571428571428</ele><time>2026-05-02T13:33:49.812Z</time></trkpt><trkpt lat="45.7950184" lon="10.0368159"><ele>634.4285714285714</ele><time>2026-05-02T13:33:51.813Z</time></trkpt><trkpt lat="45.7949736" lon="10.0367379"><ele>631.0</ele><time>2026-05-02T13:33:53.813Z</time></trkpt><trkpt lat="45.7949051" lon="10.0366742"><ele>633.4</ele><time>2026-05-02T13:33:55.813Z</time></trkpt><trkpt lat="45.7948198" lon="10.0366005"><ele>635.8</ele><time>2026-05-02T13:33:57.813Z</time></trkpt><trkpt lat="45.7947348" lon="10.0365172"><ele>638.1999999999999</ele><time>2026-05-02T13:33:59.813Z</time></trkpt><trkpt lat="45.7946705" lon="10.036451"><ele>640.6</ele><time>2026-05-02T13:34:01.811Z</time></trkpt><trkpt lat="45.7945926" lon="10.0363962"><ele>643.0</ele><time>2026-05-02T13:34:03.813Z</time></trkpt><trkpt lat="45.7945183" lon="10.0362931"><ele>643.0</ele><time>2026-05-02T13:34:05.811Z</time></trkpt><trkpt lat="45.7944392" lon="10.0361653"><ele>643.0</ele><time>2026-05-02T13:34:07.813Z</time></trkpt><trkpt lat="45.7943886" lon="10.0360964"><ele>643.0</ele><time>2026-05-02T13:34:08.811Z</time></trkpt><trkpt lat="45.794347" lon="10.0360252"><ele>643.0</ele><time>2026-05-02T13:34:09.812Z</time></trkpt><trkpt lat="45.7942832" lon="10.0358688"><ele>643.0</ele><time>2026-05-02T13:34:11.813Z</time></trkpt><trkpt lat="45.7941897" lon="10.0357318"><ele>640.0</ele><time>2026-05-02T13:34:13.812Z</time></trkpt><trkpt lat="45.794145" lon="10.03566"><ele>637.0</ele><time>2026-05-02T13:34:14.812Z</time></trkpt><trkpt lat="45.7940797" lon="10.0355853"><ele>634.0</ele><time>2026-05-02T13:34:15.812Z</time></trkpt><trkpt lat="45.794027" lon="10.0355102"><ele>631.0</ele><time>2026-05-02T13:34:16.812Z</time></trkpt><trkpt lat="45.7939714" lon="10.0354424"><ele>628.0</ele><time>2026-05-02T13:34:17.813Z</time></trkpt><trkpt lat="45.7939238" lon="10.0353563"><ele>625.0</ele><time>2026-05-02T13:34:18.811Z</time></trkpt><trkpt lat="45.7938771" lon="10.0352567"><ele>625.0</ele><time>2026-05-02T13:34:19.812Z</time></trkpt><trkpt lat="45.7938248" lon="10.0351614"><ele>625.0</ele><time>2026-05-02T13:34:20.812Z</time></trkpt><trkpt lat="45.7937616" lon="10.0350512"><ele>625.0</ele><time>2026-05-02T13:34:21.812Z</time></trkpt><trkpt lat="45.7936848" lon="10.0349679"><ele>625.0</ele><time>2026-05-02T13:34:22.811Z</time></trkpt><trkpt lat="45.7936135" lon="10.0349004"><ele>625.0</ele><time>2026-05-02T13:34:23.811Z</time></trkpt><trkpt lat="45.7935498" lon="10.0348489"><ele>625.0</ele><time>2026-05-02T13:34:24.813Z</time></trkpt><trkpt lat="45.7934989" lon="10.0347804"><ele>623.4</ele><time>2026-05-02T13:34:25.813Z</time></trkpt><trkpt lat="45.7934517" lon="10.0347197"><ele>621.8</ele><time>2026-05-02T13:34:26.812Z</time></trkpt><trkpt lat="45.79341" lon="10.0346477"><ele>620.2</ele><time>2026-05-02T13:34:27.813Z</time></trkpt><trkpt lat="45.7933467" lon="10.0345217"><ele>618.6</ele><time>2026-05-02T13:34:29.811Z</time></trkpt><trkpt lat="45.7932505" lon="10.034424"><ele>617.0</ele><time>2026-05-02T13:34:31.812Z</time></trkpt><trkpt lat="45.7931498" lon="10.0343211"><ele>617.0</ele><time>2026-05-02T13:34:33.812Z</time></trkpt><trkpt lat="45.7930604" lon="10.034248"><ele>617.0</ele><time>2026-05-02T13:34:35.812Z</time></trkpt><trkpt lat="45.7929459" lon="10.0342233"><ele>617.0</ele><time>2026-05-02T13:34:37.812Z</time></trkpt><trkpt lat="45.7928252" lon="10.0342085"><ele>617.0</ele><time>2026-05-02T13:34:39.811Z</time></trkpt><trkpt lat="45.7927129" lon="10.0341986"><ele>617.0</ele><time>2026-05-02T13:34:41.812Z</time></trkpt><trkpt lat="45.7926134" lon="10.0341946"><ele>617.0</ele><time>2026-05-02T13:34:43.812Z</time></trkpt><trkpt lat="45.7925465" lon="10.0342094"><ele>617.0</ele><time>2026-05-02T13:34:46.812Z</time></trkpt><trkpt lat="45.7925964" lon="10.0343523"><ele>617.0</ele><time>2026-05-02T13:34:49.813Z</time></trkpt><trkpt lat="45.7926378" lon="10.0344237"><ele>617.0</ele><time>2026-05-02T13:34:50.813Z</time></trkpt><trkpt lat="45.7926817" lon="10.0345277"><ele>617.0</ele><time>2026-05-02T13:34:51.813Z</time></trkpt><trkpt lat="45.7927148" lon="10.0346417"><ele>617.0</ele><time>2026-05-02T13:34:52.812Z</time></trkpt><trkpt lat="45.7927419" lon="10.0347591"><ele>617.0</ele><time>2026-05-02T13:34:53.813Z</time></trkpt><trkpt lat="45.7927671" lon="10.034882"><ele>617.0</ele><time>2026-05-02T13:34:54.813Z</time></trkpt><trkpt lat="45.7927926" lon="10.0350112"><ele>617.0</ele><time>2026-05-02T13:34:55.813Z</time></trkpt><trkpt lat="45.7928013" lon="10.0351376"><ele>617.0</ele><time>2026-05-02T13:34:56.812Z</time></trkpt><trkpt lat="45.7928179" lon="10.0352647"><ele>617.0</ele><time>2026-05-02T13:34:57.811Z</time></trkpt><trkpt lat="45.7928655" lon="10.0353623"><ele>616.6666666666666</ele><time>2026-05-02T13:34:58.813Z</time></trkpt><trkpt lat="45.792924" lon="10.0354362"><ele>616.3333333333333</ele><time>2026-05-02T13:34:59.813Z</time></trkpt><trkpt lat="45.7929847" lon="10.0355007"><ele>616.0</ele><time>2026-05-02T13:35:00.813Z</time></trkpt><trkpt lat="45.7930411" lon="10.0355722"><ele>615.6666666666666</ele><time>2026-05-02T13:35:01.812Z</time></trkpt><trkpt lat="45.7930639" lon="10.0356852"><ele>615.3333333333334</ele><time>2026-05-02T13:35:02.812Z</time></trkpt><trkpt lat="45.7930838" lon="10.0358036"><ele>615.0</ele><time>2026-05-02T13:35:03.812Z</time></trkpt><trkpt lat="45.7930784" lon="10.0359265"><ele>614.2</ele><time>2026-05-02T13:35:04.813Z</time></trkpt><trkpt lat="45.7930711" lon="10.0360384"><ele>613.4</ele><time>2026-05-02T13:35:05.812Z</time></trkpt><trkpt lat="45.793078" lon="10.036161"><ele>612.6</ele><time>2026-05-02T13:35:06.812Z</time></trkpt><trkpt lat="45.7931041" lon="10.0363015"><ele>611.8</ele><time>2026-05-02T13:35:07.812Z</time></trkpt><trkpt lat="45.7931453" lon="10.0364399"><ele>611.0</ele><time>2026-05-02T13:35:08.812Z</time></trkpt><trkpt lat="45.7931839" lon="10.0365783"><ele>610.6</ele><time>2026-05-02T13:35:09.811Z</time></trkpt><trkpt lat="45.7932355" lon="10.0366939"><ele>610.2</ele><time>2026-05-02T13:35:10.812Z</time></trkpt><trkpt lat="45.7932882" lon="10.0368169"><ele>609.8</ele><time>2026-05-02T13:35:11.812Z</time></trkpt><trkpt lat="45.7933465" lon="10.0369258"><ele>609.4</ele><time>2026-05-02T13:35:12.813Z</time></trkpt><trkpt lat="45.7934045" lon="10.0370406"><ele>609.0</ele><time>2026-05-02T13:35:13.812Z</time></trkpt><trkpt lat="45.7934646" lon="10.0371476"><ele>609.6</ele><time>2026-05-02T13:35:14.813Z</time></trkpt><trkpt lat="45.7935238" lon="10.0372544"><ele>610.2</ele><time>2026-05-02T13:35:15.812Z</time></trkpt><trkpt lat="45.7935809" lon="10.0373643"><ele>610.8000000000001</ele><time>2026-05-02T13:35:16.813Z</time></trkpt><trkpt lat="45.7936375" lon="10.0374823"><ele>611.4</ele><time>2026-05-02T13:35:17.813Z</time></trkpt><trkpt lat="45.7936854" lon="10.0376006"><ele>612.0</ele><time>2026-05-02T13:35:18.812Z</time></trkpt><trkpt lat="45.7937289" lon="10.0377131"><ele>612.0</ele><time>2026-05-02T13:35:19.813Z</time></trkpt><trkpt lat="45.7937734" lon="10.0378282"><ele>612.0</ele><time>2026-05-02T13:35:20.813Z</time></trkpt><trkpt lat="45.793815" lon="10.0379448"><ele>612.0</ele><time>2026-05-02T13:35:21.811Z</time></trkpt><trkpt lat="45.7938637" lon="10.0380644"><ele>612.0</ele><time>2026-05-02T13:35:22.812Z</time></trkpt><trkpt lat="45.7939137" lon="10.0381907"><ele>612.0</ele><time>2026-05-02T13:35:23.813Z</time></trkpt><trkpt lat="45.7939596" lon="10.038336"><ele>611.25</ele><time>2026-05-02T13:35:24.812Z</time></trkpt><trkpt lat="45.7940097" lon="10.0385009"><ele>610.5</ele><time>2026-05-02T13:35:25.813Z</time></trkpt><trkpt lat="45.7940576" lon="10.0386662"><ele>609.75</ele><time>2026-05-02T13:35:26.812Z</time></trkpt><trkpt lat="45.7941118" lon="10.0388286"><ele>609.0</ele><time>2026-05-02T13:35:27.813Z</time></trkpt><trkpt lat="45.7941734" lon="10.0389706"><ele>609.0</ele><time>2026-05-02T13:35:28.812Z</time></trkpt><trkpt lat="45.794242" lon="10.0390961"><ele>609.0</ele><time>2026-05-02T13:35:29.812Z</time></trkpt><trkpt lat="45.7943086" lon="10.0392183"><ele>609.0</ele><time>2026-05-02T13:35:30.813Z</time></trkpt><trkpt lat="45.7943689" lon="10.0393486"><ele>609.0</ele><time>2026-05-02T13:35:31.812Z</time></trkpt><trkpt lat="45.7944211" lon="10.039482"><ele>609.0</ele><time>2026-05-02T13:35:32.812Z</time></trkpt><trkpt lat="45.7944625" lon="10.0396183"><ele>609.5</ele><time>2026-05-02T13:35:33.811Z</time></trkpt><trkpt lat="45.7944948" lon="10.0397661"><ele>610.0</ele><time>2026-05-02T13:35:34.813Z</time></trkpt><trkpt lat="45.7945312" lon="10.0399236"><ele>610.5</ele><time>2026-05-02T13:35:35.811Z</time></trkpt><trkpt lat="45.7945743" lon="10.040081"><ele>611.0</ele><time>2026-05-02T13:35:36.812Z</time></trkpt><trkpt lat="45.7946103" lon="10.0402361"><ele>609.75</ele><time>2026-05-02T13:35:37.812Z</time></trkpt><trkpt lat="45.7946516" lon="10.0403926"><ele>608.5</ele><time>2026-05-02T13:35:38.813Z</time></trkpt><trkpt lat="45.7947081" lon="10.0405498"><ele>607.25</ele><time>2026-05-02T13:35:39.812Z</time></trkpt><trkpt lat="45.7947713" lon="10.0407031"><ele>606.0</ele><time>2026-05-02T13:35:40.811Z</time></trkpt><trkpt lat="45.7948413" lon="10.0408529"><ele>604.4</ele><time>2026-05-02T13:35:41.812Z</time></trkpt><trkpt lat="45.7949151" lon="10.0409856"><ele>602.8</ele><time>2026-05-02T13:35:42.812Z</time></trkpt><trkpt lat="45.7949847" lon="10.0411107"><ele>601.1999999999999</ele><time>2026-05-02T13:35:43.812Z</time></trkpt><trkpt lat="45.7950458" lon="10.0412379"><ele>599.6</ele><time>2026-05-02T13:35:44.812Z</time></trkpt><trkpt lat="45.7951124" lon="10.0413631"><ele>598.0</ele><time>2026-05-02T13:35:45.812Z</time></trkpt><trkpt lat="45.7951881" lon="10.0414813"><ele>598.4</ele><time>2026-05-02T13:35:46.812Z</time></trkpt><trkpt lat="45.7952667" lon="10.0415927"><ele>598.8</ele><time>2026-05-02T13:35:47.811Z</time></trkpt><trkpt lat="45.7953365" lon="10.0417043"><ele>599.2</ele><time>2026-05-02T13:35:48.811Z</time></trkpt><trkpt lat="45.7954138" lon="10.0418146"><ele>599.6</ele><time>2026-05-02T13:35:49.813Z</time></trkpt><trkpt lat="45.795481" lon="10.0419154"><ele>600.0</ele><time>2026-05-02T13:35:50.812Z</time></trkpt><trkpt lat="45.795554" lon="10.0420325"><ele>600.0</ele><time>2026-05-02T13:35:51.812Z</time></trkpt><trkpt lat="45.7956079" lon="10.0421222"><ele>600.0</ele><time>2026-05-02T13:35:52.813Z</time></trkpt><trkpt lat="45.7956706" lon="10.0421899"><ele>600.0</ele><time>2026-05-02T13:35:53.812Z</time></trkpt><trkpt lat="45.7957503" lon="10.0422069"><ele>600.0</ele><time>2026-05-02T13:35:54.812Z</time></trkpt><trkpt lat="45.7958325" lon="10.042209"><ele>600.0</ele><time>2026-05-02T13:35:55.812Z</time></trkpt><trkpt lat="45.7959058" lon="10.042225"><ele>600.0</ele><time>2026-05-02T13:35:56.812Z</time></trkpt><trkpt lat="45.7959981" lon="10.0422976"><ele>600.4</ele><time>2026-05-02T13:35:57.813Z</time></trkpt><trkpt lat="45.7960752" lon="10.0424107"><ele>600.8</ele><time>2026-05-02T13:35:58.811Z</time></trkpt><trkpt lat="45.7961304" lon="10.0425364"><ele>601.2</ele><time>2026-05-02T13:35:59.812Z</time></trkpt><trkpt lat="45.7961576" lon="10.042653"><ele>601.6</ele><time>2026-05-02T13:36:00.813Z</time></trkpt><trkpt lat="45.7961618" lon="10.04276"><ele>602.0</ele><time>2026-05-02T13:36:01.812Z</time></trkpt><trkpt lat="45.7961496" lon="10.0429169"><ele>602.0</ele><time>2026-05-02T13:36:03.812Z</time></trkpt><trkpt lat="45.7961891" lon="10.0430953"><ele>602.0</ele><time>2026-05-02T13:36:05.812Z</time></trkpt><trkpt lat="45.7962355" lon="10.0431957"><ele>602.0</ele><time>2026-05-02T13:36:06.812Z</time></trkpt><trkpt lat="45.7962792" lon="10.0432925"><ele>602.0</ele><time>2026-05-02T13:36:07.812Z</time></trkpt><trkpt lat="45.7963257" lon="10.0433892"><ele>602.0</ele><time>2026-05-02T13:36:08.813Z</time></trkpt><trkpt lat="45.7963641" lon="10.0435051"><ele>600.3333333333333</ele><time>2026-05-02T13:36:09.812Z</time></trkpt><trkpt lat="45.7964083" lon="10.0436114"><ele>598.6666666666666</ele><time>2026-05-02T13:36:10.813Z</time></trkpt><trkpt lat="45.7964537" lon="10.0437121"><ele>597.0</ele><time>2026-05-02T13:36:11.811Z</time></trkpt><trkpt lat="45.7964994" lon="10.0438174"><ele>595.3333333333334</ele><time>2026-05-02T13:36:12.812Z</time></trkpt><trkpt lat="45.7965486" lon="10.0439188"><ele>593.6666666666667</ele><time>2026-05-02T13:36:13.812Z</time></trkpt><trkpt lat="45.7966068" lon="10.0440153"><ele>592.0</ele><time>2026-05-02T13:36:14.812Z</time></trkpt><trkpt lat="45.7966662" lon="10.0441174"><ele>590.6666666666667</ele><time>2026-05-02T13:36:15.813Z</time></trkpt><trkpt lat="45.7967188" lon="10.0442183"><ele>589.3333333333334</ele><time>2026-05-02T13:36:16.813Z</time></trkpt><trkpt lat="45.7967713" lon="10.0443096"><ele>588.0</ele><time>2026-05-02T13:36:17.813Z</time></trkpt><trkpt lat="45.7968212" lon="10.0444042"><ele>586.6666666666666</ele><time>2026-05-02T13:36:18.813Z</time></trkpt><trkpt lat="45.7968747" lon="10.044485"><ele>585.3333333333333</ele><time>2026-05-02T13:36:19.811Z</time></trkpt><trkpt lat="45.7969475" lon="10.0445296"><ele>584.0</ele><time>2026-05-02T13:36:20.812Z</time></trkpt><trkpt lat="45.7970206" lon="10.0445483"><ele>584.0</ele><time>2026-05-02T13:36:21.813Z</time></trkpt><trkpt lat="45.7971009" lon="10.0445524"><ele>584.0</ele><time>2026-05-02T13:36:22.812Z</time></trkpt><trkpt lat="45.7971791" lon="10.0445482"><ele>584.0</ele><time>2026-05-02T13:36:23.812Z</time></trkpt><trkpt lat="45.7972607" lon="10.0445488"><ele>584.0</ele><time>2026-05-02T13:36:24.812Z</time></trkpt><trkpt lat="45.7973416" lon="10.0445462"><ele>584.0</ele><time>2026-05-02T13:36:25.813Z</time></trkpt><trkpt lat="45.7974231" lon="10.0445722"><ele>584.0</ele><time>2026-05-02T13:36:26.812Z</time></trkpt><trkpt lat="45.7975013" lon="10.0446226"><ele>584.0</ele><time>2026-05-02T13:36:27.813Z</time></trkpt><trkpt lat="45.7975716" lon="10.0446907"><ele>584.0</ele><time>2026-05-02T13:36:28.812Z</time></trkpt><trkpt lat="45.7976532" lon="10.0447569"><ele>584.0</ele><time>2026-05-02T13:36:29.812Z</time></trkpt><trkpt lat="45.7977288" lon="10.0448311"><ele>584.0</ele><time>2026-05-02T13:36:30.811Z</time></trkpt><trkpt lat="45.7977881" lon="10.0448936"><ele>584.0</ele><time>2026-05-02T13:36:31.811Z</time></trkpt><trkpt lat="45.7978464" lon="10.0449487"><ele>584.0</ele><time>2026-05-02T13:36:32.812Z</time></trkpt><trkpt lat="45.7979579" lon="10.0450046"><ele>583.4</ele><time>2026-05-02T13:36:34.812Z</time></trkpt><trkpt lat="45.7980752" lon="10.0450074"><ele>582.8</ele><time>2026-05-02T13:36:36.811Z</time></trkpt><trkpt lat="45.7981611" lon="10.044901"><ele>582.2</ele><time>2026-05-02T13:36:38.812Z</time></trkpt><trkpt lat="45.7982542" lon="10.0447815"><ele>581.6</ele><time>2026-05-02T13:36:40.813Z</time></trkpt><trkpt lat="45.798306" lon="10.0447097"><ele>581.0</ele><time>2026-05-02T13:36:41.812Z</time></trkpt><trkpt lat="45.7983585" lon="10.0446316"><ele>581.0</ele><time>2026-05-02T13:36:42.813Z</time></trkpt><trkpt lat="45.7984466" lon="10.0445125"><ele>581.0</ele><time>2026-05-02T13:36:44.813Z</time></trkpt><trkpt lat="45.798556" lon="10.0444337"><ele>581.0</ele><time>2026-05-02T13:36:46.811Z</time></trkpt><trkpt lat="45.7986535" lon="10.0443728"><ele>581.0</ele><time>2026-05-02T13:36:48.813Z</time></trkpt><trkpt lat="45.7987635" lon="10.0443202"><ele>578.1666666666666</ele><time>2026-05-02T13:36:50.813Z</time></trkpt><trkpt lat="45.7988283" lon="10.0443169"><ele>575.3333333333333</ele><time>2026-05-02T13:36:51.812Z</time></trkpt><trkpt lat="45.7989228" lon="10.0443047"><ele>572.5</ele><time>2026-05-02T13:36:53.813Z</time></trkpt><trkpt lat="45.7989636" lon="10.0444301"><ele>569.6666666666666</ele><time>2026-05-02T13:36:55.813Z</time></trkpt><trkpt lat="45.7989463" lon="10.0445176"><ele>566.8333333333334</ele><time>2026-05-02T13:36:56.812Z</time></trkpt><trkpt lat="45.7989005" lon="10.0446817"><ele>564.0</ele><time>2026-05-02T13:36:58.812Z</time></trkpt><trkpt lat="45.798865" lon="10.0447647"><ele>564.0</ele><time>2026-05-02T13:36:59.812Z</time></trkpt><trkpt lat="45.7988799" lon="10.0448844"><ele>564.0</ele><time>2026-05-02T13:37:01.812Z</time></trkpt><trkpt lat="45.7989552" lon="10.0448923"><ele>564.0</ele><time>2026-05-02T13:37:03.812Z</time></trkpt><trkpt lat="45.7990226" lon="10.044807"><ele>564.0</ele><time>2026-05-02T13:37:05.813Z</time></trkpt><trkpt lat="45.7991052" lon="10.0447454"><ele>564.0</ele><time>2026-05-02T13:37:07.812Z</time></trkpt><trkpt lat="45.7991986" lon="10.0447004"><ele>564.0</ele><time>2026-05-02T13:37:09.813Z</time></trkpt><trkpt lat="45.7992799" lon="10.0446595"><ele>559.0</ele><time>2026-05-02T13:37:11.811Z</time></trkpt><trkpt lat="45.7993554" lon="10.044672"><ele>554.0</ele><time>2026-05-02T13:37:13.813Z</time></trkpt><trkpt lat="45.7993989" lon="10.0448053"><ele>549.0</ele><time>2026-05-02T13:37:15.812Z</time></trkpt><trkpt lat="45.7994307" lon="10.0449522"><ele>544.0</ele><time>2026-05-02T13:37:17.812Z</time></trkpt><trkpt lat="45.7994536" lon="10.0450767"><ele>539.0</ele><time>2026-05-02T13:37:19.812Z</time></trkpt><trkpt lat="45.7994791" lon="10.0451654"><ele>534.0</ele><time>2026-05-02T13:37:21.812Z</time></trkpt><trkpt lat="45.7994517" lon="10.0452542"><ele>532.4285714285714</ele><time>2026-05-02T13:37:23.813Z</time></trkpt><trkpt lat="45.7994211" lon="10.0453352"><ele>530.8571428571429</ele><time>2026-05-02T13:37:27.813Z</time></trkpt><trkpt lat="45.7994015" lon="10.0454295"><ele>529.2857142857142</ele><time>2026-05-02T13:37:34.812Z</time></trkpt><trkpt lat="45.7994024" lon="10.0455478"><ele>527.7142857142858</ele><time>2026-05-02T13:37:38.812Z</time></trkpt><trkpt lat="45.799468" lon="10.0455803"><ele>526.1428571428571</ele><time>2026-05-02T13:37:41.812Z</time></trkpt><trkpt lat="45.7995333" lon="10.0455306"><ele>524.5714285714286</ele><time>2026-05-02T13:37:43.812Z</time></trkpt><trkpt lat="45.7996014" lon="10.0454649"><ele>523.0</ele><time>2026-05-02T13:37:46.813Z</time></trkpt><trkpt lat="45.799674" lon="10.0453844"><ele>523.0</ele><time>2026-05-02T13:37:48.812Z</time></trkpt><trkpt lat="45.7997256" lon="10.0452816"><ele>523.0</ele><time>2026-05-02T13:37:50.812Z</time></trkpt><trkpt lat="45.7997699" lon="10.0451696"><ele>523.0</ele><time>2026-05-02T13:37:52.812Z</time></trkpt><trkpt lat="45.7997897" lon="10.0450601"><ele>523.0</ele><time>2026-05-02T13:37:54.813Z</time></trkpt><trkpt lat="45.7998244" lon="10.0449629"><ele>523.0</ele><time>2026-05-02T13:37:56.813Z</time></trkpt><trkpt lat="45.7998871" lon="10.0449442"><ele>523.0</ele><time>2026-05-02T13:37:58.811Z</time></trkpt><trkpt lat="45.7999769" lon="10.0449758"><ele>523.0</ele><time>2026-05-02T13:38:01.811Z</time></trkpt><trkpt lat="45.8000267" lon="10.0450616"><ele>523.0</ele><time>2026-05-02T13:38:04.811Z</time></trkpt><trkpt lat="45.8000186" lon="10.0451567"><ele>523.0</ele><time>2026-05-02T13:38:06.812Z</time></trkpt><trkpt lat="45.8000062" lon="10.0452832"><ele>523.0</ele><time>2026-05-02T13:38:08.813Z</time></trkpt><trkpt lat="45.7999941" lon="10.0454105"><ele>523.0</ele><time>2026-05-02T13:38:10.811Z</time></trkpt><trkpt lat="45.7999451" lon="10.0454999"><ele>523.0</ele><time>2026-05-02T13:38:11.812Z</time></trkpt><trkpt lat="45.7999235" lon="10.0455888"><ele>523.0</ele><time>2026-05-02T13:38:12.812Z</time></trkpt><trkpt lat="45.7999514" lon="10.0457113"><ele>523.0</ele><time>2026-05-02T13:38:14.811Z</time></trkpt><trkpt lat="45.7999916" lon="10.045844"><ele>523.0</ele><time>2026-05-02T13:38:16.813Z</time></trkpt><trkpt lat="45.8000023" lon="10.0459794"><ele>523.0</ele><time>2026-05-02T13:38:18.812Z</time></trkpt><trkpt lat="45.8000349" lon="10.0460829"><ele>523.0</ele><time>2026-05-02T13:38:20.812Z</time></trkpt><trkpt lat="45.8000376" lon="10.0461985"><ele>523.0</ele><time>2026-05-02T13:38:23.812Z</time></trkpt><trkpt lat="45.7999984" lon="10.0463178"><ele>521.5</ele><time>2026-05-02T13:38:26.813Z</time></trkpt><trkpt lat="45.7999508" lon="10.0464145"><ele>520.0</ele><time>2026-05-02T13:38:27.812Z</time></trkpt><trkpt lat="45.7998963" lon="10.0465406"><ele>518.5</ele><time>2026-05-02T13:38:29.813Z</time></trkpt><trkpt lat="45.7998652" lon="10.0466462"><ele>517.0</ele><time>2026-05-02T13:38:31.812Z</time></trkpt><trkpt lat="45.7998564" lon="10.0467654"><ele>515.5</ele><time>2026-05-02T13:38:33.812Z</time></trkpt><trkpt lat="45.7998669" lon="10.0468854"><ele>514.0</ele><time>2026-05-02T13:38:35.811Z</time></trkpt><trkpt lat="45.7998388" lon="10.0469853"><ele>512.6666666666667</ele><time>2026-05-02T13:38:37.812Z</time></trkpt><trkpt lat="45.799812" lon="10.0470877"><ele>511.33333333333337</ele><time>2026-05-02T13:38:39.813Z</time></trkpt><trkpt lat="45.7998379" lon="10.0471958"><ele>510.0</ele><time>2026-05-02T13:38:42.813Z</time></trkpt><trkpt lat="45.7998677" lon="10.0473333"><ele>508.66666666666663</ele><time>2026-05-02T13:38:45.813Z</time></trkpt><trkpt lat="45.7998832" lon="10.0474327"><ele>507.3333333333333</ele><time>2026-05-02T13:38:48.811Z</time></trkpt><trkpt lat="45.7998986" lon="10.0475253"><ele>506.0</ele><time>2026-05-02T13:38:50.812Z</time></trkpt><trkpt lat="45.799883" lon="10.0476285"><ele>503.99999999999994</ele><time>2026-05-02T13:38:52.813Z</time></trkpt><trkpt lat="45.7998973" lon="10.0477436"><ele>502.0</ele><time>2026-05-02T13:38:55.812Z</time></trkpt><trkpt lat="45.7998823" lon="10.0478367"><ele>500.0</ele><time>2026-05-02T13:38:57.812Z</time></trkpt><trkpt lat="45.7998622" lon="10.0479614"><ele>498.0</ele><time>2026-05-02T13:39:00.811Z</time></trkpt><trkpt lat="45.7998601" lon="10.0480686"><ele>495.99999999999994</ele><time>2026-05-02T13:39:02.811Z</time></trkpt><trkpt lat="45.7998616" lon="10.0481687"><ele>494.0</ele><time>2026-05-02T13:39:04.812Z</time></trkpt><trkpt lat="45.7998373" lon="10.0482644"><ele>492.3333333333333</ele><time>2026-05-02T13:39:07.812Z</time></trkpt><trkpt lat="45.799806" lon="10.0483696"><ele>490.66666666666663</ele><time>2026-05-02T13:39:11.812Z</time></trkpt><trkpt lat="45.7997979" lon="10.0484926"><ele>489.0</ele><time>2026-05-02T13:39:14.812Z</time></trkpt><trkpt lat="45.7997581" lon="10.0486382"><ele>487.33333333333337</ele><time>2026-05-02T13:39:17.812Z</time></trkpt><trkpt lat="45.7997355" lon="10.048742"><ele>485.6666666666667</ele><time>2026-05-02T13:39:19.811Z</time></trkpt><trkpt lat="45.7997368" lon="10.048838"><ele>484.0</ele><time>2026-05-02T13:39:21.813Z</time></trkpt><trkpt lat="45.7997374" lon="10.0489298"><ele>484.00000000000006</ele><time>2026-05-02T13:39:23.812Z</time></trkpt><trkpt lat="45.7997463" lon="10.049022"><ele>484.0</ele><time>2026-05-02T13:39:25.813Z</time></trkpt><trkpt lat="45.799768" lon="10.0491445"><ele>484.0</ele><time>2026-05-02T13:39:27.812Z</time></trkpt><trkpt lat="45.799815" lon="10.0492678"><ele>484.0</ele><time>2026-05-02T13:39:29.813Z</time></trkpt><trkpt lat="45.7998591" lon="10.0493922"><ele>484.00000000000006</ele><time>2026-05-02T13:39:31.812Z</time></trkpt><trkpt lat="45.7998884" lon="10.0495294"><ele>484.0</ele><time>2026-05-02T13:39:33.812Z</time></trkpt><trkpt lat="45.799889" lon="10.0496565"><ele>482.00000000000006</ele><time>2026-05-02T13:39:35.812Z</time></trkpt><trkpt lat="45.7999121" lon="10.0497741"><ele>480.0</ele><time>2026-05-02T13:39:37.79Z</time></trkpt><trkpt lat="45.7999462" lon="10.0499009"><ele>478.0</ele><time>2026-05-02T13:39:39.812Z</time></trkpt><trkpt lat="45.799983" lon="10.0499816"><ele>476.0</ele><time>2026-05-02T13:39:41.812Z</time></trkpt><trkpt lat="45.8000284" lon="10.0500709"><ele>474.00000000000006</ele><time>2026-05-02T13:39:45.812Z</time></trkpt><trkpt lat="45.8000286" lon="10.0501764"><ele>472.0</ele><time>2026-05-02T13:39:48.812Z</time></trkpt><trkpt lat="45.800014" lon="10.0502834"><ele>471.6666666666667</ele><time>2026-05-02T13:39:50.811Z</time></trkpt><trkpt lat="45.8000111" lon="10.0504086"><ele>471.33333333333337</ele><time>2026-05-02T13:39:53.813Z</time></trkpt><trkpt lat="45.7999832" lon="10.0505022"><ele>471.0</ele><time>2026-05-02T13:39:55.813Z</time></trkpt><trkpt lat="45.7999998" lon="10.0506284"><ele>470.66666666666663</ele><time>2026-05-02T13:39:58.812Z</time></trkpt><trkpt lat="45.8000527" lon="10.050731"><ele>470.3333333333333</ele><time>2026-05-02T13:40:01.812Z</time></trkpt><trkpt lat="45.8000613" lon="10.0508242"><ele>470.0</ele><time>2026-05-02T13:40:03.812Z</time></trkpt><trkpt lat="45.8000735" lon="10.0509335"><ele>469.0</ele><time>2026-05-02T13:40:05.812Z</time></trkpt><trkpt lat="45.8000699" lon="10.0510257"><ele>467.99999999999994</ele><time>2026-05-02T13:40:07.813Z</time></trkpt><trkpt lat="45.8000479" lon="10.0511154"><ele>467.0</ele><time>2026-05-02T13:40:10.811Z</time></trkpt><trkpt lat="45.8001227" lon="10.0511364"><ele>466.0</ele><time>2026-05-02T13:40:13.811Z</time></trkpt><trkpt lat="45.8001854" lon="10.0510962"><ele>464.99999999999994</ele><time>2026-05-02T13:40:16.812Z</time></trkpt><trkpt lat="45.8002497" lon="10.0510536"><ele>464.0</ele><time>2026-05-02T13:44:14.812Z</time></trkpt><trkpt lat="45.8003327" lon="10.0510339"><ele>463.0</ele><time>2026-05-02T13:44:17.812Z</time></trkpt><trkpt lat="45.8004075" lon="10.0510233"><ele>459.1666666666667</ele><time>2026-05-02T13:44:19.813Z</time></trkpt><trkpt lat="45.8004642" lon="10.0509603"><ele>455.33333333333337</ele><time>2026-05-02T13:44:21.813Z</time></trkpt><trkpt lat="45.8005275" lon="10.0509235"><ele>451.5</ele><time>2026-05-02T13:44:25.813Z</time></trkpt><trkpt lat="45.8005978" lon="10.0510161"><ele>447.66666666666663</ele><time>2026-05-02T13:44:28.812Z</time></trkpt><trkpt lat="45.8006537" lon="10.051127"><ele>443.8333333333333</ele><time>2026-05-02T13:44:30.811Z</time></trkpt><trkpt lat="45.8007008" lon="10.0512575"><ele>440.0</ele><time>2026-05-02T13:44:31.813Z</time></trkpt><trkpt lat="45.8007441" lon="10.0513744"><ele>439.99999999999994</ele><time>2026-05-02T13:44:33.811Z</time></trkpt><trkpt lat="45.8007853" lon="10.0515098"><ele>440.0</ele><time>2026-05-02T13:44:35.813Z</time></trkpt><trkpt lat="45.8007883" lon="10.0516438"><ele>440.0</ele><time>2026-05-02T13:44:37.812Z</time></trkpt><trkpt lat="45.8007949" lon="10.051743"><ele>440.0</ele><time>2026-05-02T13:44:38.812Z</time></trkpt><trkpt lat="45.8007931" lon="10.0518429"><ele>439.99999999999994</ele><time>2026-05-02T13:44:39.811Z</time></trkpt><trkpt lat="45.8008132" lon="10.0519392"><ele>440.0</ele><time>2026-05-02T13:44:40.812Z</time></trkpt><trkpt lat="45.80083" lon="10.0520284"><ele>438.8333333333333</ele><time>2026-05-02T13:44:41.812Z</time></trkpt><trkpt lat="45.8008324" lon="10.0521198"><ele>437.66666666666663</ele><time>2026-05-02T13:44:42.813Z</time></trkpt><trkpt lat="45.8008312" lon="10.0522136"><ele>436.5</ele><time>2026-05-02T13:44:43.813Z</time></trkpt><trkpt lat="45.8008404" lon="10.0523612"><ele>435.33333333333337</ele><time>2026-05-02T13:44:45.812Z</time></trkpt><trkpt lat="45.8008587" lon="10.0524648"><ele>434.1666666666667</ele><time>2026-05-02T13:44:48.812Z</time></trkpt><trkpt lat="45.8008915" lon="10.0525465"><ele>433.0</ele><time>2026-05-02T13:45:27.812Z</time></trkpt><trkpt lat="45.8009724" lon="10.0526035"><ele>430.79999999999995</ele><time>2026-05-02T13:45:29.812Z</time></trkpt><trkpt lat="45.8010435" lon="10.0526432"><ele>428.59999999999997</ele><time>2026-05-02T13:45:31.812Z</time></trkpt><trkpt lat="45.8011117" lon="10.0525944"><ele>426.4</ele><time>2026-05-02T13:45:33.812Z</time></trkpt><trkpt lat="45.801193" lon="10.0525129"><ele>424.20000000000005</ele><time>2026-05-02T13:45:35.812Z</time></trkpt><trkpt lat="45.8012917" lon="10.0524076"><ele>422.0</ele><time>2026-05-02T13:45:37.813Z</time></trkpt><trkpt lat="45.8013709" lon="10.0522712"><ele>421.20000000000005</ele><time>2026-05-02T13:45:39.812Z</time></trkpt><trkpt lat="45.801431" lon="10.0521664"><ele>420.4</ele><time>2026-05-02T13:45:41.813Z</time></trkpt><trkpt lat="45.8014868" lon="10.0520858"><ele>419.6</ele><time>2026-05-02T13:45:43.813Z</time></trkpt><trkpt lat="45.801548" lon="10.0519719"><ele>418.79999999999995</ele><time>2026-05-02T13:45:45.811Z</time></trkpt><trkpt lat="45.8016214" lon="10.0518666"><ele>418.0</ele><time>2026-05-02T13:45:47.812Z</time></trkpt><trkpt lat="45.8017131" lon="10.0517566"><ele>418.0</ele><time>2026-05-02T13:45:49.812Z</time></trkpt><trkpt lat="45.8018013" lon="10.051658"><ele>418.0</ele><time>2026-05-02T13:45:51.812Z</time></trkpt><trkpt lat="45.8018625" lon="10.0516291"><ele>418.0</ele><time>2026-05-02T13:45:52.811Z</time></trkpt><trkpt lat="45.8019733" lon="10.0515975"><ele>418.0</ele><time>2026-05-02T13:45:54.812Z</time></trkpt><trkpt lat="45.8020759" lon="10.0515751"><ele>418.0</ele><time>2026-05-02T13:45:56.811Z</time></trkpt><trkpt lat="45.8021414" lon="10.051555"><ele>414.0</ele><time>2026-05-02T13:45:57.812Z</time></trkpt><trkpt lat="45.8022422" lon="10.0515187"><ele>410.0</ele><time>2026-05-02T13:45:59.811Z</time></trkpt><trkpt lat="45.8023229" lon="10.0514991"><ele>406.0</ele><time>2026-05-02T13:46:01.811Z</time></trkpt><trkpt lat="45.8024056" lon="10.0514948"><ele>402.0</ele><time>2026-05-02T13:46:03.813Z</time></trkpt><trkpt lat="45.802507" lon="10.0515223"><ele>398.0</ele><time>2026-05-02T13:46:05.811Z</time></trkpt><trkpt lat="45.8026038" lon="10.0515494"><ele>393.2</ele><time>2026-05-02T13:46:07.812Z</time></trkpt><trkpt lat="45.8026751" lon="10.0516116"><ele>388.4</ele><time>2026-05-02T13:46:09.812Z</time></trkpt><trkpt lat="45.8027522" lon="10.0516798"><ele>383.59999999999997</ele><time>2026-05-02T13:46:11.813Z</time></trkpt><trkpt lat="45.8028092" lon="10.0517963"><ele>378.79999999999995</ele><time>2026-05-02T13:46:13.812Z</time></trkpt><trkpt lat="45.8028766" lon="10.0519294"><ele>374.0</ele><time>2026-05-02T13:46:15.811Z</time></trkpt><trkpt lat="45.8029163" lon="10.0520626"><ele>374.0</ele><time>2026-05-02T13:46:17.813Z</time></trkpt><trkpt lat="45.8029664" lon="10.0522034"><ele>374.0</ele><time>2026-05-02T13:46:19.811Z</time></trkpt><trkpt lat="45.803002" lon="10.0523083"><ele>374.0</ele><time>2026-05-02T13:46:20.812Z</time></trkpt><trkpt lat="45.8030314" lon="10.0523938"><ele>374.0</ele><time>2026-05-02T13:46:21.812Z</time></trkpt><trkpt lat="45.8030302" lon="10.0524992"><ele>374.0</ele><time>2026-05-02T13:46:22.813Z</time></trkpt><trkpt lat="45.8030453" lon="10.0525916"><ele>374.0</ele><time>2026-05-02T13:46:23.812Z</time></trkpt><trkpt lat="45.8030684" lon="10.0526787"><ele>374.5</ele><time>2026-05-02T13:46:24.812Z</time></trkpt><trkpt lat="45.8030856" lon="10.0527726"><ele>375.0</ele><time>2026-05-02T13:46:25.812Z</time></trkpt><trkpt lat="45.8030995" lon="10.0528728"><ele>375.5</ele><time>2026-05-02T13:46:26.812Z</time></trkpt><trkpt lat="45.8031105" lon="10.0529735"><ele>376.0</ele><time>2026-05-02T13:46:27.813Z</time></trkpt><trkpt lat="45.8031326" lon="10.0531237"><ele>376.5</ele><time>2026-05-02T13:46:29.812Z</time></trkpt><trkpt lat="45.8031463" lon="10.0532755"><ele>377.0</ele><time>2026-05-02T13:46:31.813Z</time></trkpt><trkpt lat="45.8031305" lon="10.0533687"><ele>377.0</ele><time>2026-05-02T13:46:32.813Z</time></trkpt><trkpt lat="45.8031176" lon="10.0534591"><ele>377.0</ele><time>2026-05-02T13:46:33.811Z</time></trkpt><trkpt lat="45.8030991" lon="10.0536233"><ele>377.0</ele><time>2026-05-02T13:46:35.811Z</time></trkpt><trkpt lat="45.8031156" lon="10.0537467"><ele>377.0</ele><time>2026-05-02T13:46:37.812Z</time></trkpt><trkpt lat="45.8031656" lon="10.0538791"><ele>377.0</ele><time>2026-05-02T13:46:40.811Z</time></trkpt><trkpt lat="45.8032477" lon="10.0540546"><ele>377.8</ele><time>2026-05-02T13:46:42.813Z</time></trkpt><trkpt lat="45.8033245" lon="10.0541816"><ele>378.6</ele><time>2026-05-02T13:46:44.813Z</time></trkpt><trkpt lat="45.8033855" lon="10.054226"><ele>379.40000000000003</ele><time>2026-05-02T13:46:45.812Z</time></trkpt><trkpt lat="45.8034447" lon="10.0542934"><ele>380.20000000000005</ele><time>2026-05-02T13:46:46.811Z</time></trkpt><trkpt lat="45.803548" lon="10.0543965"><ele>381.0</ele><time>2026-05-02T13:46:48.813Z</time></trkpt><trkpt lat="45.8036015" lon="10.054448"><ele>377.0</ele><time>2026-05-02T13:46:49.812Z</time></trkpt><trkpt lat="45.8036548" lon="10.0545191"><ele>373.0</ele><time>2026-05-02T13:46:50.811Z</time></trkpt><trkpt lat="45.8037079" lon="10.054571"><ele>369.0</ele><time>2026-05-02T13:46:51.812Z</time></trkpt><trkpt lat="45.8038036" lon="10.0546602"><ele>365.0</ele><time>2026-05-02T13:46:53.812Z</time></trkpt><trkpt lat="45.8038864" lon="10.0547903"><ele>361.0</ele><time>2026-05-02T13:46:55.812Z</time></trkpt><trkpt lat="45.803987" lon="10.0548641"><ele>361.0</ele><time>2026-05-02T13:46:57.813Z</time></trkpt><trkpt lat="45.804051" lon="10.0549059"><ele>361.0</ele><time>2026-05-02T13:46:59.811Z</time></trkpt><trkpt lat="45.8041278" lon="10.0549446"><ele>361.0</ele><time>2026-05-02T13:47:01.812Z</time></trkpt><trkpt lat="45.8041943" lon="10.0549382"><ele>361.0</ele><time>2026-05-02T13:47:03.811Z</time></trkpt><trkpt lat="45.804242" lon="10.0550103"><ele>361.0</ele><time>2026-05-02T13:47:05.813Z</time></trkpt><trkpt lat="45.8042691" lon="10.0550993"><ele>361.0</ele><time>2026-05-02T13:47:07.813Z</time></trkpt><trkpt lat="45.8043245" lon="10.055183"><ele>361.0</ele><time>2026-05-02T13:47:10.812Z</time></trkpt><trkpt lat="45.8043756" lon="10.0552771"><ele>360.5</ele><time>2026-05-02T13:47:14.811Z</time></trkpt><trkpt lat="45.8044284" lon="10.0553485"><ele>360.0</ele><time>2026-05-02T13:47:17.812Z</time></trkpt><trkpt lat="45.8044599" lon="10.0554568"><ele>359.5</ele><time>2026-05-02T13:47:20.811Z</time></trkpt><trkpt lat="45.8045459" lon="10.0555036"><ele>359.0</ele><time>2026-05-02T13:47:21.813Z</time></trkpt><trkpt lat="45.8046228" lon="10.0556022"><ele>358.5</ele><time>2026-05-02T13:47:23.811Z</time></trkpt><trkpt lat="45.8046787" lon="10.0557029"><ele>358.0</ele><time>2026-05-02T13:47:25.812Z</time></trkpt><trkpt lat="45.8047775" lon="10.0557912"><ele>358.0</ele><time>2026-05-02T13:47:27.812Z</time></trkpt><trkpt lat="45.8048876" lon="10.0558317"><ele>358.0</ele><time>2026-05-02T13:47:29.812Z</time></trkpt><trkpt lat="45.8049877" lon="10.0558784"><ele>358.0</ele><time>2026-05-02T13:47:31.812Z</time></trkpt><trkpt lat="45.8050879" lon="10.0559101"><ele>358.0</ele><time>2026-05-02T13:47:33.812Z</time></trkpt><trkpt lat="45.8051776" lon="10.0559107"><ele>358.0</ele><time>2026-05-02T13:47:35.811Z</time></trkpt><trkpt lat="45.8052577" lon="10.0558901"><ele>358.0</ele><time>2026-05-02T13:47:37.812Z</time></trkpt><trkpt lat="45.8053134" lon="10.0558255"><ele>358.0</ele><time>2026-05-02T13:47:39.812Z</time></trkpt><trkpt lat="45.8053611" lon="10.0556973"><ele>358.0</ele><time>2026-05-02T13:47:40.811Z</time></trkpt><trkpt lat="45.8054024" lon="10.0555592"><ele>358.0</ele><time>2026-05-02T13:47:41.811Z</time></trkpt><trkpt lat="45.8054376" lon="10.0554195"><ele>358.0</ele><time>2026-05-02T13:47:42.812Z</time></trkpt><trkpt lat="45.8054675" lon="10.0553052"><ele>358.0</ele><time>2026-05-02T13:47:43.813Z</time></trkpt><trkpt lat="45.8054998" lon="10.0552186"><ele>358.0</ele><time>2026-05-02T13:47:44.812Z</time></trkpt><trkpt lat="45.8055357" lon="10.0551349"><ele>358.0</ele><time>2026-05-02T13:47:45.813Z</time></trkpt><trkpt lat="45.8055562" lon="10.0550333"><ele>358.0</ele><time>2026-05-02T13:47:46.812Z</time></trkpt><trkpt lat="45.8055837" lon="10.0549424"><ele>358.0</ele><time>2026-05-02T13:47:47.812Z</time></trkpt><trkpt lat="45.8056083" lon="10.0548371"><ele>358.0</ele><time>2026-05-02T13:47:48.813Z</time></trkpt><trkpt lat="45.8056263" lon="10.0546557"><ele>358.0</ele><time>2026-05-02T13:47:50.812Z</time></trkpt><trkpt lat="45.8056768" lon="10.0545035"><ele>358.0</ele><time>2026-05-02T13:47:52.811Z</time></trkpt><trkpt lat="45.8057074" lon="10.0544061"><ele>358.0</ele><time>2026-05-02T13:47:54.811Z</time></trkpt><trkpt lat="45.8057547" lon="10.0542649"><ele>358.0</ele><time>2026-05-02T13:47:56.812Z</time></trkpt><trkpt lat="45.8057697" lon="10.0541298"><ele>358.0</ele><time>2026-05-02T13:47:58.812Z</time></trkpt><trkpt lat="45.8057075" lon="10.0540294"><ele>356.0</ele><time>2026-05-02T13:48:00.812Z</time></trkpt><trkpt lat="45.8056289" lon="10.0539872"><ele>354.0</ele><time>2026-05-02T13:48:02.811Z</time></trkpt><trkpt lat="45.805565" lon="10.0539958"><ele>352.0</ele><time>2026-05-02T13:48:03.812Z</time></trkpt><trkpt lat="45.8055005" lon="10.054014"><ele>350.0</ele><time>2026-05-02T13:48:04.812Z</time></trkpt><trkpt lat="45.8053878" lon="10.0540115"><ele>348.0</ele><time>2026-05-02T13:48:06.812Z</time></trkpt><trkpt lat="45.8053109" lon="10.0539977"><ele>346.0</ele><time>2026-05-02T13:48:07.812Z</time></trkpt><trkpt lat="45.8052284" lon="10.0539908"><ele>343.8</ele><time>2026-05-02T13:48:08.812Z</time></trkpt><trkpt lat="45.8051202" lon="10.0539734"><ele>341.6</ele><time>2026-05-02T13:48:09.811Z</time></trkpt><trkpt lat="45.8050134" lon="10.0539521"><ele>339.4</ele><time>2026-05-02T13:48:10.811Z</time></trkpt><trkpt lat="45.8049102" lon="10.0539206"><ele>337.2</ele><time>2026-05-02T13:48:11.811Z</time></trkpt><trkpt lat="45.8048099" lon="10.0539001"><ele>335.0</ele><time>2026-05-02T13:48:12.813Z</time></trkpt><trkpt lat="45.804748" lon="10.0538788"><ele>335.0</ele><time>2026-05-02T13:48:13.813Z</time></trkpt><trkpt lat="45.8046683" lon="10.0538427"><ele>335.0</ele><time>2026-05-02T13:48:15.813Z</time></trkpt><trkpt lat="45.8045637" lon="10.0538702"><ele>335.0</ele><time>2026-05-02T13:48:17.813Z</time></trkpt><trkpt lat="45.8044583" lon="10.053865"><ele>335.0</ele><time>2026-05-02T13:48:19.812Z</time></trkpt><trkpt lat="45.8043868" lon="10.0538129"><ele>335.0</ele><time>2026-05-02T13:48:20.812Z</time></trkpt><trkpt lat="45.8043165" lon="10.0537259"><ele>336.4</ele><time>2026-05-02T13:48:21.811Z</time></trkpt><trkpt lat="45.804249" lon="10.0536568"><ele>337.8</ele><time>2026-05-02T13:48:22.813Z</time></trkpt><trkpt lat="45.8041906" lon="10.0535771"><ele>339.20000000000005</ele><time>2026-05-02T13:48:23.813Z</time></trkpt><trkpt lat="45.8041494" lon="10.053494"><ele>340.6</ele><time>2026-05-02T13:48:24.812Z</time></trkpt><trkpt lat="45.8041393" lon="10.0533728"><ele>342.0</ele><time>2026-05-02T13:48:25.813Z</time></trkpt><trkpt lat="45.8041522" lon="10.0531806"><ele>342.0</ele><time>2026-05-02T13:48:27.811Z</time></trkpt><trkpt lat="45.8042006" lon="10.0530341"><ele>342.0</ele><time>2026-05-02T13:48:29.812Z</time></trkpt><trkpt lat="45.804264" lon="10.0529744"><ele>342.0</ele><time>2026-05-02T13:48:31.812Z</time></trkpt><trkpt lat="45.8043353" lon="10.0529836"><ele>342.0</ele><time>2026-05-02T13:48:33.811Z</time></trkpt><trkpt lat="45.8043956" lon="10.05303"><ele>342.0</ele><time>2026-05-02T13:48:36.812Z</time></trkpt><trkpt lat="45.8044451" lon="10.0530901"><ele>342.0</ele><time>2026-05-02T13:48:38.813Z</time></trkpt><trkpt lat="45.8045064" lon="10.0531612"><ele>338.5</ele><time>2026-05-02T13:48:39.813Z</time></trkpt><trkpt lat="45.8046063" lon="10.0531856"><ele>335.0</ele><time>2026-05-02T13:48:41.812Z</time></trkpt><trkpt lat="45.8047021" lon="10.0530787"><ele>331.5</ele><time>2026-05-02T13:48:43.812Z</time></trkpt><trkpt lat="45.8047597" lon="10.0530255"><ele>328.0</ele><time>2026-05-02T13:48:44.812Z</time></trkpt><trkpt lat="45.8048214" lon="10.0529792"><ele>324.5</ele><time>2026-05-02T13:48:45.813Z</time></trkpt><trkpt lat="45.8048794" lon="10.052932"><ele>321.0</ele><time>2026-05-02T13:48:46.812Z</time></trkpt><trkpt lat="45.8049341" lon="10.0528817"><ele>321.0</ele><time>2026-05-02T13:48:47.812Z</time></trkpt><trkpt lat="45.8050302" lon="10.05278"><ele>321.0</ele><time>2026-05-02T13:48:49.812Z</time></trkpt><trkpt lat="45.805076" lon="10.052717"><ele>321.0</ele><time>2026-05-02T13:48:50.813Z</time></trkpt><trkpt lat="45.8051179" lon="10.0525569"><ele>321.0</ele><time>2026-05-02T13:48:52.81Z</time></trkpt><trkpt lat="45.8050978" lon="10.0524297"><ele>321.0</ele><time>2026-05-02T13:48:53.812Z</time></trkpt><trkpt lat="45.8050812" lon="10.0523044"><ele>319.4285714285714</ele><time>2026-05-02T13:48:54.813Z</time></trkpt><trkpt lat="45.8050848" lon="10.0521742"><ele>317.85714285714283</ele><time>2026-05-02T13:48:55.811Z</time></trkpt><trkpt lat="45.8050927" lon="10.0520636"><ele>316.2857142857143</ele><time>2026-05-02T13:48:56.811Z</time></trkpt><trkpt lat="45.8051159" lon="10.051969"><ele>314.71428571428567</ele><time>2026-05-02T13:48:57.812Z</time></trkpt><trkpt lat="45.8051528" lon="10.051889"><ele>313.1428571428571</ele><time>2026-05-02T13:48:58.813Z</time></trkpt><trkpt lat="45.8052172" lon="10.0518353"><ele>311.57142857142856</ele><time>2026-05-02T13:48:59.812Z</time></trkpt><trkpt lat="45.8052839" lon="10.0518126"><ele>310.0</ele><time>2026-05-02T13:49:00.812Z</time></trkpt><trkpt lat="45.8053512" lon="10.0517654"><ele>309.8333333333333</ele><time>2026-05-02T13:49:01.812Z</time></trkpt><trkpt lat="45.8054047" lon="10.051706"><ele>309.66666666666663</ele><time>2026-05-02T13:49:02.812Z</time></trkpt><trkpt lat="45.8054557" lon="10.0516399"><ele>309.5</ele><time>2026-05-02T13:49:03.811Z</time></trkpt><trkpt lat="45.8055135" lon="10.0515897"><ele>309.3333333333333</ele><time>2026-05-02T13:49:04.812Z</time></trkpt><trkpt lat="45.8055849" lon="10.0516366"><ele>309.1666666666667</ele><time>2026-05-02T13:49:05.811Z</time></trkpt><trkpt lat="45.8057105" lon="10.0516456"><ele>309.0</ele><time>2026-05-02T13:49:07.811Z</time></trkpt><trkpt lat="45.8057728" lon="10.0515852"><ele>306.5</ele><time>2026-05-02T13:49:08.811Z</time></trkpt><trkpt lat="45.805855" lon="10.051531"><ele>304.0</ele><time>2026-05-02T13:49:09.811Z</time></trkpt><trkpt lat="45.8059262" lon="10.0514475"><ele>301.5</ele><time>2026-05-02T13:49:10.812Z</time></trkpt><trkpt lat="45.8059753" lon="10.0513577"><ele>299.0</ele><time>2026-05-02T13:49:11.813Z</time></trkpt><trkpt lat="45.8060229" lon="10.0512621"><ele>296.5</ele><time>2026-05-02T13:49:12.812Z</time></trkpt><trkpt lat="45.8060922" lon="10.0512052"><ele>294.0</ele><time>2026-05-02T13:49:13.812Z</time></trkpt><trkpt lat="45.8061444" lon="10.0511266"><ele>294.0</ele><time>2026-05-02T13:49:14.811Z</time></trkpt><trkpt lat="45.8062047" lon="10.0510645"><ele>294.0</ele><time>2026-05-02T13:49:15.813Z</time></trkpt><trkpt lat="45.8062716" lon="10.0510086"><ele>294.0</ele><time>2026-05-02T13:49:16.812Z</time></trkpt><trkpt lat="45.806344" lon="10.0509667"><ele>294.0</ele><time>2026-05-02T13:49:17.812Z</time></trkpt><trkpt lat="45.8064137" lon="10.0509225"><ele>294.0</ele><time>2026-05-02T13:49:18.811Z</time></trkpt><trkpt lat="45.8064877" lon="10.0508781"><ele>294.0</ele><time>2026-05-02T13:49:19.811Z</time></trkpt><trkpt lat="45.8065524" lon="10.0508392"><ele>293.7142857142857</ele><time>2026-05-02T13:49:20.813Z</time></trkpt><trkpt lat="45.8066105" lon="10.0507893"><ele>293.42857142857144</ele><time>2026-05-02T13:49:21.812Z</time></trkpt><trkpt lat="45.8066722" lon="10.0507292"><ele>293.1428571428571</ele><time>2026-05-02T13:49:22.813Z</time></trkpt><trkpt lat="45.8067303" lon="10.0506747"><ele>292.8571428571429</ele><time>2026-05-02T13:49:23.813Z</time></trkpt><trkpt lat="45.8067832" lon="10.0506064"><ele>292.57142857142856</ele><time>2026-05-02T13:49:24.813Z</time></trkpt><trkpt lat="45.8068203" lon="10.0505148"><ele>292.2857142857143</ele><time>2026-05-02T13:49:25.812Z</time></trkpt><trkpt lat="45.8068438" lon="10.0504223"><ele>292.0</ele><time>2026-05-02T13:49:26.812Z</time></trkpt><trkpt lat="45.8068518" lon="10.0502551"><ele>292.0</ele><time>2026-05-02T13:49:28.813Z</time></trkpt><trkpt lat="45.8068266" lon="10.050123"><ele>292.0</ele><time>2026-05-02T13:49:30.812Z</time></trkpt><trkpt lat="45.8067647" lon="10.0500692"><ele>292.0</ele><time>2026-05-02T13:49:31.812Z</time></trkpt><trkpt lat="45.8067008" lon="10.0500025"><ele>292.0</ele><time>2026-05-02T13:49:32.812Z</time></trkpt><trkpt lat="45.8066159" lon="10.0499476"><ele>292.0</ele><time>2026-05-02T13:49:33.811Z</time></trkpt><trkpt lat="45.8065242" lon="10.0498839"><ele>292.0</ele><time>2026-05-02T13:49:34.812Z</time></trkpt><trkpt lat="45.8064532" lon="10.0497827"><ele>295.3333333333333</ele><time>2026-05-02T13:49:35.812Z</time></trkpt><trkpt lat="45.8063946" lon="10.0496831"><ele>298.66666666666663</ele><time>2026-05-02T13:49:36.813Z</time></trkpt><trkpt lat="45.8063508" lon="10.0495659"><ele>302.0</ele><time>2026-05-02T13:49:37.811Z</time></trkpt><trkpt lat="45.8063223" lon="10.0494484"><ele>305.3333333333333</ele><time>2026-05-02T13:49:38.811Z</time></trkpt><trkpt lat="45.8063018" lon="10.0493397"><ele>308.6666666666667</ele><time>2026-05-02T13:49:39.812Z</time></trkpt><trkpt lat="45.8062866" lon="10.0492174"><ele>312.0</ele><time>2026-05-02T13:49:40.813Z</time></trkpt><trkpt lat="45.8062699" lon="10.0491084"><ele>313.7142857142857</ele><time>2026-05-02T13:49:41.812Z</time></trkpt><trkpt lat="45.8062575" lon="10.049002"><ele>315.4285714285714</ele><time>2026-05-02T13:49:42.813Z</time></trkpt><trkpt lat="45.8062505" lon="10.0488917"><ele>317.1428571428571</ele><time>2026-05-02T13:49:43.813Z</time></trkpt><trkpt lat="45.8062416" lon="10.048795"><ele>318.8571428571429</ele><time>2026-05-02T13:49:44.813Z</time></trkpt><trkpt lat="45.8062314" lon="10.048688"><ele>320.57142857142856</ele><time>2026-05-02T13:49:45.812Z</time></trkpt><trkpt lat="45.8062289" lon="10.0485868"><ele>322.2857142857143</ele><time>2026-05-02T13:49:46.813Z</time></trkpt><trkpt lat="45.8062316" lon="10.0484684"><ele>324.0</ele><time>2026-05-02T13:49:47.813Z</time></trkpt><trkpt lat="45.8062372" lon="10.0483681"><ele>323.4</ele><time>2026-05-02T13:49:48.812Z</time></trkpt><trkpt lat="45.8062503" lon="10.0482686"><ele>322.79999999999995</ele><time>2026-05-02T13:49:49.813Z</time></trkpt><trkpt lat="45.8062662" lon="10.0481716"><ele>322.20000000000005</ele><time>2026-05-02T13:49:50.811Z</time></trkpt><trkpt lat="45.8062611" lon="10.0480118"><ele>321.6</ele><time>2026-05-02T13:49:52.811Z</time></trkpt><trkpt lat="45.8061255" lon="10.0479448"><ele>321.0</ele><time>2026-05-02T13:49:54.812Z</time></trkpt><trkpt lat="45.8060334" lon="10.047933"><ele>316.0</ele><time>2026-05-02T13:49:55.812Z</time></trkpt><trkpt lat="45.8059359" lon="10.0479315"><ele>311.0</ele><time>2026-05-02T13:49:56.813Z</time></trkpt><trkpt lat="45.805842" lon="10.0479443"><ele>306.0</ele><time>2026-05-02T13:49:57.813Z</time></trkpt><trkpt lat="45.8057575" lon="10.047966"><ele>301.0</ele><time>2026-05-02T13:49:58.813Z</time></trkpt><trkpt lat="45.8056874" lon="10.0479465"><ele>296.0</ele><time>2026-05-02T13:49:59.812Z</time></trkpt><trkpt lat="45.8056154" lon="10.0479051"><ele>291.0</ele><time>2026-05-02T13:50:00.813Z</time></trkpt><trkpt lat="45.8055539" lon="10.0478478"><ele>291.0</ele><time>2026-05-02T13:50:01.812Z</time></trkpt><trkpt lat="45.8055092" lon="10.0477336"><ele>291.0</ele><time>2026-05-02T13:50:02.812Z</time></trkpt><trkpt lat="45.8054742" lon="10.0475955"><ele>291.0</ele><time>2026-05-02T13:50:03.812Z</time></trkpt><trkpt lat="45.8054541" lon="10.0473881"><ele>291.0</ele><time>2026-05-02T13:50:04.812Z</time></trkpt><trkpt lat="45.8054245" lon="10.0471934"><ele>291.3333333333333</ele><time>2026-05-02T13:50:05.81Z</time></trkpt><trkpt lat="45.8053965" lon="10.0469794"><ele>291.66666666666663</ele><time>2026-05-02T13:50:06.812Z</time></trkpt><trkpt lat="45.8053723" lon="10.046735"><ele>292.0</ele><time>2026-05-02T13:50:07.812Z</time></trkpt><trkpt lat="45.8053462" lon="10.0465045"><ele>292.0</ele><time>2026-05-02T13:50:08.812Z</time></trkpt><trkpt lat="45.8053255" lon="10.0462933"><ele>292.0</ele><time>2026-05-02T13:50:09.813Z</time></trkpt><trkpt lat="45.8053176" lon="10.0460857"><ele>292.0</ele><time>2026-05-02T13:50:10.813Z</time></trkpt><trkpt lat="45.8053262" lon="10.0458634"><ele>292.0</ele><time>2026-05-02T13:50:11.811Z</time></trkpt><trkpt lat="45.8053431" lon="10.0456195"><ele>292.0</ele><time>2026-05-02T13:50:12.81Z</time></trkpt><trkpt lat="45.8053574" lon="10.0453842"><ele>292.0</ele><time>2026-05-02T13:50:13.811Z</time></trkpt><trkpt lat="45.8053587" lon="10.0451505"><ele>292.0</ele><time>2026-05-02T13:50:14.812Z</time></trkpt><trkpt lat="45.8053545" lon="10.0449706"><ele>292.8</ele><time>2026-05-02T13:50:15.811Z</time></trkpt><trkpt lat="45.8053498" lon="10.0448338"><ele>293.6</ele><time>2026-05-02T13:50:16.811Z</time></trkpt><trkpt lat="45.8053785" lon="10.0447161"><ele>294.40000000000003</ele><time>2026-05-02T13:50:17.812Z</time></trkpt><trkpt lat="45.8054369" lon="10.0446112"><ele>295.2</ele><time>2026-05-02T13:50:18.812Z</time></trkpt><trkpt lat="45.8055084" lon="10.0445043"><ele>296.0</ele><time>2026-05-02T13:50:19.812Z</time></trkpt><trkpt lat="45.8055991" lon="10.0444001"><ele>296.0</ele><time>2026-05-02T13:50:20.811Z</time></trkpt><trkpt lat="45.8057112" lon="10.0442901"><ele>296.0</ele><time>2026-05-02T13:50:21.812Z</time></trkpt><trkpt lat="45.8058154" lon="10.0441587"><ele>296.0</ele><time>2026-05-02T13:50:22.812Z</time></trkpt><trkpt lat="45.8059123" lon="10.044016"><ele>296.0</ele><time>2026-05-02T13:50:23.813Z</time></trkpt><trkpt lat="45.8059706" lon="10.0438382"><ele>295.25</ele><time>2026-05-02T13:50:24.811Z</time></trkpt><trkpt lat="45.8060102" lon="10.0436522"><ele>294.5</ele><time>2026-05-02T13:50:25.812Z</time></trkpt><trkpt lat="45.8060302" lon="10.0434335"><ele>293.75</ele><time>2026-05-02T13:50:26.812Z</time></trkpt><trkpt lat="45.8060542" lon="10.0432287"><ele>293.0</ele><time>2026-05-02T13:50:27.811Z</time></trkpt><trkpt lat="45.8060851" lon="10.0430627"><ele>293.0</ele><time>2026-05-02T13:50:28.813Z</time></trkpt><trkpt lat="45.8061352" lon="10.0429099"><ele>293.0</ele><time>2026-05-02T13:50:29.812Z</time></trkpt><trkpt lat="45.8061962" lon="10.0427706"><ele>293.0</ele><time>2026-05-02T13:50:30.812Z</time></trkpt><trkpt lat="45.80625" lon="10.0426823"><ele>293.0</ele><time>2026-05-02T13:50:31.811Z</time></trkpt><trkpt lat="45.806299" lon="10.0425864"><ele>293.0</ele><time>2026-05-02T13:50:32.812Z</time></trkpt><trkpt lat="45.8063485" lon="10.0424544"><ele>293.33333333333337</ele><time>2026-05-02T13:50:34.812Z</time></trkpt><trkpt lat="45.8063743" lon="10.0423435"><ele>293.6666666666667</ele><time>2026-05-02T13:50:36.811Z</time></trkpt><trkpt lat="45.8064088" lon="10.0422418"><ele>294.0</ele><time>2026-05-02T13:50:38.813Z</time></trkpt><trkpt lat="45.8064564" lon="10.042137"><ele>294.3333333333333</ele><time>2026-05-02T13:50:40.812Z</time></trkpt><trkpt lat="45.8065126" lon="10.0420307"><ele>294.66666666666663</ele><time>2026-05-02T13:50:42.813Z</time></trkpt><trkpt lat="45.8065671" lon="10.0419517"><ele>295.0</ele><time>2026-05-02T13:50:43.812Z</time></trkpt><trkpt lat="45.8066419" lon="10.0418653"><ele>295.0</ele><time>2026-05-02T13:50:44.812Z</time></trkpt><trkpt lat="45.8067348" lon="10.0417841"><ele>295.0</ele><time>2026-05-02T13:50:45.811Z</time></trkpt><trkpt lat="45.8068346" lon="10.0416944"><ele>295.0</ele><time>2026-05-02T13:50:46.813Z</time></trkpt><trkpt lat="45.8069439" lon="10.0415867"><ele>295.0</ele><time>2026-05-02T13:50:47.811Z</time></trkpt><trkpt lat="45.8070428" lon="10.0414793"><ele>294.0</ele><time>2026-05-02T13:50:48.811Z</time></trkpt><trkpt lat="45.8071412" lon="10.0414074"><ele>293.0</ele><time>2026-05-02T13:50:49.811Z</time></trkpt><trkpt lat="45.8072557" lon="10.0413676"><ele>292.0</ele><time>2026-05-02T13:50:50.811Z</time></trkpt><trkpt lat="45.8073885" lon="10.0413784"><ele>291.0</ele><time>2026-05-02T13:50:51.813Z</time></trkpt><trkpt lat="45.8075169" lon="10.0414047"><ele>291.0</ele><time>2026-05-02T13:50:52.813Z</time></trkpt><trkpt lat="45.8076438" lon="10.041384"><ele>291.0</ele><time>2026-05-02T13:50:53.812Z</time></trkpt><trkpt lat="45.8077749" lon="10.0413384"><ele>291.0</ele><time>2026-05-02T13:50:54.812Z</time></trkpt><trkpt lat="45.807889" lon="10.0412493"><ele>291.0</ele><time>2026-05-02T13:50:55.812Z</time></trkpt><trkpt lat="45.8079856" lon="10.0411896"><ele>291.8333333333333</ele><time>2026-05-02T13:50:56.812Z</time></trkpt><trkpt lat="45.8080583" lon="10.0411661"><ele>292.6666666666667</ele><time>2026-05-02T13:50:57.812Z</time></trkpt><trkpt lat="45.808125" lon="10.0411624"><ele>293.5</ele><time>2026-05-02T13:50:58.81Z</time></trkpt><trkpt lat="45.8081915" lon="10.0412012"><ele>294.33333333333337</ele><time>2026-05-02T13:51:00.813Z</time></trkpt><trkpt lat="45.808278" lon="10.0412712"><ele>295.1666666666667</ele><time>2026-05-02T13:51:09.811Z</time></trkpt><trkpt lat="45.8083494" lon="10.0413145"><ele>296.0</ele><time>2026-05-02T13:51:11.813Z</time></trkpt><trkpt lat="45.8084239" lon="10.0413571"><ele>296.33333333333337</ele><time>2026-05-02T13:51:13.811Z</time></trkpt><trkpt lat="45.8085113" lon="10.0413841"><ele>296.6666666666667</ele><time>2026-05-02T13:51:16.811Z</time></trkpt><trkpt lat="45.8085833" lon="10.0414073"><ele>297.0</ele><time>2026-05-02T13:51:19.812Z</time></trkpt><trkpt lat="45.8086447" lon="10.0414546"><ele>297.3333333333333</ele><time>2026-05-02T13:51:21.813Z</time></trkpt><trkpt lat="45.8087086" lon="10.0414958"><ele>297.66666666666663</ele><time>2026-05-02T13:51:24.811Z</time></trkpt><trkpt lat="45.8087713" lon="10.0415217"><ele>298.0</ele><time>2026-05-02T13:51:28.813Z</time></trkpt><trkpt lat="45.8088824" lon="10.0415727"><ele>298.0</ele><time>2026-05-02T13:52:23.812Z</time></trkpt><trkpt lat="45.8089795" lon="10.041605"><ele>298.0</ele><time>2026-05-02T13:52:24.812Z</time></trkpt><trkpt lat="45.8090912" lon="10.0416349"><ele>298.0</ele><time>2026-05-02T13:52:25.812Z</time></trkpt><trkpt lat="45.809214" lon="10.041667"><ele>298.0</ele><time>2026-05-02T13:52:26.812Z</time></trkpt><trkpt lat="45.8093251" lon="10.0416952"><ele>298.8333333333333</ele><time>2026-05-02T13:52:27.812Z</time></trkpt><trkpt lat="45.809438" lon="10.0417249"><ele>299.66666666666663</ele><time>2026-05-02T13:52:28.813Z</time></trkpt><trkpt lat="45.8095315" lon="10.0417519"><ele>300.5</ele><time>2026-05-02T13:52:29.812Z</time></trkpt><trkpt lat="45.809612" lon="10.0417486"><ele>301.3333333333333</ele><time>2026-05-02T13:52:30.812Z</time></trkpt><trkpt lat="45.8096545" lon="10.0416746"><ele>302.1666666666667</ele><time>2026-05-02T13:52:31.812Z</time></trkpt><trkpt lat="45.8096816" lon="10.0415705"><ele>303.0</ele><time>2026-05-02T13:52:32.813Z</time></trkpt><trkpt lat="45.8096829" lon="10.041456"><ele>303.0</ele><time>2026-05-02T13:52:33.811Z</time></trkpt><trkpt lat="45.8096853" lon="10.0413173"><ele>303.0</ele><time>2026-05-02T13:52:34.813Z</time></trkpt><trkpt lat="45.8096896" lon="10.0411737"><ele>303.0</ele><time>2026-05-02T13:52:35.812Z</time></trkpt><trkpt lat="45.8096944" lon="10.041048"><ele>303.0</ele><time>2026-05-02T13:52:36.812Z</time></trkpt><trkpt lat="45.8097005" lon="10.0409314"><ele>303.0</ele><time>2026-05-02T13:52:37.812Z</time></trkpt><trkpt lat="45.8097052" lon="10.0408372"><ele>303.0</ele><time>2026-05-02T13:52:38.812Z</time></trkpt><trkpt lat="45.8097511" lon="10.0407062"><ele>304.6</ele><time>2026-05-02T13:52:40.812Z</time></trkpt><trkpt lat="45.8098899" lon="10.0406472"><ele>306.20000000000005</ele><time>2026-05-02T13:52:42.811Z</time></trkpt><trkpt lat="45.809981" lon="10.0406573"><ele>307.8</ele><time>2026-05-02T13:52:43.813Z</time></trkpt><trkpt lat="45.8100717" lon="10.040648"><ele>309.40000000000003</ele><time>2026-05-02T13:52:44.812Z</time></trkpt><trkpt lat="45.8101725" lon="10.0406408"><ele>311.0</ele><time>2026-05-02T13:52:45.812Z</time></trkpt><trkpt lat="45.8102598" lon="10.0406243"><ele>312.6666666666667</ele><time>2026-05-02T13:52:46.812Z</time></trkpt><trkpt lat="45.8103343" lon="10.0406116"><ele>314.33333333333337</ele><time>2026-05-02T13:52:47.812Z</time></trkpt><trkpt lat="45.8104188" lon="10.0405929"><ele>316.0</ele><time>2026-05-02T13:52:49.813Z</time></trkpt><trkpt lat="45.810457" lon="10.040459"><ele>317.6666666666667</ele><time>2026-05-02T13:52:52.811Z</time></trkpt><trkpt lat="45.8104431" lon="10.0403609"><ele>319.3333333333333</ele><time>2026-05-02T13:52:53.812Z</time></trkpt><trkpt lat="45.8104614" lon="10.0401933"><ele>321.0</ele><time>2026-05-02T13:52:55.813Z</time></trkpt><trkpt lat="45.8105353" lon="10.0401617"><ele>321.0</ele><time>2026-05-02T13:52:56.811Z</time></trkpt><trkpt lat="45.8106202" lon="10.0401439"><ele>321.0</ele><time>2026-05-02T13:52:57.811Z</time></trkpt><trkpt lat="45.8107135" lon="10.0401236"><ele>321.0</ele><time>2026-05-02T13:52:58.813Z</time></trkpt><trkpt lat="45.8108086" lon="10.0401073"><ele>321.0</ele><time>2026-05-02T13:52:59.811Z</time></trkpt><trkpt lat="45.810906" lon="10.0401049"><ele>321.0</ele><time>2026-05-02T13:53:00.812Z</time></trkpt><trkpt lat="45.8110021" lon="10.040086"><ele>322.4</ele><time>2026-05-02T13:53:01.812Z</time></trkpt><trkpt lat="45.811102" lon="10.0400758"><ele>323.8</ele><time>2026-05-02T13:53:02.811Z</time></trkpt><trkpt lat="45.8112121" lon="10.0400634"><ele>325.2</ele><time>2026-05-02T13:53:03.812Z</time></trkpt><trkpt lat="45.8113151" lon="10.0400537"><ele>326.59999999999997</ele><time>2026-05-02T13:53:04.813Z</time></trkpt><trkpt lat="45.8114119" lon="10.0400382"><ele>328.0</ele><time>2026-05-02T13:53:05.812Z</time></trkpt><trkpt lat="45.8114982" lon="10.0400376"><ele>328.0</ele><time>2026-05-02T13:53:06.813Z</time></trkpt><trkpt lat="45.8115776" lon="10.0400483"><ele>328.0</ele><time>2026-05-02T13:53:07.811Z</time></trkpt><trkpt lat="45.8116404" lon="10.0400618"><ele>328.0</ele><time>2026-05-02T13:53:08.813Z</time></trkpt><trkpt lat="45.8117299" lon="10.0401923"><ele>328.0</ele><time>2026-05-02T13:53:10.812Z</time></trkpt><trkpt lat="45.8117693" lon="10.040294"><ele>328.0</ele><time>2026-05-02T13:53:11.811Z</time></trkpt><trkpt lat="45.8117892" lon="10.0404324"><ele>328.0</ele><time>2026-05-02T13:53:12.811Z</time></trkpt><trkpt lat="45.8118086" lon="10.0405684"><ele>328.0</ele><time>2026-05-02T13:53:13.813Z</time></trkpt><trkpt lat="45.8118081" lon="10.0407123"><ele>328.0</ele><time>2026-05-02T13:53:14.811Z</time></trkpt><trkpt lat="45.8118101" lon="10.0408542"><ele>328.0</ele><time>2026-05-02T13:53:15.812Z</time></trkpt><trkpt lat="45.8118081" lon="10.0409808"><ele>328.0</ele><time>2026-05-02T13:53:16.813Z</time></trkpt><trkpt lat="45.8118087" lon="10.0410913"><ele>327.79999999999995</ele><time>2026-05-02T13:53:17.812Z</time></trkpt><trkpt lat="45.811804" lon="10.0411907"><ele>327.6</ele><time>2026-05-02T13:53:18.812Z</time></trkpt><trkpt lat="45.8118294" lon="10.0413226"><ele>327.4</ele><time>2026-05-02T13:53:20.811Z</time></trkpt><trkpt lat="45.8119496" lon="10.0412808"><ele>327.20000000000005</ele><time>2026-05-02T13:53:22.812Z</time></trkpt><trkpt lat="45.8120201" lon="10.0412228"><ele>327.0</ele><time>2026-05-02T13:53:23.812Z</time></trkpt><trkpt lat="45.8120934" lon="10.0411465"><ele>328.75</ele><time>2026-05-02T13:53:24.811Z</time></trkpt><trkpt lat="45.8121712" lon="10.0409993"><ele>330.5</ele><time>2026-05-02T13:53:25.811Z</time></trkpt><trkpt lat="45.812239" lon="10.0408856"><ele>332.25</ele><time>2026-05-02T13:53:26.812Z</time></trkpt><trkpt lat="45.8123084" lon="10.0407632"><ele>334.0</ele><time>2026-05-02T13:53:27.812Z</time></trkpt><trkpt lat="45.8123407" lon="10.0405693"><ele>334.0</ele><time>2026-05-02T13:53:28.812Z</time></trkpt><trkpt lat="45.8123895" lon="10.0403847"><ele>334.0</ele><time>2026-05-02T13:53:29.811Z</time></trkpt><trkpt lat="45.8124308" lon="10.0402119"><ele>334.0</ele><time>2026-05-02T13:53:30.812Z</time></trkpt><trkpt lat="45.8124556" lon="10.0400333"><ele>334.0</ele><time>2026-05-02T13:53:31.811Z</time></trkpt><trkpt lat="45.8124663" lon="10.0398473"><ele>334.0</ele><time>2026-05-02T13:53:32.811Z</time></trkpt><trkpt lat="45.8124488" lon="10.039675"><ele>334.0</ele><time>2026-05-02T13:53:33.813Z</time></trkpt><trkpt lat="45.8124404" lon="10.0394815"><ele>334.0</ele><time>2026-05-02T13:53:34.813Z</time></trkpt><trkpt lat="45.8124504" lon="10.0392949"><ele>334.0</ele><time>2026-05-02T13:53:35.812Z</time></trkpt><trkpt lat="45.8124812" lon="10.0390925"><ele>335.0</ele><time>2026-05-02T13:53:36.811Z</time></trkpt><trkpt lat="45.8125281" lon="10.038882"><ele>336.0</ele><time>2026-05-02T13:53:37.812Z</time></trkpt><trkpt lat="45.8125804" lon="10.0386734"><ele>337.0</ele><time>2026-05-02T13:53:38.811Z</time></trkpt><trkpt lat="45.8126282" lon="10.0384843"><ele>338.0</ele><time>2026-05-02T13:53:39.813Z</time></trkpt><trkpt lat="45.8126742" lon="10.0382956"><ele>338.0</ele><time>2026-05-02T13:53:40.813Z</time></trkpt><trkpt lat="45.8127197" lon="10.0380946"><ele>338.0</ele><time>2026-05-02T13:53:41.812Z</time></trkpt><trkpt lat="45.812774" lon="10.0378872"><ele>338.0</ele><time>2026-05-02T13:53:42.812Z</time></trkpt><trkpt lat="45.81283" lon="10.0376822"><ele>338.0</ele><time>2026-05-02T13:53:43.812Z</time></trkpt><trkpt lat="45.8128918" lon="10.0374848"><ele>338.0</ele><time>2026-05-02T13:53:44.813Z</time></trkpt><trkpt lat="45.8129699" lon="10.0373023"><ele>338.0</ele><time>2026-05-02T13:53:45.813Z</time></trkpt><trkpt lat="45.8130489" lon="10.0371182"><ele>339.0</ele><time>2026-05-02T13:53:46.812Z</time></trkpt><trkpt lat="45.8131236" lon="10.0369319"><ele>340.0</ele><time>2026-05-02T13:53:47.811Z</time></trkpt><trkpt lat="45.813186" lon="10.0367403"><ele>341.0</ele><time>2026-05-02T13:53:48.812Z</time></trkpt><trkpt lat="45.8132423" lon="10.0365409"><ele>342.0</ele><time>2026-05-02T13:53:49.812Z</time></trkpt><trkpt lat="45.8132993" lon="10.0363458"><ele>343.0</ele><time>2026-05-02T13:53:50.811Z</time></trkpt><trkpt lat="45.813364" lon="10.0361565"><ele>344.0</ele><time>2026-05-02T13:53:51.812Z</time></trkpt><trkpt lat="45.8134254" lon="10.0359723"><ele>345.0</ele><time>2026-05-02T13:53:52.813Z</time></trkpt><trkpt lat="45.8134806" lon="10.0357946"><ele>346.0</ele><time>2026-05-02T13:53:53.812Z</time></trkpt><trkpt lat="45.8135386" lon="10.0356243"><ele>339.75</ele><time>2026-05-02T13:53:54.813Z</time></trkpt><trkpt lat="45.8135659" lon="10.0354652"><ele>333.5</ele><time>2026-05-02T13:53:55.811Z</time></trkpt><trkpt lat="45.8135588" lon="10.0352974"><ele>327.25</ele><time>2026-05-02T13:53:56.812Z</time></trkpt><trkpt lat="45.8135318" lon="10.0351345"><ele>321.0</ele><time>2026-05-02T13:53:57.811Z</time></trkpt><trkpt lat="45.8135086" lon="10.0349841"><ele>323.0</ele><time>2026-05-02T13:53:58.812Z</time></trkpt><trkpt lat="45.8135074" lon="10.0348226"><ele>325.0</ele><time>2026-05-02T13:53:59.811Z</time></trkpt><trkpt lat="45.8135425" lon="10.0346447"><ele>327.0</ele><time>2026-05-02T13:54:00.81Z</time></trkpt><trkpt lat="45.8135572" lon="10.0344877"><ele>329.0</ele><time>2026-05-02T13:54:01.811Z</time></trkpt><trkpt lat="45.8135755" lon="10.0343368"><ele>329.0</ele><time>2026-05-02T13:54:02.813Z</time></trkpt><trkpt lat="45.8136336" lon="10.0341512"><ele>329.0</ele><time>2026-05-02T13:54:03.812Z</time></trkpt><trkpt lat="45.8136811" lon="10.033968"><ele>329.0</ele><time>2026-05-02T13:54:04.812Z</time></trkpt><trkpt lat="45.8137309" lon="10.033789"><ele>329.0</ele><time>2026-05-02T13:54:05.812Z</time></trkpt><trkpt lat="45.8137797" lon="10.0336229"><ele>332.0</ele><time>2026-05-02T13:54:06.813Z</time></trkpt><trkpt lat="45.8138159" lon="10.0334496"><ele>335.0</ele><time>2026-05-02T13:54:07.811Z</time></trkpt><trkpt lat="45.8138146" lon="10.0332815"><ele>338.0</ele><time>2026-05-02T13:54:08.812Z</time></trkpt><trkpt lat="45.8138161" lon="10.0331175"><ele>341.0</ele><time>2026-05-02T13:54:09.811Z</time></trkpt><trkpt lat="45.8138017" lon="10.0329627"><ele>341.6</ele><time>2026-05-02T13:54:10.813Z</time></trkpt><trkpt lat="45.8137977" lon="10.0328009"><ele>342.20000000000005</ele><time>2026-05-02T13:54:11.812Z</time></trkpt><trkpt lat="45.8138058" lon="10.0326449"><ele>342.79999999999995</ele><time>2026-05-02T13:54:12.812Z</time></trkpt><trkpt lat="45.8138293" lon="10.0324922"><ele>343.4</ele><time>2026-05-02T13:54:13.811Z</time></trkpt><trkpt lat="45.8138751" lon="10.0323398"><ele>344.0</ele><time>2026-05-02T13:54:14.812Z</time></trkpt><trkpt lat="45.8139363" lon="10.0321955"><ele>344.0</ele><time>2026-05-02T13:54:15.811Z</time></trkpt><trkpt lat="45.8140085" lon="10.0320553"><ele>344.0</ele><time>2026-05-02T13:54:16.812Z</time></trkpt><trkpt lat="45.8140759" lon="10.0318867"><ele>344.0</ele><time>2026-05-02T13:54:17.812Z</time></trkpt><trkpt lat="45.8141483" lon="10.0317242"><ele>344.0</ele><time>2026-05-02T13:54:18.813Z</time></trkpt><trkpt lat="45.8142211" lon="10.0315574"><ele>344.0</ele><time>2026-05-02T13:54:19.81Z</time></trkpt><trkpt lat="45.8142969" lon="10.0314079"><ele>344.0</ele><time>2026-05-02T13:54:20.811Z</time></trkpt><trkpt lat="45.81439" lon="10.0312686"><ele>344.0</ele><time>2026-05-02T13:54:21.813Z</time></trkpt><trkpt lat="45.8144859" lon="10.0311694"><ele>344.0</ele><time>2026-05-02T13:54:22.813Z</time></trkpt><trkpt lat="45.8145922" lon="10.0310901"><ele>343.75</ele><time>2026-05-02T13:54:23.81Z</time></trkpt><trkpt lat="45.8147043" lon="10.031011"><ele>343.5</ele><time>2026-05-02T13:54:24.812Z</time></trkpt><trkpt lat="45.8148199" lon="10.0309155"><ele>343.25</ele><time>2026-05-02T13:54:25.813Z</time></trkpt><trkpt lat="45.8149327" lon="10.0308124"><ele>343.0</ele><time>2026-05-02T13:54:26.813Z</time></trkpt><trkpt lat="45.8150398" lon="10.0306879"><ele>343.0</ele><time>2026-05-02T13:54:27.811Z</time></trkpt><trkpt lat="45.8151538" lon="10.0305602"><ele>343.0</ele><time>2026-05-02T13:54:28.811Z</time></trkpt><trkpt lat="45.8152674" lon="10.0304248"><ele>343.0</ele><time>2026-05-02T13:54:29.811Z</time></trkpt><trkpt lat="45.81539" lon="10.0302805"><ele>343.66666666666663</ele><time>2026-05-02T13:54:30.812Z</time></trkpt><trkpt lat="45.8155244" lon="10.0301364"><ele>344.3333333333333</ele><time>2026-05-02T13:54:31.813Z</time></trkpt><trkpt lat="45.8156585" lon="10.0300118"><ele>345.0</ele><time>2026-05-02T13:54:32.812Z</time></trkpt><trkpt lat="45.8158012" lon="10.0299086"><ele>345.0</ele><time>2026-05-02T13:54:33.812Z</time></trkpt><trkpt lat="45.8159408" lon="10.0298179"><ele>345.0</ele><time>2026-05-02T13:54:34.812Z</time></trkpt><trkpt lat="45.8160678" lon="10.0297265"><ele>345.0</ele><time>2026-05-02T13:54:35.81Z</time></trkpt><trkpt lat="45.8162012" lon="10.0296319"><ele>345.0</ele><time>2026-05-02T13:54:36.811Z</time></trkpt><trkpt lat="45.8163435" lon="10.0295494"><ele>345.25</ele><time>2026-05-02T13:54:37.812Z</time></trkpt><trkpt lat="45.816484" lon="10.0294857"><ele>345.5</ele><time>2026-05-02T13:54:38.812Z</time></trkpt><trkpt lat="45.8166216" lon="10.0294318"><ele>345.75</ele><time>2026-05-02T13:54:39.811Z</time></trkpt><trkpt lat="45.8167575" lon="10.0293918"><ele>346.0</ele><time>2026-05-02T13:54:40.812Z</time></trkpt><trkpt lat="45.8168867" lon="10.0293294"><ele>345.75</ele><time>2026-05-02T13:54:41.811Z</time></trkpt><trkpt lat="45.8170019" lon="10.0292524"><ele>345.5</ele><time>2026-05-02T13:54:42.811Z</time></trkpt><trkpt lat="45.8171094" lon="10.0291737"><ele>345.25</ele><time>2026-05-02T13:54:43.813Z</time></trkpt><trkpt lat="45.8171946" lon="10.0290927"><ele>345.0</ele><time>2026-05-02T13:54:44.813Z</time></trkpt><trkpt lat="45.8172742" lon="10.0290048"><ele>345.0</ele><time>2026-05-02T13:54:45.813Z</time></trkpt><trkpt lat="45.8173399" lon="10.028927"><ele>345.0</ele><time>2026-05-02T13:54:46.813Z</time></trkpt><trkpt lat="45.8173906" lon="10.0288355"><ele>345.0</ele><time>2026-05-02T13:54:47.812Z</time></trkpt><trkpt lat="45.8174317" lon="10.0287279"><ele>345.0</ele><time>2026-05-02T13:54:48.811Z</time></trkpt><trkpt lat="45.8174501" lon="10.0286325"><ele>345.0</ele><time>2026-05-02T13:54:49.813Z</time></trkpt><trkpt lat="45.8174596" lon="10.0284918"><ele>345.0</ele><time>2026-05-02T13:54:51.812Z</time></trkpt><trkpt lat="45.8175135" lon="10.0286055"><ele>345.0</ele><time>2026-05-02T13:54:55.811Z</time></trkpt><trkpt lat="45.8175079" lon="10.0287267"><ele>345.0</ele><time>2026-05-02T13:54:57.812Z</time></trkpt><trkpt lat="45.8175038" lon="10.028856"><ele>345.0</ele><time>2026-05-02T13:54:59.812Z</time></trkpt><trkpt lat="45.8174742" lon="10.0290122"><ele>345.0</ele><time>2026-05-02T13:55:01.811Z</time></trkpt><trkpt lat="45.8174246" lon="10.0291444"><ele>345.0</ele><time>2026-05-02T13:55:03.812Z</time></trkpt><trkpt lat="45.8173964" lon="10.02925"><ele>343.8333333333333</ele><time>2026-05-02T13:55:05.812Z</time></trkpt><trkpt lat="45.8174622" lon="10.029334"><ele>342.6666666666667</ele><time>2026-05-02T13:55:07.813Z</time></trkpt><trkpt lat="45.8175071" lon="10.0294286"><ele>341.5</ele><time>2026-05-02T13:55:09.811Z</time></trkpt><trkpt lat="45.8174708" lon="10.0295435"><ele>340.33333333333337</ele><time>2026-05-02T13:55:12.812Z</time></trkpt><trkpt lat="45.8174688" lon="10.0296522"><ele>339.1666666666667</ele><time>2026-05-02T13:55:50.812Z</time></trkpt><trkpt lat="45.8175283" lon="10.0297342"><ele>338.0</ele><time>2026-05-02T13:56:41.811Z</time></trkpt><trkpt lat="45.8175929" lon="10.0298208"><ele>336.0</ele><time>2026-05-02T13:56:44.812Z</time></trkpt><trkpt lat="45.8176893" lon="10.0298087"><ele>334.0</ele><time>2026-05-02T13:56:46.812Z</time></trkpt><trkpt lat="45.8177735" lon="10.029796"><ele>332.0</ele><time>2026-05-02T13:56:48.81Z</time></trkpt><trkpt lat="45.8178389" lon="10.0298102"><ele>330.0</ele><time>2026-05-02T13:56:52.811Z</time></trkpt><trkpt lat="45.8178723" lon="10.029898"><ele>328.0</ele><time>2026-05-02T13:57:09.81Z</time></trkpt><trkpt lat="45.8178902" lon="10.0299929"><ele>326.0</ele><time>2026-05-02T13:57:13.811Z</time></trkpt><trkpt lat="45.8179623" lon="10.0299961"><ele>324.42857142857144</ele><time>2026-05-02T13:57:17.811Z</time></trkpt><trkpt lat="45.818009" lon="10.0300569"><ele>322.85714285714283</ele><time>2026-05-02T13:57:39.811Z</time></trkpt><trkpt lat="45.8180585" lon="10.0301302"><ele>321.2857142857143</ele><time>2026-05-02T13:57:43.811Z</time></trkpt><trkpt lat="45.8181237" lon="10.0301258"><ele>319.7142857142857</ele><time>2026-05-02T13:59:04.812Z</time></trkpt><trkpt lat="45.8180659" lon="10.0301655"><ele>318.1428571428571</ele><time>2026-05-02T13:59:11.812Z</time></trkpt><trkpt lat="45.8180552" lon="10.030288"><ele>316.57142857142856</ele><time>2026-05-02T13:59:17.812Z</time></trkpt><trkpt lat="45.8180441" lon="10.030424"><ele>315.0</ele><time>2026-05-02T13:59:20.812Z</time></trkpt><trkpt lat="45.818019" lon="10.0305245"><ele>315.0</ele><time>2026-05-02T13:59:23.813Z</time></trkpt><trkpt lat="45.8180491" lon="10.0306112"><ele>315.0</ele><time>2026-05-02T14:01:42.811Z</time></trkpt><trkpt lat="45.8180013" lon="10.0305478"><ele>315.0</ele><time>2026-05-02T14:15:49.812Z</time></trkpt><trkpt lat="45.8180748" lon="10.0305791"><ele>315.0</ele><time>2026-05-02T14:28:09.81Z</time></trkpt><trkpt lat="45.8181665" lon="10.0305875"><ele>315.0</ele><time>2026-05-02T14:28:12.811Z</time></trkpt><trkpt lat="45.8182255" lon="10.0307454"><ele>315.0</ele><time>2026-05-02T14:28:14.811Z</time></trkpt><trkpt lat="45.8182016" lon="10.0308308"><ele>315.0</ele><time>2026-05-02T14:28:16.812Z</time></trkpt><trkpt lat="45.8181081" lon="10.0307728"><ele>315.0</ele><time>2026-05-02T14:28:18.811Z</time></trkpt><trkpt lat="45.8180607" lon="10.030696"><ele>315.0</ele><time>2026-05-02T14:28:19.811Z</time></trkpt><trkpt lat="45.8180104" lon="10.0306367"><ele>315.0</ele><time>2026-05-02T14:28:20.811Z</time></trkpt><trkpt lat="45.8179396" lon="10.0305689"><ele>315.0</ele><time>2026-05-02T14:28:21.811Z</time></trkpt><trkpt lat="45.8178779" lon="10.0305131"><ele>315.0</ele><time>2026-05-02T14:28:22.81Z</time></trkpt><trkpt lat="45.8177969" lon="10.0304722"><ele>315.0</ele><time>2026-05-02T14:28:23.811Z</time></trkpt><trkpt lat="45.8177144" lon="10.0303699"><ele>315.0</ele><time>2026-05-02T14:28:25.812Z</time></trkpt><trkpt lat="45.8176611" lon="10.0304487"><ele>315.0</ele><time>2026-05-02T14:28:29.812Z</time></trkpt><trkpt lat="45.8177202" lon="10.0304978"><ele>315.0</ele><time>2026-05-02T14:28:30.81Z</time></trkpt><trkpt lat="45.8177805" lon="10.0305517"><ele>315.0</ele><time>2026-05-02T14:28:31.811Z</time></trkpt><trkpt lat="45.8178661" lon="10.0306366"><ele>315.0</ele><time>2026-05-02T14:28:33.811Z</time></trkpt><trkpt lat="45.8179317" lon="10.03075"><ele>315.0</ele><time>2026-05-02T14:28:35.812Z</time></trkpt><trkpt lat="45.817952" lon="10.0308605"><ele>315.0</ele><time>2026-05-02T14:28:37.811Z</time></trkpt><trkpt lat="45.8178556" lon="10.0309141"><ele>315.0</ele><time>2026-05-02T14:28:39.81Z</time></trkpt><trkpt lat="45.8177656" lon="10.0308254"><ele>315.0</ele><time>2026-05-02T14:28:41.811Z</time></trkpt><trkpt lat="45.817737" lon="10.0307202"><ele>315.0</ele><time>2026-05-02T14:28:43.811Z</time></trkpt><trkpt lat="45.8176209" lon="10.0306728"><ele>315.0</ele><time>2026-05-02T14:28:45.812Z</time></trkpt><trkpt lat="45.8175479" lon="10.0306516"><ele>315.0</ele><time>2026-05-02T14:28:46.811Z</time></trkpt><trkpt lat="45.817482" lon="10.0306286"><ele>315.0</ele><time>2026-05-02T14:28:47.811Z</time></trkpt><trkpt lat="45.8174092" lon="10.0306473"><ele>315.0</ele><time>2026-05-02T14:28:49.81Z</time></trkpt><trkpt lat="45.8173677" lon="10.0307157"><ele>315.0</ele><time>2026-05-02T14:28:51.811Z</time></trkpt><trkpt lat="45.8173875" lon="10.0308076"><ele>315.0</ele><time>2026-05-02T14:28:54.811Z</time></trkpt><trkpt lat="45.8174591" lon="10.0308761"><ele>315.0</ele><time>2026-05-02T14:28:57.81Z</time></trkpt><trkpt lat="45.8175268" lon="10.0308261"><ele>314.1666666666667</ele><time>2026-05-02T14:28:58.811Z</time></trkpt><trkpt lat="45.8176183" lon="10.0307806"><ele>313.3333333333333</ele><time>2026-05-02T14:29:00.812Z</time></trkpt><trkpt lat="45.8176745" lon="10.0308621"><ele>312.5</ele><time>2026-05-02T14:29:02.81Z</time></trkpt><trkpt lat="45.8177359" lon="10.03095"><ele>311.66666666666663</ele><time>2026-05-02T14:29:04.811Z</time></trkpt><trkpt lat="45.8178111" lon="10.0309891"><ele>310.8333333333333</ele><time>2026-05-02T14:29:06.811Z</time></trkpt><trkpt lat="45.8178862" lon="10.0310127"><ele>310.0</ele><time>2026-05-02T14:29:08.811Z</time></trkpt><trkpt lat="45.8179598" lon="10.0310324"><ele>310.0</ele><time>2026-05-02T14:29:10.81Z</time></trkpt><trkpt lat="45.8180407" lon="10.0311149"><ele>310.0</ele><time>2026-05-02T14:29:12.811Z</time></trkpt><trkpt lat="45.818108" lon="10.031207"><ele>310.0</ele><time>2026-05-02T14:29:15.812Z</time></trkpt><trkpt lat="45.8181628" lon="10.0312921"><ele>310.0</ele><time>2026-05-02T14:29:18.811Z</time></trkpt><trkpt lat="45.8182328" lon="10.0312882"><ele>310.0</ele><time>2026-05-02T14:29:21.812Z</time></trkpt><trkpt lat="45.8182498" lon="10.0311991"><ele>310.0</ele><time>2026-05-02T14:29:24.81Z</time></trkpt><trkpt lat="45.8182049" lon="10.0311244"><ele>310.0</ele><time>2026-05-02T14:29:27.812Z</time></trkpt><trkpt lat="45.8181605" lon="10.0310397"><ele>310.0</ele><time>2026-05-02T14:29:29.81Z</time></trkpt><trkpt lat="45.818102" lon="10.0309823"><ele>310.0</ele><time>2026-05-02T14:29:31.811Z</time></trkpt><trkpt lat="45.8180293" lon="10.0309972"><ele>310.0</ele><time>2026-05-02T14:30:38.811Z</time></trkpt><trkpt lat="45.8179626" lon="10.0309844"><ele>310.0</ele><time>2026-05-02T14:30:40.811Z</time></trkpt><trkpt lat="45.8180297" lon="10.0309735"><ele>310.0</ele><time>2026-05-02T14:30:47.809Z</time></trkpt><trkpt lat="45.8180922" lon="10.0310039"><ele>310.0</ele><time>2026-05-02T14:30:49.812Z</time></trkpt><trkpt lat="45.8181728" lon="10.0309592"><ele>310.0</ele><time>2026-05-02T14:30:52.812Z</time></trkpt><trkpt lat="45.8182001" lon="10.0308669"><ele>310.0</ele><time>2026-05-02T14:30:54.811Z</time></trkpt><trkpt lat="45.8181959" lon="10.0307512"><ele>310.0</ele><time>2026-05-02T14:30:56.81Z</time></trkpt><trkpt lat="45.8181755" lon="10.0306551"><ele>310.0</ele><time>2026-05-02T14:30:58.811Z</time></trkpt><trkpt lat="45.8181762" lon="10.0305483"><ele>310.0</ele><time>2026-05-02T14:31:01.811Z</time></trkpt><trkpt lat="45.818165" lon="10.0304431"><ele>310.0</ele><time>2026-05-02T14:31:03.812Z</time></trkpt><trkpt lat="45.8181155" lon="10.0305083"><ele>310.0</ele><time>2026-05-02T14:31:15.811Z</time></trkpt><trkpt lat="45.8180575" lon="10.0305647"><ele>310.8333333333333</ele><time>2026-05-02T14:31:24.811Z</time></trkpt><trkpt lat="45.8181019" lon="10.0304668"><ele>311.66666666666663</ele><time>2026-05-02T14:39:17.809Z</time></trkpt><trkpt lat="45.8181698" lon="10.0304329"><ele>312.5</ele><time>2026-05-02T14:39:28.81Z</time></trkpt><trkpt lat="45.8182128" lon="10.0305102"><ele>313.3333333333333</ele><time>2026-05-02T14:39:32.81Z</time></trkpt><trkpt lat="45.8182171" lon="10.0303809"><ele>314.1666666666667</ele><time>2026-05-02T14:40:13.81Z</time></trkpt><trkpt lat="45.8181732" lon="10.0302857"><ele>315.0</ele><time>2026-05-02T14:40:15.81Z</time></trkpt><trkpt lat="45.818145" lon="10.030188"><ele>315.0</ele><time>2026-05-02T14:40:18.812Z</time></trkpt><trkpt lat="45.8180714" lon="10.0301489"><ele>315.0</ele><time>2026-05-02T14:40:23.811Z</time></trkpt><trkpt lat="45.8181359" lon="10.0301512"><ele>315.0</ele><time>2026-05-02T14:41:16.812Z</time></trkpt><trkpt lat="45.818061" lon="10.0301447"><ele>315.0</ele><time>2026-05-02T14:43:18.811Z</time></trkpt><trkpt lat="45.8180231" lon="10.0302363"><ele>315.0</ele><time>2026-05-02T14:43:24.81Z</time></trkpt><trkpt lat="45.8180419" lon="10.0303535"><ele>315.0</ele><time>2026-05-02T14:43:27.858Z</time></trkpt><trkpt lat="45.8180581" lon="10.0304456"><ele>315.0</ele><time>2026-05-02T14:43:29.81Z</time></trkpt><trkpt lat="45.8180196" lon="10.0305188"><ele>315.0</ele><time>2026-05-02T14:43:31.876Z</time></trkpt><trkpt lat="45.8179976" lon="10.0306336"><ele>315.0</ele><time>2026-05-02T14:43:34.951Z</time></trkpt><trkpt lat="45.8180062" lon="10.0307351"><ele>315.0</ele><time>2026-05-02T14:43:38.313Z</time></trkpt><trkpt lat="45.8179753" lon="10.0308283"><ele>315.0</ele><time>2026-05-02T14:43:43.715Z</time></trkpt><trkpt lat="45.8179448" lon="10.0309289"><ele>315.0</ele><time>2026-05-02T14:43:51.809Z</time></trkpt><trkpt lat="45.8178795" lon="10.0309517"><ele>315.0</ele><time>2026-05-02T14:44:03.81Z</time></trkpt><trkpt lat="45.8179627" lon="10.0308916"><ele>315.0</ele><time>2026-05-02T14:50:35.81Z</time></trkpt><trkpt lat="45.8178858" lon="10.0308712"><ele>315.0</ele><time>2026-05-02T14:54:58.81Z</time></trkpt><trkpt lat="45.8178121" lon="10.0309024"><ele>315.0</ele><time>2026-05-02T14:55:38.811Z</time></trkpt><trkpt lat="45.8177647" lon="10.0308392"><ele>315.0</ele><time>2026-05-02T14:55:41.81Z</time></trkpt><trkpt lat="45.8177159" lon="10.0307382"><ele>315.0</ele><time>2026-05-02T14:55:44.809Z</time></trkpt><trkpt lat="45.817644" lon="10.0307608"><ele>315.0</ele><time>2026-05-02T14:55:52.809Z</time></trkpt><trkpt lat="45.8176796" lon="10.0308449"><ele>315.0</ele><time>2026-05-02T14:56:08.81Z</time></trkpt><trkpt lat="45.8177248" lon="10.0309333"><ele>314.1666666666667</ele><time>2026-05-02T14:56:11.809Z</time></trkpt><trkpt lat="45.8177864" lon="10.0309777"><ele>313.3333333333333</ele><time>2026-05-02T14:56:13.81Z</time></trkpt><trkpt lat="45.8178587" lon="10.0310033"><ele>312.5</ele><time>2026-05-02T14:56:16.81Z</time></trkpt><trkpt lat="45.8179399" lon="10.0310214"><ele>311.66666666666663</ele><time>2026-05-02T14:56:19.81Z</time></trkpt><trkpt lat="45.8180056" lon="10.0310711"><ele>310.8333333333333</ele><time>2026-05-02T14:56:22.811Z</time></trkpt><trkpt lat="45.8180503" lon="10.0311515"><ele>310.0</ele><time>2026-05-02T14:56:25.811Z</time></trkpt><trkpt lat="45.8181075" lon="10.031053"><ele>310.0</ele><time>2026-05-02T14:56:30.81Z</time></trkpt><trkpt lat="45.8181584" lon="10.0309963"><ele>310.0</ele><time>2026-05-02T14:56:36.81Z</time></trkpt><trkpt lat="45.818091" lon="10.0309036"><ele>310.0</ele><time>2026-05-02T14:56:41.175Z</time></trkpt><trkpt lat="45.8180656" lon="10.030791"><ele>310.0</ele><time>2026-05-02T14:56:44.732Z</time></trkpt><trkpt lat="45.818001" lon="10.0308275"><ele>310.0</ele><time>2026-05-02T14:56:45.954Z</time></trkpt><trkpt lat="45.8180423" lon="10.0309279"><ele>310.0</ele><time>2026-05-02T14:56:50.792Z</time></trkpt><trkpt lat="45.8181162" lon="10.0309525"><ele>310.0</ele><time>2026-05-02T14:56:52.809Z</time></trkpt><trkpt lat="45.8181878" lon="10.0308856"><ele>310.0</ele><time>2026-05-02T14:57:08.81Z</time></trkpt><trkpt lat="45.8182694" lon="10.0308679"><ele>310.0</ele><time>2026-05-02T14:57:13.81Z</time></trkpt><trkpt lat="45.81833" lon="10.0308093"><ele>310.0</ele><time>2026-05-02T14:57:22.811Z</time></trkpt><trkpt lat="45.8183306" lon="10.0307154"><ele>310.0</ele><time>2026-05-02T14:57:28.809Z</time></trkpt><trkpt lat="45.8183087" lon="10.0306193"><ele>310.0</ele><time>2026-05-02T14:57:35.809Z</time></trkpt><trkpt lat="45.8183486" lon="10.0305402"><ele>310.0</ele><time>2026-05-02T14:57:40.811Z</time></trkpt><trkpt lat="45.8184197" lon="10.0305234"><ele>310.42857142857144</ele><time>2026-05-02T14:57:45.81Z</time></trkpt><trkpt lat="45.8184617" lon="10.0305985"><ele>310.85714285714283</ele><time>2026-05-02T14:57:50.81Z</time></trkpt><trkpt lat="45.8185157" lon="10.0305454"><ele>311.2857142857143</ele><time>2026-05-02T14:58:19.81Z</time></trkpt><trkpt lat="45.8185852" lon="10.0305314"><ele>311.7142857142857</ele><time>2026-05-02T15:02:37.81Z</time></trkpt><trkpt lat="45.8186422" lon="10.030577"><ele>312.14285714285717</ele><time>2026-05-02T15:02:39.81Z</time></trkpt><trkpt lat="45.8187177" lon="10.0305427"><ele>312.57142857142856</ele><time>2026-05-02T15:02:42.809Z</time></trkpt><trkpt lat="45.818736" lon="10.0304313"><ele>313.0</ele><time>2026-05-02T15:02:45.81Z</time></trkpt><trkpt lat="45.8187776" lon="10.0303339"><ele>313.0</ele><time>2026-05-02T15:02:48.829Z</time></trkpt><trkpt lat="45.8188127" lon="10.0302288"><ele>313.0</ele><time>2026-05-02T15:02:50.809Z</time></trkpt><trkpt lat="45.8188402" lon="10.0301432"><ele>313.0</ele><time>2026-05-02T15:02:59.809Z</time></trkpt><trkpt lat="45.8188731" lon="10.0300626"><ele>313.0</ele><time>2026-05-02T15:03:43.809Z</time></trkpt><trkpt lat="45.8188587" lon="10.0299558"><ele>313.0</ele><time>2026-05-02T15:03:57.81Z</time></trkpt><trkpt lat="45.8189075" lon="10.0298893"><ele>313.0</ele><time>2026-05-02T15:04:08.809Z</time></trkpt><trkpt lat="45.8189596" lon="10.0298321"><ele>313.0</ele><time>2026-05-02T15:04:10.81Z</time></trkpt><trkpt lat="45.8190376" lon="10.029773"><ele>313.0</ele><time>2026-05-02T15:04:14.808Z</time></trkpt><trkpt lat="45.8190577" lon="10.029677"><ele>313.0</ele><time>2026-05-02T15:04:23.808Z</time></trkpt><trkpt lat="45.8190607" lon="10.0297685"><ele>313.0</ele><time>2026-05-02T15:04:32.81Z</time></trkpt><trkpt lat="45.8189959" lon="10.0298202"><ele>313.0</ele><time>2026-05-02T15:04:38.809Z</time></trkpt><trkpt lat="45.8189402" lon="10.029882"><ele>313.0</ele><time>2026-05-02T15:04:42.809Z</time></trkpt><trkpt lat="45.818887" lon="10.0299392"><ele>313.0</ele><time>2026-05-02T15:04:47.809Z</time></trkpt><trkpt lat="45.8188789" lon="10.0300407"><ele>313.0</ele><time>2026-05-02T15:04:54.809Z</time></trkpt><trkpt lat="45.8188846" lon="10.0299418"><ele>313.0</ele><time>2026-05-02T15:05:08.81Z</time></trkpt><trkpt lat="45.8188694" lon="10.0298368"><ele>313.0</ele><time>2026-05-02T15:05:17.808Z</time></trkpt><trkpt lat="45.8189351" lon="10.0297808"><ele>313.0</ele><time>2026-05-02T15:05:21.809Z</time></trkpt><trkpt lat="45.8189993" lon="10.0297244"><ele>313.0</ele><time>2026-05-02T15:05:25.81Z</time></trkpt><trkpt lat="45.8190507" lon="10.0296509"><ele>313.0</ele><time>2026-05-02T15:05:44.809Z</time></trkpt><trkpt lat="45.8191201" lon="10.0295319"><ele>313.0</ele><time>2026-05-02T15:05:48.809Z</time></trkpt><trkpt lat="45.8192161" lon="10.0294696"><ele>313.0</ele><time>2026-05-02T15:05:49.808Z</time></trkpt><trkpt lat="45.8192528" lon="10.0293694"><ele>313.0</ele><time>2026-05-02T15:05:52.809Z</time></trkpt><trkpt lat="45.8192914" lon="10.0292341"><ele>313.0</ele><time>2026-05-02T15:05:55.809Z</time></trkpt><trkpt lat="45.8193273" lon="10.0291437"><ele>313.0</ele><time>2026-05-02T15:05:57.808Z</time></trkpt><trkpt lat="45.8193545" lon="10.0290171"><ele>313.0</ele><time>2026-05-02T15:05:59.81Z</time></trkpt><trkpt lat="45.8194085" lon="10.0288984"><ele>313.0</ele><time>2026-05-02T15:06:01.809Z</time></trkpt><trkpt lat="45.8195009" lon="10.0287701"><ele>313.6</ele><time>2026-05-02T15:06:03.81Z</time></trkpt><trkpt lat="45.8195372" lon="10.0286416"><ele>314.20000000000005</ele><time>2026-05-02T15:06:05.809Z</time></trkpt><trkpt lat="45.8195089" lon="10.0284744"><ele>314.8</ele><time>2026-05-02T15:06:07.809Z</time></trkpt><trkpt lat="45.819502" lon="10.0283624"><ele>315.40000000000003</ele><time>2026-05-02T15:06:09.808Z</time></trkpt><trkpt lat="45.8195859" lon="10.0282786"><ele>316.0</ele><time>2026-05-02T15:06:11.809Z</time></trkpt><trkpt lat="45.8196465" lon="10.0282288"><ele>317.16666666666663</ele><time>2026-05-02T15:06:12.808Z</time></trkpt><trkpt lat="45.8197135" lon="10.0281741"><ele>318.3333333333333</ele><time>2026-05-02T15:06:13.809Z</time></trkpt><trkpt lat="45.8197813" lon="10.0281166"><ele>319.5</ele><time>2026-05-02T15:06:14.81Z</time></trkpt><trkpt lat="45.8198503" lon="10.0280583"><ele>320.6666666666667</ele><time>2026-05-02T15:06:15.809Z</time></trkpt><trkpt lat="45.8199181" lon="10.0280006"><ele>321.83333333333337</ele><time>2026-05-02T15:06:16.81Z</time></trkpt><trkpt lat="45.8199829" lon="10.0279494"><ele>323.0</ele><time>2026-05-02T15:06:17.809Z</time></trkpt><trkpt lat="45.8200426" lon="10.0279123"><ele>323.00000000000006</ele><time>2026-05-02T15:06:18.81Z</time></trkpt><trkpt lat="45.820102" lon="10.0278807"><ele>323.0</ele><time>2026-05-02T15:06:19.81Z</time></trkpt><trkpt lat="45.8201684" lon="10.0278588"><ele>323.0</ele><time>2026-05-02T15:06:20.809Z</time></trkpt><trkpt lat="45.8202396" lon="10.0278592"><ele>323.0</ele><time>2026-05-02T15:06:21.81Z</time></trkpt><trkpt lat="45.8203138" lon="10.0278712"><ele>323.0</ele><time>2026-05-02T15:06:22.81Z</time></trkpt><trkpt lat="45.8203901" lon="10.0278897"><ele>323.00000000000006</ele><time>2026-05-02T15:06:23.808Z</time></trkpt><trkpt lat="45.8204674" lon="10.027916"><ele>323.0</ele><time>2026-05-02T15:06:24.809Z</time></trkpt><trkpt lat="45.8205357" lon="10.0279483"><ele>323.75</ele><time>2026-05-02T15:06:25.809Z</time></trkpt><trkpt lat="45.8206558" lon="10.0279971"><ele>324.5</ele><time>2026-05-02T15:06:27.808Z</time></trkpt><trkpt lat="45.8207715" lon="10.0280048"><ele>325.25</ele><time>2026-05-02T15:06:29.809Z</time></trkpt><trkpt lat="45.820873" lon="10.0279516"><ele>326.0</ele><time>2026-05-02T15:06:31.81Z</time></trkpt><trkpt lat="45.8209258" lon="10.0278266"><ele>326.0</ele><time>2026-05-02T15:06:33.808Z</time></trkpt><trkpt lat="45.8209023" lon="10.0276861"><ele>326.0</ele><time>2026-05-02T15:06:35.809Z</time></trkpt><trkpt lat="45.8208572" lon="10.0275219"><ele>326.0</ele><time>2026-05-02T15:06:37.809Z</time></trkpt><trkpt lat="45.8208392" lon="10.0274201"><ele>326.0</ele><time>2026-05-02T15:06:38.81Z</time></trkpt><trkpt lat="45.8208281" lon="10.0273067"><ele>326.0</ele><time>2026-05-02T15:06:39.809Z</time></trkpt><trkpt lat="45.8208207" lon="10.0271838"><ele>327.6666666666667</ele><time>2026-05-02T15:06:40.809Z</time></trkpt><trkpt lat="45.8208092" lon="10.0270556"><ele>329.33333333333337</ele><time>2026-05-02T15:06:41.809Z</time></trkpt><trkpt lat="45.820793" lon="10.0269235"><ele>331.0</ele><time>2026-05-02T15:06:42.809Z</time></trkpt><trkpt lat="45.8207737" lon="10.0267938"><ele>332.6666666666667</ele><time>2026-05-02T15:06:43.81Z</time></trkpt><trkpt lat="45.8207568" lon="10.0266769"><ele>334.3333333333333</ele><time>2026-05-02T15:06:44.809Z</time></trkpt><trkpt lat="45.8207344" lon="10.026576"><ele>336.0</ele><time>2026-05-02T15:06:45.809Z</time></trkpt><trkpt lat="45.8206967" lon="10.0264979"><ele>337.8</ele><time>2026-05-02T15:06:46.809Z</time></trkpt><trkpt lat="45.8206239" lon="10.0264496"><ele>339.6</ele><time>2026-05-02T15:06:47.809Z</time></trkpt><trkpt lat="45.8205472" lon="10.0264025"><ele>341.4</ele><time>2026-05-02T15:06:48.809Z</time></trkpt><trkpt lat="45.820454" lon="10.0263614"><ele>343.2</ele><time>2026-05-02T15:06:49.81Z</time></trkpt><trkpt lat="45.8203547" lon="10.0263361"><ele>345.0</ele><time>2026-05-02T15:06:50.809Z</time></trkpt><trkpt lat="45.8202505" lon="10.0263145"><ele>346.6</ele><time>2026-05-02T15:06:51.81Z</time></trkpt><trkpt lat="45.8201455" lon="10.0262943"><ele>348.2</ele><time>2026-05-02T15:06:52.809Z</time></trkpt><trkpt lat="45.8200604" lon="10.0262759"><ele>349.79999999999995</ele><time>2026-05-02T15:06:53.81Z</time></trkpt><trkpt lat="45.819981" lon="10.0262838"><ele>351.4</ele><time>2026-05-02T15:06:54.809Z</time></trkpt><trkpt lat="45.8199025" lon="10.0262878"><ele>353.0</ele><time>2026-05-02T15:06:55.81Z</time></trkpt><trkpt lat="45.8197944" lon="10.0262552"><ele>353.0</ele><time>2026-05-02T15:06:57.81Z</time></trkpt><trkpt lat="45.8197234" lon="10.0261796"><ele>353.0</ele><time>2026-05-02T15:06:59.809Z</time></trkpt><trkpt lat="45.819655" lon="10.0261168"><ele>353.0</ele><time>2026-05-02T15:07:03.809Z</time></trkpt><trkpt lat="45.819587" lon="10.0261549"><ele>353.0</ele><time>2026-05-02T15:07:04.809Z</time></trkpt><trkpt lat="45.8195183" lon="10.0262038"><ele>353.0</ele><time>2026-05-02T15:07:05.808Z</time></trkpt><trkpt lat="45.8194334" lon="10.026256"><ele>353.0</ele><time>2026-05-02T15:07:06.81Z</time></trkpt><trkpt lat="45.8193386" lon="10.0263058"><ele>353.25</ele><time>2026-05-02T15:07:07.808Z</time></trkpt><trkpt lat="45.8192334" lon="10.0263542"><ele>353.5</ele><time>2026-05-02T15:07:08.809Z</time></trkpt><trkpt lat="45.8191285" lon="10.0263896"><ele>353.75</ele><time>2026-05-02T15:07:09.809Z</time></trkpt><trkpt lat="45.8190152" lon="10.0264267"><ele>354.0</ele><time>2026-05-02T15:07:10.81Z</time></trkpt><trkpt lat="45.8189005" lon="10.026461"><ele>354.0</ele><time>2026-05-02T15:07:11.809Z</time></trkpt><trkpt lat="45.818782" lon="10.0265115"><ele>354.0</ele><time>2026-05-02T15:07:12.809Z</time></trkpt><trkpt lat="45.8186585" lon="10.0265716"><ele>354.0</ele><time>2026-05-02T15:07:13.808Z</time></trkpt><trkpt lat="45.8185414" lon="10.0266406"><ele>354.0</ele><time>2026-05-02T15:07:14.808Z</time></trkpt><trkpt lat="45.8184159" lon="10.0267284"><ele>352.5</ele><time>2026-05-02T15:07:15.808Z</time></trkpt><trkpt lat="45.8182967" lon="10.0268239"><ele>351.0</ele><time>2026-05-02T15:07:16.809Z</time></trkpt><trkpt lat="45.8181771" lon="10.0269274"><ele>349.5</ele><time>2026-05-02T15:07:17.809Z</time></trkpt><trkpt lat="45.8180676" lon="10.0270295"><ele>348.0</ele><time>2026-05-02T15:07:18.809Z</time></trkpt><trkpt lat="45.8179596" lon="10.0271563"><ele>348.0</ele><time>2026-05-02T15:07:19.81Z</time></trkpt><trkpt lat="45.8178647" lon="10.0272986"><ele>348.0</ele><time>2026-05-02T15:07:20.809Z</time></trkpt><trkpt lat="45.8177843" lon="10.0274564"><ele>348.0</ele><time>2026-05-02T15:07:21.808Z</time></trkpt><trkpt lat="45.8177139" lon="10.0276336"><ele>348.0</ele><time>2026-05-02T15:07:22.809Z</time></trkpt><trkpt lat="45.8176561" lon="10.0278213"><ele>347.75</ele><time>2026-05-02T15:07:23.809Z</time></trkpt><trkpt lat="45.8176003" lon="10.0279942"><ele>347.5</ele><time>2026-05-02T15:07:24.81Z</time></trkpt><trkpt lat="45.8175497" lon="10.0281822"><ele>347.25</ele><time>2026-05-02T15:07:25.808Z</time></trkpt><trkpt lat="45.8175101" lon="10.0283575"><ele>347.0</ele><time>2026-05-02T15:07:26.81Z</time></trkpt><trkpt lat="45.8174682" lon="10.0285349"><ele>346.5</ele><time>2026-05-02T15:07:27.808Z</time></trkpt><trkpt lat="45.8174241" lon="10.0287021"><ele>346.0</ele><time>2026-05-02T15:07:28.809Z</time></trkpt><trkpt lat="45.8173707" lon="10.0288477"><ele>345.5</ele><time>2026-05-02T15:07:29.809Z</time></trkpt><trkpt lat="45.8172968" lon="10.028964"><ele>345.0</ele><time>2026-05-02T15:07:30.809Z</time></trkpt><trkpt lat="45.81721" lon="10.029074"><ele>345.25</ele><time>2026-05-02T15:07:31.809Z</time></trkpt><trkpt lat="45.8170947" lon="10.0291752"><ele>345.5</ele><time>2026-05-02T15:07:32.81Z</time></trkpt><trkpt lat="45.8169741" lon="10.02926"><ele>345.75</ele><time>2026-05-02T15:07:33.809Z</time></trkpt><trkpt lat="45.8168594" lon="10.0293373"><ele>346.0</ele><time>2026-05-02T15:07:34.81Z</time></trkpt><trkpt lat="45.8167309" lon="10.0293898"><ele>346.0</ele><time>2026-05-02T15:07:35.809Z</time></trkpt><trkpt lat="45.816612" lon="10.0294337"><ele>346.0</ele><time>2026-05-02T15:07:36.808Z</time></trkpt><trkpt lat="45.8165063" lon="10.0294724"><ele>346.0</ele><time>2026-05-02T15:07:37.81Z</time></trkpt><trkpt lat="45.8164034" lon="10.0295051"><ele>346.0</ele><time>2026-05-02T15:07:38.809Z</time></trkpt><trkpt lat="45.816327" lon="10.0295436"><ele>346.0</ele><time>2026-05-02T15:07:39.808Z</time></trkpt><trkpt lat="45.8162609" lon="10.0296004"><ele>346.0</ele><time>2026-05-02T15:07:40.809Z</time></trkpt><trkpt lat="45.8161891" lon="10.0296416"><ele>346.0</ele><time>2026-05-02T15:07:41.81Z</time></trkpt><trkpt lat="45.8161327" lon="10.0296919"><ele>346.0</ele><time>2026-05-02T15:07:42.808Z</time></trkpt><trkpt lat="45.8160257" lon="10.0297651"><ele>346.0</ele><time>2026-05-02T15:07:44.809Z</time></trkpt><trkpt lat="45.8159187" lon="10.0298116"><ele>346.0</ele><time>2026-05-02T15:07:46.808Z</time></trkpt><trkpt lat="45.8158201" lon="10.0298432"><ele>345.8</ele><time>2026-05-02T15:07:48.809Z</time></trkpt><trkpt lat="45.8157308" lon="10.0298859"><ele>345.6</ele><time>2026-05-02T15:07:50.809Z</time></trkpt><trkpt lat="45.8156279" lon="10.0299842"><ele>345.4</ele><time>2026-05-02T15:07:52.808Z</time></trkpt><trkpt lat="45.8155167" lon="10.030094"><ele>345.2</ele><time>2026-05-02T15:07:54.808Z</time></trkpt><trkpt lat="45.815458" lon="10.0301596"><ele>345.0</ele><time>2026-05-02T15:07:55.81Z</time></trkpt><trkpt lat="45.8153965" lon="10.0302231"><ele>344.6666666666667</ele><time>2026-05-02T15:07:56.809Z</time></trkpt><trkpt lat="45.8153396" lon="10.0303"><ele>344.3333333333333</ele><time>2026-05-02T15:07:57.809Z</time></trkpt><trkpt lat="45.815277" lon="10.0303702"><ele>344.0</ele><time>2026-05-02T15:07:58.81Z</time></trkpt><trkpt lat="45.8152171" lon="10.0304422"><ele>343.66666666666663</ele><time>2026-05-02T15:07:59.809Z</time></trkpt><trkpt lat="45.8151566" lon="10.0305116"><ele>343.3333333333333</ele><time>2026-05-02T15:08:00.81Z</time></trkpt><trkpt lat="45.8150942" lon="10.0305766"><ele>343.0</ele><time>2026-05-02T15:08:01.809Z</time></trkpt><trkpt lat="45.8150243" lon="10.0306518"><ele>343.0</ele><time>2026-05-02T15:08:02.808Z</time></trkpt><trkpt lat="45.8149515" lon="10.0307352"><ele>343.0</ele><time>2026-05-02T15:08:03.809Z</time></trkpt><trkpt lat="45.8148754" lon="10.0308245"><ele>343.0</ele><time>2026-05-02T15:08:04.809Z</time></trkpt><trkpt lat="45.8147858" lon="10.0309049"><ele>343.0</ele><time>2026-05-02T15:08:05.809Z</time></trkpt><trkpt lat="45.8146905" lon="10.0309795"><ele>343.0</ele><time>2026-05-02T15:08:06.81Z</time></trkpt><trkpt lat="45.8145913" lon="10.0310509"><ele>343.25</ele><time>2026-05-02T15:08:07.809Z</time></trkpt><trkpt lat="45.8144922" lon="10.0311309"><ele>343.5</ele><time>2026-05-02T15:08:08.81Z</time></trkpt><trkpt lat="45.8143993" lon="10.0312272"><ele>343.75</ele><time>2026-05-02T15:08:09.808Z</time></trkpt><trkpt lat="45.8143199" lon="10.0313427"><ele>344.0</ele><time>2026-05-02T15:08:10.81Z</time></trkpt><trkpt lat="45.8142535" lon="10.0314659"><ele>344.0</ele><time>2026-05-02T15:08:11.809Z</time></trkpt><trkpt lat="45.8141973" lon="10.0315882"><ele>344.0</ele><time>2026-05-02T15:08:12.81Z</time></trkpt><trkpt lat="45.8141379" lon="10.0317229"><ele>344.0</ele><time>2026-05-02T15:08:13.809Z</time></trkpt><trkpt lat="45.8140779" lon="10.0318514"><ele>344.0</ele><time>2026-05-02T15:08:14.809Z</time></trkpt><trkpt lat="45.8140274" lon="10.0319856"><ele>344.0</ele><time>2026-05-02T15:08:15.809Z</time></trkpt><trkpt lat="45.8139759" lon="10.0321048"><ele>344.0</ele><time>2026-05-02T15:08:16.81Z</time></trkpt><trkpt lat="45.8139226" lon="10.0322208"><ele>344.0</ele><time>2026-05-02T15:08:17.81Z</time></trkpt><trkpt lat="45.8138736" lon="10.0323241"><ele>344.0</ele><time>2026-05-02T15:08:18.81Z</time></trkpt><trkpt lat="45.8138357" lon="10.032424"><ele>344.0</ele><time>2026-05-02T15:08:19.808Z</time></trkpt><trkpt lat="45.8138172" lon="10.0325361"><ele>344.0</ele><time>2026-05-02T15:08:20.809Z</time></trkpt><trkpt lat="45.8138139" lon="10.0326549"><ele>344.0</ele><time>2026-05-02T15:08:21.81Z</time></trkpt><trkpt lat="45.8138116" lon="10.0327748"><ele>344.0</ele><time>2026-05-02T15:08:22.81Z</time></trkpt><trkpt lat="45.8138157" lon="10.0329082"><ele>344.0</ele><time>2026-05-02T15:08:23.81Z</time></trkpt><trkpt lat="45.8138251" lon="10.0330529"><ele>344.0</ele><time>2026-05-02T15:08:24.81Z</time></trkpt><trkpt lat="45.8138319" lon="10.0331977"><ele>344.0</ele><time>2026-05-02T15:08:25.809Z</time></trkpt><trkpt lat="45.8138358" lon="10.0333348"><ele>344.0</ele><time>2026-05-02T15:08:26.809Z</time></trkpt><trkpt lat="45.8138262" lon="10.0334735"><ele>343.4</ele><time>2026-05-02T15:08:27.809Z</time></trkpt><trkpt lat="45.813795" lon="10.0336181"><ele>342.79999999999995</ele><time>2026-05-02T15:08:28.808Z</time></trkpt><trkpt lat="45.8137462" lon="10.0337637"><ele>342.20000000000005</ele><time>2026-05-02T15:08:29.81Z</time></trkpt><trkpt lat="45.8136954" lon="10.0339142"><ele>341.6</ele><time>2026-05-02T15:08:30.81Z</time></trkpt><trkpt lat="45.8136464" lon="10.0340605"><ele>341.0</ele><time>2026-05-02T15:08:31.81Z</time></trkpt><trkpt lat="45.8136094" lon="10.0341923"><ele>338.6</ele><time>2026-05-02T15:08:32.809Z</time></trkpt><trkpt lat="45.8135812" lon="10.0343441"><ele>336.20000000000005</ele><time>2026-05-02T15:08:33.809Z</time></trkpt><trkpt lat="45.8135511" lon="10.0344853"><ele>333.79999999999995</ele><time>2026-05-02T15:08:34.809Z</time></trkpt><trkpt lat="45.813535" lon="10.0346361"><ele>331.4</ele><time>2026-05-02T15:08:35.809Z</time></trkpt><trkpt lat="45.8135166" lon="10.0347787"><ele>329.0</ele><time>2026-05-02T15:08:36.809Z</time></trkpt><trkpt lat="45.8135118" lon="10.0349224"><ele>327.4</ele><time>2026-05-02T15:08:37.809Z</time></trkpt><trkpt lat="45.8135217" lon="10.0350616"><ele>325.79999999999995</ele><time>2026-05-02T15:08:38.809Z</time></trkpt><trkpt lat="45.8135372" lon="10.0351935"><ele>324.20000000000005</ele><time>2026-05-02T15:08:39.809Z</time></trkpt><trkpt lat="45.8135536" lon="10.0353219"><ele>322.6</ele><time>2026-05-02T15:08:40.81Z</time></trkpt><trkpt lat="45.8135565" lon="10.0354473"><ele>321.0</ele><time>2026-05-02T15:08:41.81Z</time></trkpt><trkpt lat="45.8135368" lon="10.0355757"><ele>321.0</ele><time>2026-05-02T15:08:42.81Z</time></trkpt><trkpt lat="45.8134962" lon="10.035696"><ele>321.0</ele><time>2026-05-02T15:08:43.81Z</time></trkpt><trkpt lat="45.8134503" lon="10.0358139"><ele>321.0</ele><time>2026-05-02T15:08:44.81Z</time></trkpt><trkpt lat="45.8134054" lon="10.0359393"><ele>321.0</ele><time>2026-05-02T15:08:45.809Z</time></trkpt><trkpt lat="45.8133617" lon="10.0360597"><ele>321.0</ele><time>2026-05-02T15:08:46.809Z</time></trkpt><trkpt lat="45.8133217" lon="10.0361801"><ele>325.20000000000005</ele><time>2026-05-02T15:08:47.809Z</time></trkpt><trkpt lat="45.8132832" lon="10.0363232"><ele>329.40000000000003</ele><time>2026-05-02T15:08:48.81Z</time></trkpt><trkpt lat="45.8132494" lon="10.0364569"><ele>333.6</ele><time>2026-05-02T15:08:49.81Z</time></trkpt><trkpt lat="45.8132189" lon="10.0365871"><ele>337.8</ele><time>2026-05-02T15:08:50.81Z</time></trkpt><trkpt lat="45.8131787" lon="10.0367065"><ele>342.0</ele><time>2026-05-02T15:08:51.809Z</time></trkpt><trkpt lat="45.8131357" lon="10.0368475"><ele>342.0</ele><time>2026-05-02T15:08:52.81Z</time></trkpt><trkpt lat="45.8130814" lon="10.0369829"><ele>342.0</ele><time>2026-05-02T15:08:53.81Z</time></trkpt><trkpt lat="45.8130204" lon="10.0371052"><ele>342.0</ele><time>2026-05-02T15:08:54.809Z</time></trkpt><trkpt lat="45.8129593" lon="10.0372246"><ele>342.0</ele><time>2026-05-02T15:08:55.81Z</time></trkpt><trkpt lat="45.8129005" lon="10.0373527"><ele>342.0</ele><time>2026-05-02T15:08:56.809Z</time></trkpt><trkpt lat="45.8128586" lon="10.0374961"><ele>341.20000000000005</ele><time>2026-05-02T15:08:57.808Z</time></trkpt><trkpt lat="45.8128258" lon="10.0376411"><ele>340.4</ele><time>2026-05-02T15:08:58.809Z</time></trkpt><trkpt lat="45.8127866" lon="10.03777"><ele>339.6</ele><time>2026-05-02T15:08:59.81Z</time></trkpt><trkpt lat="45.8127468" lon="10.037903"><ele>338.79999999999995</ele><time>2026-05-02T15:09:00.809Z</time></trkpt><trkpt lat="45.8127135" lon="10.0380405"><ele>338.0</ele><time>2026-05-02T15:09:01.809Z</time></trkpt><trkpt lat="45.8126782" lon="10.0381761"><ele>338.0</ele><time>2026-05-02T15:09:02.809Z</time></trkpt><trkpt lat="45.8126469" lon="10.0383126"><ele>338.0</ele><time>2026-05-02T15:09:03.81Z</time></trkpt><trkpt lat="45.8126169" lon="10.0384457"><ele>338.0</ele><time>2026-05-02T15:09:04.809Z</time></trkpt><trkpt lat="45.8125907" lon="10.0385739"><ele>338.0</ele><time>2026-05-02T15:09:05.808Z</time></trkpt><trkpt lat="45.8125626" lon="10.0386946"><ele>338.0</ele><time>2026-05-02T15:09:06.81Z</time></trkpt><trkpt lat="45.8125339" lon="10.0388044"><ele>338.0</ele><time>2026-05-02T15:09:07.809Z</time></trkpt><trkpt lat="45.8124972" lon="10.0389081"><ele>338.0</ele><time>2026-05-02T15:09:08.808Z</time></trkpt><trkpt lat="45.8124828" lon="10.0390252"><ele>338.0</ele><time>2026-05-02T15:09:09.809Z</time></trkpt><trkpt lat="45.8124659" lon="10.0391343"><ele>338.0</ele><time>2026-05-02T15:09:10.809Z</time></trkpt><trkpt lat="45.8124482" lon="10.0392439"><ele>338.0</ele><time>2026-05-02T15:09:11.808Z</time></trkpt><trkpt lat="45.8124369" lon="10.0393557"><ele>338.0</ele><time>2026-05-02T15:09:12.808Z</time></trkpt><trkpt lat="45.8124415" lon="10.0394693"><ele>337.33333333333337</ele><time>2026-05-02T15:09:13.808Z</time></trkpt><trkpt lat="45.8124474" lon="10.0395888"><ele>336.6666666666667</ele><time>2026-05-02T15:09:14.808Z</time></trkpt><trkpt lat="45.8124385" lon="10.0397009"><ele>336.0</ele><time>2026-05-02T15:09:15.81Z</time></trkpt><trkpt lat="45.8124471" lon="10.0398191"><ele>335.3333333333333</ele><time>2026-05-02T15:09:16.809Z</time></trkpt><trkpt lat="45.8124585" lon="10.0399221"><ele>334.66666666666663</ele><time>2026-05-02T15:09:17.809Z</time></trkpt><trkpt lat="45.8124517" lon="10.0400301"><ele>334.0</ele><time>2026-05-02T15:09:18.809Z</time></trkpt><trkpt lat="45.8124276" lon="10.0401533"><ele>334.0</ele><time>2026-05-02T15:09:19.809Z</time></trkpt><trkpt lat="45.812392" lon="10.0402725"><ele>334.0</ele><time>2026-05-02T15:09:20.81Z</time></trkpt><trkpt lat="45.8123652" lon="10.0403896"><ele>334.0</ele><time>2026-05-02T15:09:21.809Z</time></trkpt><trkpt lat="45.8123426" lon="10.0405081"><ele>334.0</ele><time>2026-05-02T15:09:22.809Z</time></trkpt><trkpt lat="45.8123107" lon="10.0406141"><ele>334.0</ele><time>2026-05-02T15:09:23.808Z</time></trkpt><trkpt lat="45.8122821" lon="10.0407158"><ele>334.0</ele><time>2026-05-02T15:09:24.808Z</time></trkpt><trkpt lat="45.8122417" lon="10.0408235"><ele>334.0</ele><time>2026-05-02T15:09:25.81Z</time></trkpt><trkpt lat="45.8122016" lon="10.0409283"><ele>334.0</ele><time>2026-05-02T15:09:26.81Z</time></trkpt><trkpt lat="45.8121572" lon="10.0410185"><ele>334.0</ele><time>2026-05-02T15:09:27.809Z</time></trkpt><trkpt lat="45.8120966" lon="10.0411069"><ele>334.0</ele><time>2026-05-02T15:09:28.809Z</time></trkpt><trkpt lat="45.8120502" lon="10.0411933"><ele>334.0</ele><time>2026-05-02T15:09:29.809Z</time></trkpt><trkpt lat="45.8119582" lon="10.0412735"><ele>334.0</ele><time>2026-05-02T15:09:31.808Z</time></trkpt><trkpt lat="45.8118987" lon="10.0413229"><ele>332.79999999999995</ele><time>2026-05-02T15:09:33.81Z</time></trkpt><trkpt lat="45.8118193" lon="10.0413926"><ele>331.59999999999997</ele><time>2026-05-02T15:09:35.809Z</time></trkpt><trkpt lat="45.8117931" lon="10.0415293"><ele>330.4</ele><time>2026-05-02T15:09:37.809Z</time></trkpt><trkpt lat="45.8117702" lon="10.0416976"><ele>329.2</ele><time>2026-05-02T15:09:39.81Z</time></trkpt><trkpt lat="45.8117494" lon="10.0417871"><ele>328.0</ele><time>2026-05-02T15:09:40.809Z</time></trkpt><trkpt lat="45.811739" lon="10.0419024"><ele>327.99999999999994</ele><time>2026-05-02T15:09:41.808Z</time></trkpt><trkpt lat="45.8117385" lon="10.042011"><ele>328.0</ele><time>2026-05-02T15:09:42.809Z</time></trkpt><trkpt lat="45.8117352" lon="10.0421279"><ele>328.0</ele><time>2026-05-02T15:09:43.808Z</time></trkpt><trkpt lat="45.8117233" lon="10.0422212"><ele>328.0</ele><time>2026-05-02T15:09:44.809Z</time></trkpt><trkpt lat="45.8117158" lon="10.0423225"><ele>328.0</ele><time>2026-05-02T15:09:45.81Z</time></trkpt><trkpt lat="45.8117002" lon="10.0424278"><ele>327.99999999999994</ele><time>2026-05-02T15:09:46.809Z</time></trkpt><trkpt lat="45.8116743" lon="10.0425309"><ele>328.0</ele><time>2026-05-02T15:09:47.809Z</time></trkpt><trkpt lat="45.8116548" lon="10.0426376"><ele>327.8333333333333</ele><time>2026-05-02T15:09:48.81Z</time></trkpt><trkpt lat="45.8116332" lon="10.0427385"><ele>327.66666666666663</ele><time>2026-05-02T15:09:49.81Z</time></trkpt><trkpt lat="45.8116106" lon="10.0428259"><ele>327.5</ele><time>2026-05-02T15:09:50.81Z</time></trkpt><trkpt lat="45.8115641" lon="10.0429655"><ele>327.3333333333333</ele><time>2026-05-02T15:09:52.809Z</time></trkpt><trkpt lat="45.8115819" lon="10.0430724"><ele>327.1666666666667</ele><time>2026-05-02T15:09:54.809Z</time></trkpt><trkpt lat="45.8116855" lon="10.0431301"><ele>327.0</ele><time>2026-05-02T15:09:56.809Z</time></trkpt><trkpt lat="45.8117355" lon="10.043188"><ele>327.0</ele><time>2026-05-02T15:09:57.809Z</time></trkpt><trkpt lat="45.8117951" lon="10.0432346"><ele>327.0</ele><time>2026-05-02T15:09:58.81Z</time></trkpt><trkpt lat="45.8118409" lon="10.0432984"><ele>327.0</ele><time>2026-05-02T15:09:59.81Z</time></trkpt><trkpt lat="45.8118858" lon="10.043393"><ele>327.0</ele><time>2026-05-02T15:10:00.81Z</time></trkpt><trkpt lat="45.8119303" lon="10.0435401"><ele>327.0</ele><time>2026-05-02T15:10:01.809Z</time></trkpt><trkpt lat="45.8119766" lon="10.0436741"><ele>327.0</ele><time>2026-05-02T15:10:02.809Z</time></trkpt><trkpt lat="45.8120116" lon="10.0438033"><ele>326.40000000000003</ele><time>2026-05-02T15:10:03.808Z</time></trkpt><trkpt lat="45.8120499" lon="10.0439284"><ele>325.8</ele><time>2026-05-02T15:10:04.809Z</time></trkpt><trkpt lat="45.812089" lon="10.0440521"><ele>325.2</ele><time>2026-05-02T15:10:05.809Z</time></trkpt><trkpt lat="45.8121237" lon="10.0441754"><ele>324.6</ele><time>2026-05-02T15:10:06.809Z</time></trkpt><trkpt lat="45.8121512" lon="10.0443059"><ele>324.0</ele><time>2026-05-02T15:10:07.81Z</time></trkpt><trkpt lat="45.8121589" lon="10.0444393"><ele>322.2</ele><time>2026-05-02T15:10:08.81Z</time></trkpt><trkpt lat="45.8121539" lon="10.0445752"><ele>320.4</ele><time>2026-05-02T15:10:09.81Z</time></trkpt><trkpt lat="45.8121217" lon="10.0447"><ele>318.6</ele><time>2026-05-02T15:10:10.809Z</time></trkpt><trkpt lat="45.8120816" lon="10.0448154"><ele>316.8</ele><time>2026-05-02T15:10:11.81Z</time></trkpt><trkpt lat="45.8120408" lon="10.0449283"><ele>315.0</ele><time>2026-05-02T15:10:12.81Z</time></trkpt><trkpt lat="45.8119979" lon="10.0450394"><ele>314.6666666666667</ele><time>2026-05-02T15:10:13.809Z</time></trkpt><trkpt lat="45.8119526" lon="10.0451435"><ele>314.3333333333333</ele><time>2026-05-02T15:10:14.809Z</time></trkpt><trkpt lat="45.8119086" lon="10.0452556"><ele>314.0</ele><time>2026-05-02T15:10:15.81Z</time></trkpt><trkpt lat="45.8118677" lon="10.045367"><ele>313.66666666666663</ele><time>2026-05-02T15:10:16.809Z</time></trkpt><trkpt lat="45.8118272" lon="10.0454786"><ele>313.3333333333333</ele><time>2026-05-02T15:10:17.81Z</time></trkpt><trkpt lat="45.8117865" lon="10.0455922"><ele>313.0</ele><time>2026-05-02T15:10:18.81Z</time></trkpt><trkpt lat="45.8117432" lon="10.0457032"><ele>311.0</ele><time>2026-05-02T15:10:19.809Z</time></trkpt><trkpt lat="45.8117065" lon="10.0458035"><ele>309.0</ele><time>2026-05-02T15:10:20.809Z</time></trkpt><trkpt lat="45.8116712" lon="10.0459009"><ele>307.0</ele><time>2026-05-02T15:10:21.809Z</time></trkpt><trkpt lat="45.8116406" lon="10.0459884"><ele>305.0</ele><time>2026-05-02T15:10:22.809Z</time></trkpt><trkpt lat="45.8116139" lon="10.0460732"><ele>303.0</ele><time>2026-05-02T15:10:23.81Z</time></trkpt><trkpt lat="45.8115649" lon="10.0461744"><ele>301.0</ele><time>2026-05-02T15:10:25.81Z</time></trkpt><trkpt lat="45.8116063" lon="10.0463267"><ele>301.0</ele><time>2026-05-02T15:10:27.808Z</time></trkpt><trkpt lat="45.8116668" lon="10.0463811"><ele>301.0</ele><time>2026-05-02T15:10:28.809Z</time></trkpt><trkpt lat="45.8117237" lon="10.0464292"><ele>301.0</ele><time>2026-05-02T15:10:29.808Z</time></trkpt><trkpt lat="45.8118979" lon="10.0465612"><ele>301.0</ele><time>2026-05-02T15:10:31.81Z</time></trkpt><trkpt lat="45.8120111" lon="10.0466545"><ele>298.3333333333333</ele><time>2026-05-02T15:10:32.809Z</time></trkpt><trkpt lat="45.8121438" lon="10.0467588"><ele>295.6666666666667</ele><time>2026-05-02T15:10:33.809Z</time></trkpt><trkpt lat="45.8123102" lon="10.0468927"><ele>293.0</ele><time>2026-05-02T15:10:34.809Z</time></trkpt><trkpt lat="45.8124527" lon="10.0470196"><ele>293.0</ele><time>2026-05-02T15:10:35.809Z</time></trkpt><trkpt lat="45.8125769" lon="10.0471441"><ele>293.0</ele><time>2026-05-02T15:10:36.81Z</time></trkpt><trkpt lat="45.8126556" lon="10.047233"><ele>293.0</ele><time>2026-05-02T15:10:37.81Z</time></trkpt><trkpt lat="45.8127297" lon="10.04733"><ele>293.0</ele><time>2026-05-02T15:10:38.81Z</time></trkpt><trkpt lat="45.8127757" lon="10.0473986"><ele>293.0</ele><time>2026-05-02T15:10:39.809Z</time></trkpt><trkpt lat="45.8128192" lon="10.0474833"><ele>293.5</ele><time>2026-05-02T15:10:53.808Z</time></trkpt><trkpt lat="45.8128769" lon="10.0475248"><ele>294.0</ele><time>2026-05-02T15:10:55.808Z</time></trkpt><trkpt lat="45.8129463" lon="10.0475644"><ele>294.5</ele><time>2026-05-02T15:10:57.809Z</time></trkpt><trkpt lat="45.813008" lon="10.0476077"><ele>295.0</ele><time>2026-05-02T15:10:59.809Z</time></trkpt><trkpt lat="45.8130832" lon="10.047658"><ele>295.5</ele><time>2026-05-02T15:11:01.809Z</time></trkpt><trkpt lat="45.8131199" lon="10.0477492"><ele>296.0</ele><time>2026-05-02T15:11:04.81Z</time></trkpt><trkpt lat="45.8129333" lon="10.0475601"><ele>296.0</ele><time>2026-05-02T15:15:02.809Z</time></trkpt><trkpt lat="45.8128647" lon="10.0475242"><ele>296.0</ele><time>2026-05-02T15:15:07.807Z</time></trkpt><trkpt lat="45.8128085" lon="10.0474647"><ele>296.0</ele><time>2026-05-02T15:15:12.808Z</time></trkpt><trkpt lat="45.8127462" lon="10.0474207"><ele>296.0</ele><time>2026-05-02T15:15:44.807Z</time></trkpt><trkpt lat="45.8127405" lon="10.0473237"><ele>296.0</ele><time>2026-05-02T15:16:20.809Z</time></trkpt><trkpt lat="45.8127077" lon="10.0472324"><ele>296.0</ele><time>2026-05-02T15:16:25.808Z</time></trkpt><trkpt lat="45.8127391" lon="10.0471429"><ele>296.0</ele><time>2026-05-02T15:16:31.807Z</time></trkpt><trkpt lat="45.812587" lon="10.0471154"><ele>295.25</ele><time>2026-05-02T15:16:32.809Z</time></trkpt><trkpt lat="45.8124931" lon="10.0470531"><ele>294.5</ele><time>2026-05-02T15:16:33.807Z</time></trkpt><trkpt lat="45.812385" lon="10.0469535"><ele>293.75</ele><time>2026-05-02T15:16:34.808Z</time></trkpt><trkpt lat="45.8122893" lon="10.046867"><ele>293.0</ele><time>2026-05-02T15:16:35.807Z</time></trkpt><trkpt lat="45.8121934" lon="10.0467797"><ele>293.0</ele><time>2026-05-02T15:16:36.807Z</time></trkpt><trkpt lat="45.8120929" lon="10.0466875"><ele>293.0</ele><time>2026-05-02T15:16:37.808Z</time></trkpt><trkpt lat="45.8119887" lon="10.0465934"><ele>293.0</ele><time>2026-05-02T15:16:38.808Z</time></trkpt><trkpt lat="45.8118828" lon="10.0465021"><ele>293.0</ele><time>2026-05-02T15:16:39.808Z</time></trkpt><trkpt lat="45.8117846" lon="10.0464172"><ele>292.83333333333337</ele><time>2026-05-02T15:16:40.809Z</time></trkpt><trkpt lat="45.8117085" lon="10.0463518"><ele>292.6666666666667</ele><time>2026-05-02T15:16:41.807Z</time></trkpt><trkpt lat="45.8116454" lon="10.0463021"><ele>292.5</ele><time>2026-05-02T15:16:42.809Z</time></trkpt><trkpt lat="45.8115363" lon="10.0463514"><ele>292.3333333333333</ele><time>2026-05-02T15:16:44.808Z</time></trkpt><trkpt lat="45.8115087" lon="10.0464512"><ele>292.16666666666663</ele><time>2026-05-02T15:16:45.807Z</time></trkpt><trkpt lat="45.8114832" lon="10.0465689"><ele>292.0</ele><time>2026-05-02T15:16:46.809Z</time></trkpt><trkpt lat="45.8114566" lon="10.0466973"><ele>292.0</ele><time>2026-05-02T15:16:47.808Z</time></trkpt><trkpt lat="45.8114286" lon="10.0468305"><ele>292.0</ele><time>2026-05-02T15:16:48.809Z</time></trkpt><trkpt lat="45.8114026" lon="10.0469665"><ele>292.0</ele><time>2026-05-02T15:16:49.808Z</time></trkpt><trkpt lat="45.8113811" lon="10.0470901"><ele>292.0</ele><time>2026-05-02T15:16:50.807Z</time></trkpt><trkpt lat="45.8113647" lon="10.0471994"><ele>292.0</ele><time>2026-05-02T15:16:51.807Z</time></trkpt><trkpt lat="45.8113445" lon="10.0473088"><ele>292.0</ele><time>2026-05-02T15:16:52.807Z</time></trkpt><trkpt lat="45.8113221" lon="10.0474295"><ele>290.75</ele><time>2026-05-02T15:16:53.808Z</time></trkpt><trkpt lat="45.8112981" lon="10.0475667"><ele>289.5</ele><time>2026-05-02T15:16:54.809Z</time></trkpt><trkpt lat="45.8112719" lon="10.0477183"><ele>288.25</ele><time>2026-05-02T15:16:55.808Z</time></trkpt><trkpt lat="45.81124" lon="10.0478872"><ele>287.0</ele><time>2026-05-02T15:16:56.807Z</time></trkpt><trkpt lat="45.8112061" lon="10.0480678"><ele>287.0</ele><time>2026-05-02T15:16:57.808Z</time></trkpt><trkpt lat="45.8111718" lon="10.0482451"><ele>287.0</ele><time>2026-05-02T15:16:58.809Z</time></trkpt><trkpt lat="45.8111321" lon="10.0484048"><ele>287.0</ele><time>2026-05-02T15:16:59.807Z</time></trkpt><trkpt lat="45.8110777" lon="10.0485402"><ele>287.0</ele><time>2026-05-02T15:17:00.808Z</time></trkpt><trkpt lat="45.8110025" lon="10.0486555"><ele>286.5</ele><time>2026-05-02T15:17:01.809Z</time></trkpt><trkpt lat="45.8109198" lon="10.0487615"><ele>286.0</ele><time>2026-05-02T15:17:02.808Z</time></trkpt><trkpt lat="45.8108381" lon="10.0488722"><ele>285.5</ele><time>2026-05-02T15:17:03.807Z</time></trkpt><trkpt lat="45.8107484" lon="10.0489886"><ele>285.0</ele><time>2026-05-02T15:17:04.809Z</time></trkpt><trkpt lat="45.8106563" lon="10.0491066"><ele>283.6</ele><time>2026-05-02T15:17:05.808Z</time></trkpt><trkpt lat="45.8105693" lon="10.0492143"><ele>282.2</ele><time>2026-05-02T15:17:06.808Z</time></trkpt><trkpt lat="45.8104996" lon="10.0493078"><ele>280.8</ele><time>2026-05-02T15:17:07.809Z</time></trkpt><trkpt lat="45.810432" lon="10.0493903"><ele>279.4</ele><time>2026-05-02T15:17:08.808Z</time></trkpt><trkpt lat="45.8103654" lon="10.0494734"><ele>278.0</ele><time>2026-05-02T15:17:09.808Z</time></trkpt><trkpt lat="45.8102928" lon="10.0495535"><ele>278.0</ele><time>2026-05-02T15:17:10.808Z</time></trkpt><trkpt lat="45.8102141" lon="10.0496502"><ele>278.0</ele><time>2026-05-02T15:17:11.807Z</time></trkpt><trkpt lat="45.8101298" lon="10.049761"><ele>278.0</ele><time>2026-05-02T15:17:12.809Z</time></trkpt><trkpt lat="45.810042" lon="10.0498791"><ele>278.0</ele><time>2026-05-02T15:17:13.808Z</time></trkpt><trkpt lat="45.8099491" lon="10.0500033"><ele>279.5</ele><time>2026-05-02T15:17:14.808Z</time></trkpt><trkpt lat="45.809852" lon="10.0501271"><ele>281.0</ele><time>2026-05-02T15:17:15.807Z</time></trkpt><trkpt lat="45.8097522" lon="10.05025"><ele>282.5</ele><time>2026-05-02T15:17:16.809Z</time></trkpt><trkpt lat="45.8096498" lon="10.0503715"><ele>284.0</ele><time>2026-05-02T15:17:17.809Z</time></trkpt><trkpt lat="45.8095521" lon="10.0504881"><ele>284.0</ele><time>2026-05-02T15:17:18.808Z</time></trkpt><trkpt lat="45.8094362" lon="10.0505721"><ele>284.0</ele><time>2026-05-02T15:17:19.809Z</time></trkpt><trkpt lat="45.8093318" lon="10.0506422"><ele>284.0</ele><time>2026-05-02T15:17:20.808Z</time></trkpt><trkpt lat="45.809204" lon="10.0506643"><ele>284.0</ele><time>2026-05-02T15:17:21.808Z</time></trkpt><trkpt lat="45.8090805" lon="10.05072"><ele>285.5</ele><time>2026-05-02T15:17:22.808Z</time></trkpt><trkpt lat="45.808961" lon="10.0507871"><ele>287.0</ele><time>2026-05-02T15:17:23.807Z</time></trkpt><trkpt lat="45.8088477" lon="10.0508694"><ele>288.5</ele><time>2026-05-02T15:17:24.808Z</time></trkpt><trkpt lat="45.8087343" lon="10.050955"><ele>290.0</ele><time>2026-05-02T15:17:25.807Z</time></trkpt><trkpt lat="45.8086338" lon="10.0510517"><ele>290.0</ele><time>2026-05-02T15:17:26.808Z</time></trkpt><trkpt lat="45.808544" lon="10.0511405"><ele>290.0</ele><time>2026-05-02T15:17:27.809Z</time></trkpt><trkpt lat="45.808457" lon="10.0512124"><ele>290.0</ele><time>2026-05-02T15:17:28.807Z</time></trkpt><trkpt lat="45.8083798" lon="10.0512627"><ele>290.0</ele><time>2026-05-02T15:17:29.807Z</time></trkpt><trkpt lat="45.8083171" lon="10.0512995"><ele>290.0</ele><time>2026-05-02T15:17:30.809Z</time></trkpt><trkpt lat="45.8082629" lon="10.0513515"><ele>290.0</ele><time>2026-05-02T15:17:33.809Z</time></trkpt><trkpt lat="45.8082559" lon="10.0514436"><ele>289.2</ele><time>2026-05-02T15:17:35.809Z</time></trkpt><trkpt lat="45.8083004" lon="10.0516086"><ele>288.4</ele><time>2026-05-02T15:17:37.808Z</time></trkpt><trkpt lat="45.8083378" lon="10.0517161"><ele>287.6</ele><time>2026-05-02T15:17:38.808Z</time></trkpt><trkpt lat="45.8083735" lon="10.0518381"><ele>286.8</ele><time>2026-05-02T15:17:39.808Z</time></trkpt><trkpt lat="45.8084113" lon="10.0519749"><ele>286.0</ele><time>2026-05-02T15:17:40.809Z</time></trkpt><trkpt lat="45.8084408" lon="10.0521312"><ele>286.0</ele><time>2026-05-02T15:17:41.81Z</time></trkpt><trkpt lat="45.8084604" lon="10.0523139"><ele>286.0</ele><time>2026-05-02T15:17:42.808Z</time></trkpt><trkpt lat="45.8084394" lon="10.0525026"><ele>286.0</ele><time>2026-05-02T15:17:43.809Z</time></trkpt><trkpt lat="45.8084044" lon="10.0527028"><ele>286.0</ele><time>2026-05-02T15:17:44.81Z</time></trkpt><trkpt lat="45.8083602" lon="10.0529126"><ele>284.3333333333333</ele><time>2026-05-02T15:17:45.809Z</time></trkpt><trkpt lat="45.8083028" lon="10.0531261"><ele>282.6666666666667</ele><time>2026-05-02T15:17:46.809Z</time></trkpt><trkpt lat="45.8082423" lon="10.0533494"><ele>281.0</ele><time>2026-05-02T15:17:47.807Z</time></trkpt><trkpt lat="45.8081809" lon="10.0535802"><ele>279.6666666666667</ele><time>2026-05-02T15:17:48.808Z</time></trkpt><trkpt lat="45.8081181" lon="10.053816"><ele>278.3333333333333</ele><time>2026-05-02T15:17:49.81Z</time></trkpt><trkpt lat="45.8080591" lon="10.0540437"><ele>277.0</ele><time>2026-05-02T15:17:50.809Z</time></trkpt><trkpt lat="45.8080017" lon="10.0542596"><ele>274.0</ele><time>2026-05-02T15:17:51.809Z</time></trkpt><trkpt lat="45.8079425" lon="10.0544596"><ele>271.0</ele><time>2026-05-02T15:17:52.809Z</time></trkpt><trkpt lat="45.8078915" lon="10.054646"><ele>268.0</ele><time>2026-05-02T15:17:53.809Z</time></trkpt><trkpt lat="45.8078354" lon="10.0548001"><ele>265.0</ele><time>2026-05-02T15:17:54.809Z</time></trkpt><trkpt lat="45.8077852" lon="10.0549283"><ele>264.16666666666663</ele><time>2026-05-02T15:17:55.808Z</time></trkpt><trkpt lat="45.8077389" lon="10.0550339"><ele>263.3333333333333</ele><time>2026-05-02T15:17:56.807Z</time></trkpt><trkpt lat="45.8077068" lon="10.0551153"><ele>262.5</ele><time>2026-05-02T15:17:57.808Z</time></trkpt><trkpt lat="45.8076592" lon="10.0552124"><ele>261.6666666666667</ele><time>2026-05-02T15:17:58.808Z</time></trkpt><trkpt lat="45.8076059" lon="10.0553299"><ele>260.83333333333337</ele><time>2026-05-02T15:17:59.808Z</time></trkpt><trkpt lat="45.8075496" lon="10.0554519"><ele>260.0</ele><time>2026-05-02T15:18:00.808Z</time></trkpt><trkpt lat="45.8074815" lon="10.0555806"><ele>262.75</ele><time>2026-05-02T15:18:01.809Z</time></trkpt><trkpt lat="45.8074052" lon="10.0557203"><ele>265.5</ele><time>2026-05-02T15:18:02.81Z</time></trkpt><trkpt lat="45.8073303" lon="10.0558755"><ele>268.25</ele><time>2026-05-02T15:18:03.809Z</time></trkpt><trkpt lat="45.8072481" lon="10.0560454"><ele>271.0</ele><time>2026-05-02T15:18:04.809Z</time></trkpt><trkpt lat="45.8071815" lon="10.0562421"><ele>271.0</ele><time>2026-05-02T15:18:05.809Z</time></trkpt><trkpt lat="45.8071332" lon="10.0564603"><ele>271.0</ele><time>2026-05-02T15:18:06.808Z</time></trkpt><trkpt lat="45.8070964" lon="10.0566872"><ele>271.0</ele><time>2026-05-02T15:18:07.809Z</time></trkpt><trkpt lat="45.8070674" lon="10.0569287"><ele>266.66666666666663</ele><time>2026-05-02T15:18:08.809Z</time></trkpt><trkpt lat="45.8070498" lon="10.0571759"><ele>262.3333333333333</ele><time>2026-05-02T15:18:09.809Z</time></trkpt><trkpt lat="45.8070492" lon="10.0574252"><ele>258.0</ele><time>2026-05-02T15:18:10.809Z</time></trkpt><trkpt lat="45.8070537" lon="10.0576853"><ele>257.0</ele><time>2026-05-02T15:18:11.808Z</time></trkpt><trkpt lat="45.8070618" lon="10.0579425"><ele>256.0</ele><time>2026-05-02T15:18:12.809Z</time></trkpt><trkpt lat="45.8070667" lon="10.0581995"><ele>255.0</ele><time>2026-05-02T15:18:13.808Z</time></trkpt><trkpt lat="45.8070757" lon="10.0584594"><ele>254.0</ele><time>2026-05-02T15:18:14.809Z</time></trkpt><trkpt lat="45.8070876" lon="10.0587122"><ele>253.0</ele><time>2026-05-02T15:18:15.809Z</time></trkpt><trkpt lat="45.8070983" lon="10.0589639"><ele>252.0</ele><time>2026-05-02T15:18:16.808Z</time></trkpt><trkpt lat="45.8071089" lon="10.0592042"><ele>252.0</ele><time>2026-05-02T15:18:17.81Z</time></trkpt><trkpt lat="45.8071145" lon="10.0594338"><ele>252.0</ele><time>2026-05-02T15:18:18.809Z</time></trkpt><trkpt lat="45.8071155" lon="10.0596481"><ele>252.0</ele><time>2026-05-02T15:18:19.808Z</time></trkpt><trkpt lat="45.807114" lon="10.0598399"><ele>252.0</ele><time>2026-05-02T15:18:20.808Z</time></trkpt><trkpt lat="45.8071172" lon="10.0600121"><ele>252.8</ele><time>2026-05-02T15:18:21.808Z</time></trkpt><trkpt lat="45.8071171" lon="10.0601587"><ele>253.6</ele><time>2026-05-02T15:18:22.808Z</time></trkpt><trkpt lat="45.8071159" lon="10.0602898"><ele>254.40000000000003</ele><time>2026-05-02T15:18:23.809Z</time></trkpt><trkpt lat="45.8071107" lon="10.0604083"><ele>255.20000000000002</ele><time>2026-05-02T15:18:24.81Z</time></trkpt><trkpt lat="45.8070958" lon="10.0605324"><ele>256.0</ele><time>2026-05-02T15:18:25.809Z</time></trkpt><trkpt lat="45.8070642" lon="10.0606593"><ele>257.2</ele><time>2026-05-02T15:18:26.808Z</time></trkpt><trkpt lat="45.807018" lon="10.0607836"><ele>258.40000000000003</ele><time>2026-05-02T15:18:27.808Z</time></trkpt><trkpt lat="45.8069539" lon="10.0608992"><ele>259.6</ele><time>2026-05-02T15:18:28.808Z</time></trkpt><trkpt lat="45.806875" lon="10.0610095"><ele>260.8</ele><time>2026-05-02T15:18:29.808Z</time></trkpt><trkpt lat="45.8067938" lon="10.0611289"><ele>262.0</ele><time>2026-05-02T15:18:30.81Z</time></trkpt><trkpt lat="45.8067228" lon="10.0612607"><ele>265.0</ele><time>2026-05-02T15:18:31.808Z</time></trkpt><trkpt lat="45.8066455" lon="10.0614005"><ele>268.0</ele><time>2026-05-02T15:18:32.809Z</time></trkpt><trkpt lat="45.8066045" lon="10.061578"><ele>271.0</ele><time>2026-05-02T15:18:33.808Z</time></trkpt><trkpt lat="45.8065766" lon="10.0617712"><ele>274.0</ele><time>2026-05-02T15:18:34.808Z</time></trkpt><trkpt lat="45.8065594" lon="10.0619784"><ele>274.0</ele><time>2026-05-02T15:18:35.809Z</time></trkpt><trkpt lat="45.8065404" lon="10.0621843"><ele>274.0</ele><time>2026-05-02T15:18:36.81Z</time></trkpt><trkpt lat="45.8065194" lon="10.0623899"><ele>274.0</ele><time>2026-05-02T15:18:37.808Z</time></trkpt><trkpt lat="45.8064924" lon="10.0625952"><ele>274.0</ele><time>2026-05-02T15:18:38.809Z</time></trkpt><trkpt lat="45.80647" lon="10.0627923"><ele>275.0</ele><time>2026-05-02T15:18:39.809Z</time></trkpt><trkpt lat="45.8064507" lon="10.0629781"><ele>276.0</ele><time>2026-05-02T15:18:40.809Z</time></trkpt><trkpt lat="45.8064357" lon="10.0631518"><ele>277.0</ele><time>2026-05-02T15:18:41.809Z</time></trkpt><trkpt lat="45.8064167" lon="10.0633043"><ele>278.0</ele><time>2026-05-02T15:18:42.808Z</time></trkpt><trkpt lat="45.8063914" lon="10.0634382"><ele>276.2</ele><time>2026-05-02T15:18:43.81Z</time></trkpt><trkpt lat="45.8063627" lon="10.0635606"><ele>274.4</ele><time>2026-05-02T15:18:44.808Z</time></trkpt><trkpt lat="45.8063341" lon="10.0636789"><ele>272.59999999999997</ele><time>2026-05-02T15:18:45.81Z</time></trkpt><trkpt lat="45.806294" lon="10.0637953"><ele>270.8</ele><time>2026-05-02T15:18:46.808Z</time></trkpt><trkpt lat="45.8062621" lon="10.0639201"><ele>269.0</ele><time>2026-05-02T15:18:47.809Z</time></trkpt><trkpt lat="45.8062426" lon="10.0640552"><ele>265.75</ele><time>2026-05-02T15:18:48.809Z</time></trkpt><trkpt lat="45.8062467" lon="10.0642072"><ele>262.5</ele><time>2026-05-02T15:18:49.809Z</time></trkpt><trkpt lat="45.8062676" lon="10.06436"><ele>259.25</ele><time>2026-05-02T15:18:50.808Z</time></trkpt><trkpt lat="45.806318" lon="10.0645081"><ele>256.0</ele><time>2026-05-02T15:18:51.809Z</time></trkpt><trkpt lat="45.8063942" lon="10.0646457"><ele>256.0</ele><time>2026-05-02T15:18:52.808Z</time></trkpt><trkpt lat="45.8064956" lon="10.0647435"><ele>256.0</ele><time>2026-05-02T15:18:53.809Z</time></trkpt><trkpt lat="45.8066063" lon="10.0648151"><ele>256.0</ele><time>2026-05-02T15:18:54.809Z</time></trkpt><trkpt lat="45.8067329" lon="10.0648423"><ele>256.0</ele><time>2026-05-02T15:18:55.808Z</time></trkpt><trkpt lat="45.806866" lon="10.0648534"><ele>260.0</ele><time>2026-05-02T15:18:56.809Z</time></trkpt><trkpt lat="45.8070093" lon="10.0648649"><ele>264.0</ele><time>2026-05-02T15:18:57.809Z</time></trkpt><trkpt lat="45.8071608" lon="10.0648711"><ele>268.0</ele><time>2026-05-02T15:18:58.809Z</time></trkpt><trkpt lat="45.8073153" lon="10.0648769"><ele>268.0</ele><time>2026-05-02T15:18:59.808Z</time></trkpt><trkpt lat="45.8074637" lon="10.0648862"><ele>268.0</ele><time>2026-05-02T15:19:00.809Z</time></trkpt><trkpt lat="45.8076034" lon="10.0649244"><ele>268.0</ele><time>2026-05-02T15:19:01.809Z</time></trkpt><trkpt lat="45.8077415" lon="10.0649672"><ele>268.0</ele><time>2026-05-02T15:19:02.809Z</time></trkpt><trkpt lat="45.8078641" lon="10.0650609"><ele>262.25</ele><time>2026-05-02T15:19:03.808Z</time></trkpt><trkpt lat="45.807964" lon="10.065174"><ele>256.5</ele><time>2026-05-02T15:19:04.807Z</time></trkpt><trkpt lat="45.8080466" lon="10.0653012"><ele>250.75</ele><time>2026-05-02T15:19:05.807Z</time></trkpt><trkpt lat="45.8081137" lon="10.0654506"><ele>245.0</ele><time>2026-05-02T15:19:06.808Z</time></trkpt><trkpt lat="45.8081658" lon="10.0656175"><ele>242.0</ele><time>2026-05-02T15:19:07.809Z</time></trkpt><trkpt lat="45.8082023" lon="10.0657823"><ele>239.0</ele><time>2026-05-02T15:19:08.808Z</time></trkpt><trkpt lat="45.8082193" lon="10.065979"><ele>236.0</ele><time>2026-05-02T15:19:09.809Z</time></trkpt><trkpt lat="45.8082378" lon="10.0661661"><ele>233.0</ele><time>2026-05-02T15:19:10.809Z</time></trkpt><trkpt lat="45.8082519" lon="10.0663582"><ele>233.0</ele><time>2026-05-02T15:19:11.808Z</time></trkpt><trkpt lat="45.8082708" lon="10.0665536"><ele>233.0</ele><time>2026-05-02T15:19:12.808Z</time></trkpt><trkpt lat="45.8083048" lon="10.0667437"><ele>233.0</ele><time>2026-05-02T15:19:13.808Z</time></trkpt><trkpt lat="45.8083614" lon="10.0669196"><ele>233.0</ele><time>2026-05-02T15:19:14.808Z</time></trkpt><trkpt lat="45.8084403" lon="10.0670578"><ele>233.75</ele><time>2026-05-02T15:19:15.81Z</time></trkpt><trkpt lat="45.8085313" lon="10.0671863"><ele>234.5</ele><time>2026-05-02T15:19:16.81Z</time></trkpt><trkpt lat="45.808641" lon="10.0672848"><ele>235.25</ele><time>2026-05-02T15:19:17.808Z</time></trkpt><trkpt lat="45.8087549" lon="10.0673711"><ele>236.0</ele><time>2026-05-02T15:19:18.809Z</time></trkpt><trkpt lat="45.8088819" lon="10.0674481"><ele>231.66666666666669</ele><time>2026-05-02T15:19:19.809Z</time></trkpt><trkpt lat="45.8090252" lon="10.0675225"><ele>227.33333333333331</ele><time>2026-05-02T15:19:20.808Z</time></trkpt><trkpt lat="45.8091619" lon="10.0675974"><ele>223.0</ele><time>2026-05-02T15:19:21.808Z</time></trkpt><trkpt lat="45.8093033" lon="10.0676784"><ele>227.0</ele><time>2026-05-02T15:19:22.809Z</time></trkpt><trkpt lat="45.8094427" lon="10.0677626"><ele>231.0</ele><time>2026-05-02T15:19:23.81Z</time></trkpt><trkpt lat="45.8097026" lon="10.0679289"><ele>235.0</ele><time>2026-05-02T15:19:25.81Z</time></trkpt><trkpt lat="45.8098224" lon="10.0680123"><ele>235.0</ele><time>2026-05-02T15:19:26.808Z</time></trkpt><trkpt lat="45.8099278" lon="10.0681124"><ele>235.0</ele><time>2026-05-02T15:19:27.81Z</time></trkpt><trkpt lat="45.8100201" lon="10.0682239"><ele>235.0</ele><time>2026-05-02T15:19:28.808Z</time></trkpt><trkpt lat="45.8101027" lon="10.0683478"><ele>235.0</ele><time>2026-05-02T15:19:29.809Z</time></trkpt><trkpt lat="45.8101643" lon="10.0684967"><ele>233.0</ele><time>2026-05-02T15:19:30.81Z</time></trkpt><trkpt lat="45.8102182" lon="10.0686599"><ele>231.0</ele><time>2026-05-02T15:19:31.808Z</time></trkpt><trkpt lat="45.810281" lon="10.0688319"><ele>229.0</ele><time>2026-05-02T15:19:32.809Z</time></trkpt><trkpt lat="45.8103429" lon="10.0689928"><ele>227.0</ele><time>2026-05-02T15:19:33.809Z</time></trkpt><trkpt lat="45.8104212" lon="10.069159"><ele>220.5</ele><time>2026-05-02T15:19:34.808Z</time></trkpt><trkpt lat="45.8105099" lon="10.06929"><ele>214.0</ele><time>2026-05-02T15:19:35.809Z</time></trkpt><trkpt lat="45.8106041" lon="10.0694209"><ele>207.5</ele><time>2026-05-02T15:19:36.81Z</time></trkpt><trkpt lat="45.8107057" lon="10.0695411"><ele>201.0</ele><time>2026-05-02T15:19:37.809Z</time></trkpt><trkpt lat="45.8108076" lon="10.0696624"><ele>201.0</ele><time>2026-05-02T15:19:38.808Z</time></trkpt><trkpt lat="45.8109085" lon="10.0697896"><ele>201.0</ele><time>2026-05-02T15:19:39.809Z</time></trkpt><trkpt lat="45.811006" lon="10.0699001"><ele>201.0</ele><time>2026-05-02T15:19:40.807Z</time></trkpt><trkpt lat="45.8110981" lon="10.0699925"><ele>201.0</ele><time>2026-05-02T15:19:41.808Z</time></trkpt><trkpt lat="45.8111659" lon="10.0700789"><ele>201.33333333333334</ele><time>2026-05-02T15:19:42.808Z</time></trkpt><trkpt lat="45.8112314" lon="10.0701552"><ele>201.66666666666669</ele><time>2026-05-02T15:19:43.809Z</time></trkpt><trkpt lat="45.8112886" lon="10.0702114"><ele>202.0</ele><time>2026-05-02T15:19:44.808Z</time></trkpt><trkpt lat="45.8113707" lon="10.0702288"><ele>202.33333333333334</ele><time>2026-05-02T15:19:46.807Z</time></trkpt><trkpt lat="45.8114227" lon="10.0701267"><ele>202.66666666666669</ele><time>2026-05-02T15:19:49.809Z</time></trkpt><trkpt lat="45.8114452" lon="10.0699739"><ele>203.0</ele><time>2026-05-02T15:19:51.809Z</time></trkpt><trkpt lat="45.8114595" lon="10.0698798"><ele>203.00000000000003</ele><time>2026-05-02T15:19:52.81Z</time></trkpt><trkpt lat="45.8114827" lon="10.0697757"><ele>203.0</ele><time>2026-05-02T15:19:53.81Z</time></trkpt><trkpt lat="45.8115147" lon="10.0696697"><ele>203.0</ele><time>2026-05-02T15:19:54.81Z</time></trkpt><trkpt lat="45.8115494" lon="10.0695444"><ele>203.0</ele><time>2026-05-02T15:19:55.809Z</time></trkpt><trkpt lat="45.8115807" lon="10.0694214"><ele>203.00000000000003</ele><time>2026-05-02T15:19:56.808Z</time></trkpt><trkpt lat="45.8116158" lon="10.0692919"><ele>203.0</ele><time>2026-05-02T15:19:57.81Z</time></trkpt><trkpt lat="45.8116516" lon="10.0691559"><ele>205.50000000000003</ele><time>2026-05-02T15:19:58.807Z</time></trkpt><trkpt lat="45.8116855" lon="10.0690153"><ele>208.0</ele><time>2026-05-02T15:19:59.808Z</time></trkpt><trkpt lat="45.8117272" lon="10.0688927"><ele>210.5</ele><time>2026-05-02T15:20:00.809Z</time></trkpt><trkpt lat="45.81178" lon="10.0687953"><ele>213.0</ele><time>2026-05-02T15:20:01.808Z</time></trkpt><trkpt lat="45.8118502" lon="10.0687204"><ele>215.50000000000003</ele><time>2026-05-02T15:20:02.808Z</time></trkpt><trkpt lat="45.8119211" lon="10.0686777"><ele>218.0</ele><time>2026-05-02T15:20:03.808Z</time></trkpt><trkpt lat="45.8119882" lon="10.0686537"><ele>218.00000000000003</ele><time>2026-05-02T15:20:04.807Z</time></trkpt><trkpt lat="45.8120672" lon="10.0686538"><ele>218.0</ele><time>2026-05-02T15:20:05.809Z</time></trkpt><trkpt lat="45.8121443" lon="10.068696"><ele>218.0</ele><time>2026-05-02T15:20:06.808Z</time></trkpt><trkpt lat="45.8122208" lon="10.0687546"><ele>218.0</ele><time>2026-05-02T15:20:07.809Z</time></trkpt><trkpt lat="45.8122913" lon="10.0688221"><ele>218.00000000000003</ele><time>2026-05-02T15:20:08.808Z</time></trkpt><trkpt lat="45.8123668" lon="10.0688968"><ele>218.0</ele><time>2026-05-02T15:20:09.809Z</time></trkpt><trkpt lat="45.8124476" lon="10.0689793"><ele>218.0</ele><time>2026-05-02T15:20:10.809Z</time></trkpt><trkpt lat="45.8125338" lon="10.0690622"><ele>218.0</ele><time>2026-05-02T15:20:11.807Z</time></trkpt><trkpt lat="45.8126205" lon="10.0691564"><ele>218.0</ele><time>2026-05-02T15:20:12.808Z</time></trkpt><trkpt lat="45.8127219" lon="10.0692486"><ele>218.0</ele><time>2026-05-02T15:20:13.81Z</time></trkpt><trkpt lat="45.8128131" lon="10.0693449"><ele>218.0</ele><time>2026-05-02T15:20:14.809Z</time></trkpt><trkpt lat="45.8129118" lon="10.0694377"><ele>217.0</ele><time>2026-05-02T15:20:15.808Z</time></trkpt><trkpt lat="45.8130092" lon="10.0695336"><ele>216.0</ele><time>2026-05-02T15:20:16.807Z</time></trkpt><trkpt lat="45.8131039" lon="10.0696386"><ele>215.0</ele><time>2026-05-02T15:20:17.809Z</time></trkpt><trkpt lat="45.8131994" lon="10.0697294"><ele>214.0</ele><time>2026-05-02T15:20:18.81Z</time></trkpt><trkpt lat="45.813297" lon="10.0698257"><ele>214.0</ele><time>2026-05-02T15:20:19.809Z</time></trkpt><trkpt lat="45.8133906" lon="10.0699229"><ele>213.99999999999997</ele><time>2026-05-02T15:20:20.809Z</time></trkpt><trkpt lat="45.8134851" lon="10.0700151"><ele>213.99999999999997</ele><time>2026-05-02T15:20:21.808Z</time></trkpt><trkpt lat="45.8135773" lon="10.0701046"><ele>214.0</ele><time>2026-05-02T15:20:22.809Z</time></trkpt><trkpt lat="45.8136552" lon="10.0701789"><ele>214.0</ele><time>2026-05-02T15:20:23.808Z</time></trkpt><trkpt lat="45.8137234" lon="10.0702579"><ele>214.16666666666666</ele><time>2026-05-02T15:20:24.808Z</time></trkpt><trkpt lat="45.8137895" lon="10.0703178"><ele>214.33333333333331</ele><time>2026-05-02T15:20:25.81Z</time></trkpt><trkpt lat="45.8138615" lon="10.0703907"><ele>214.5</ele><time>2026-05-02T15:20:26.807Z</time></trkpt><trkpt lat="45.8139339" lon="10.0704666"><ele>214.66666666666669</ele><time>2026-05-02T15:20:27.808Z</time></trkpt><trkpt lat="45.8140018" lon="10.0705397"><ele>214.83333333333334</ele><time>2026-05-02T15:20:28.809Z</time></trkpt><trkpt lat="45.8140628" lon="10.0706016"><ele>215.0</ele><time>2026-05-02T15:20:29.807Z</time></trkpt><trkpt lat="45.8141369" lon="10.0706831"><ele>215.0</ele><time>2026-05-02T15:20:31.81Z</time></trkpt><trkpt lat="45.8141968" lon="10.0707672"><ele>215.0</ele><time>2026-05-02T15:20:33.808Z</time></trkpt><trkpt lat="45.8142717" lon="10.0708715"><ele>215.0</ele><time>2026-05-02T15:20:35.807Z</time></trkpt><trkpt lat="45.8143806" lon="10.0708501"><ele>215.0</ele><time>2026-05-02T15:20:37.808Z</time></trkpt><trkpt lat="45.8144467" lon="10.070866"><ele>215.0</ele><time>2026-05-02T15:20:38.808Z</time></trkpt><trkpt lat="45.814561" lon="10.0709516"><ele>215.66666666666669</ele><time>2026-05-02T15:20:40.808Z</time></trkpt><trkpt lat="45.8146236" lon="10.0710135"><ele>216.33333333333334</ele><time>2026-05-02T15:20:41.809Z</time></trkpt><trkpt lat="45.8146816" lon="10.071081"><ele>217.0</ele><time>2026-05-02T15:20:42.81Z</time></trkpt><trkpt lat="45.8147652" lon="10.0711538"><ele>217.66666666666669</ele><time>2026-05-02T15:20:43.807Z</time></trkpt><trkpt lat="45.8148413" lon="10.0712377"><ele>218.33333333333334</ele><time>2026-05-02T15:20:44.809Z</time></trkpt><trkpt lat="45.8149224" lon="10.0713201"><ele>219.0</ele><time>2026-05-02T15:20:45.81Z</time></trkpt><trkpt lat="45.8150058" lon="10.0714045"><ele>219.0</ele><time>2026-05-02T15:20:46.809Z</time></trkpt><trkpt lat="45.8150907" lon="10.0714853"><ele>218.99999999999997</ele><time>2026-05-02T15:20:47.809Z</time></trkpt><trkpt lat="45.8151827" lon="10.071565"><ele>218.99999999999997</ele><time>2026-05-02T15:20:48.81Z</time></trkpt><trkpt lat="45.8152664" lon="10.0716327"><ele>219.0</ele><time>2026-05-02T15:20:49.808Z</time></trkpt><trkpt lat="45.8153477" lon="10.0717039"><ele>219.0</ele><time>2026-05-02T15:20:50.808Z</time></trkpt><trkpt lat="45.8154115" lon="10.0717535"><ele>219.39999999999998</ele><time>2026-05-02T15:20:51.809Z</time></trkpt><trkpt lat="45.8154681" lon="10.0717947"><ele>219.79999999999998</ele><time>2026-05-02T15:20:52.809Z</time></trkpt><trkpt lat="45.8155535" lon="10.071734"><ele>220.20000000000002</ele><time>2026-05-02T15:20:54.809Z</time></trkpt><trkpt lat="45.8155852" lon="10.0715929"><ele>220.60000000000002</ele><time>2026-05-02T15:20:56.809Z</time></trkpt><trkpt lat="45.815655" lon="10.0715236"><ele>221.0</ele><time>2026-05-02T15:20:58.81Z</time></trkpt><trkpt lat="45.8157784" lon="10.0715197"><ele>220.20000000000002</ele><time>2026-05-02T15:21:00.809Z</time></trkpt><trkpt lat="45.8158554" lon="10.0715162"><ele>219.40000000000003</ele><time>2026-05-02T15:21:01.809Z</time></trkpt><trkpt lat="45.8159389" lon="10.0715138"><ele>218.6</ele><time>2026-05-02T15:21:02.809Z</time></trkpt><trkpt lat="45.81602" lon="10.0715135"><ele>217.8</ele><time>2026-05-02T15:21:03.81Z</time></trkpt><trkpt lat="45.8160998" lon="10.0715137"><ele>217.0</ele><time>2026-05-02T15:21:04.809Z</time></trkpt><trkpt lat="45.8172165" lon="10.0727037"><ele>217.0</ele><time>2026-05-02T15:21:21.809Z</time></trkpt><trkpt lat="45.8172751" lon="10.0727917"><ele>217.0</ele><time>2026-05-02T15:21:22.809Z</time></trkpt><trkpt lat="45.8173227" lon="10.0728935"><ele>217.0</ele><time>2026-05-02T15:21:23.808Z</time></trkpt><trkpt lat="45.8173727" lon="10.0729975"><ele>217.0</ele><time>2026-05-02T15:21:24.81Z</time></trkpt><trkpt lat="45.8174249" lon="10.0731119"><ele>217.0</ele><time>2026-05-02T15:21:25.809Z</time></trkpt><trkpt lat="45.8174832" lon="10.0732353"><ele>217.0</ele><time>2026-05-02T15:21:26.809Z</time></trkpt><trkpt lat="45.8175455" lon="10.0733608"><ele>217.0</ele><time>2026-05-02T15:21:27.809Z</time></trkpt><trkpt lat="45.8176046" lon="10.0734825"><ele>217.0</ele><time>2026-05-02T15:21:28.81Z</time></trkpt><trkpt lat="45.8176684" lon="10.0736111"><ele>217.0</ele><time>2026-05-02T15:21:29.808Z</time></trkpt><trkpt lat="45.8177294" lon="10.0737349"><ele>217.0</ele><time>2026-05-02T15:21:30.809Z</time></trkpt><trkpt lat="45.8177809" lon="10.0738625"><ele>218.25</ele><time>2026-05-02T15:21:31.808Z</time></trkpt><trkpt lat="45.8178333" lon="10.073994"><ele>219.5</ele><time>2026-05-02T15:21:32.809Z</time></trkpt><trkpt lat="45.817889" lon="10.0741194"><ele>220.75</ele><time>2026-05-02T15:21:33.809Z</time></trkpt><trkpt lat="45.817944" lon="10.0742457"><ele>222.0</ele><time>2026-05-02T15:21:34.809Z</time></trkpt><trkpt lat="45.8182602" lon="10.0745557"><ele>222.16666666666666</ele><time>2026-05-02T15:21:38.809Z</time></trkpt><trkpt lat="45.8183316" lon="10.0746111"><ele>222.33333333333331</ele><time>2026-05-02T15:21:39.809Z</time></trkpt><trkpt lat="45.8184181" lon="10.0746508"><ele>222.5</ele><time>2026-05-02T15:21:40.81Z</time></trkpt><trkpt lat="45.8184918" lon="10.0747174"><ele>222.66666666666666</ele><time>2026-05-02T15:21:41.809Z</time></trkpt><trkpt lat="45.8185645" lon="10.0747986"><ele>222.83333333333331</ele><time>2026-05-02T15:21:42.809Z</time></trkpt><trkpt lat="45.8186364" lon="10.0748723"><ele>223.0</ele><time>2026-05-02T15:21:43.809Z</time></trkpt><trkpt lat="45.8187054" lon="10.0749482"><ele>222.57142857142856</ele><time>2026-05-02T15:21:44.81Z</time></trkpt><trkpt lat="45.8187641" lon="10.0750241"><ele>222.14285714285714</ele><time>2026-05-02T15:21:45.808Z</time></trkpt><trkpt lat="45.8188115" lon="10.0750994"><ele>221.71428571428572</ele><time>2026-05-02T15:21:46.81Z</time></trkpt><trkpt lat="45.8188755" lon="10.0751189"><ele>221.28571428571428</ele><time>2026-05-02T15:21:48.809Z</time></trkpt><trkpt lat="45.818879" lon="10.0750152"><ele>220.85714285714286</ele><time>2026-05-02T15:22:05.809Z</time></trkpt><trkpt lat="45.8189153" lon="10.0749304"><ele>220.42857142857142</ele><time>2026-05-02T15:22:08.808Z</time></trkpt><trkpt lat="45.8189843" lon="10.0748997"><ele>220.0</ele><time>2026-05-02T15:22:11.807Z</time></trkpt><trkpt lat="45.8189639" lon="10.0747989"><ele>221.7142857142857</ele><time>2026-05-02T15:22:36.809Z</time></trkpt><trkpt lat="45.8188923" lon="10.0748109"><ele>223.42857142857144</ele><time>2026-05-02T15:22:42.809Z</time></trkpt><trkpt lat="45.8188632" lon="10.0748994"><ele>225.14285714285717</ele><time>2026-05-02T15:23:07.808Z</time></trkpt><trkpt lat="45.8189087" lon="10.0748314"><ele>226.85714285714286</ele><time>2026-05-02T15:23:27.808Z</time></trkpt><trkpt lat="45.8189349" lon="10.0747466"><ele>228.57142857142858</ele><time>2026-05-02T15:23:42.808Z</time></trkpt><trkpt lat="45.8189689" lon="10.0746671"><ele>230.2857142857143</ele><time>2026-05-02T15:23:59.74Z</time></trkpt><trkpt lat="45.8189924" lon="10.074753"><ele>232.00000000000003</ele><time>2026-05-02T15:28:27.807Z</time></trkpt><trkpt lat="45.8189992" lon="10.0748678"><ele>232.00000000000003</ele><time>2026-05-02T15:29:53.808Z</time></trkpt><trkpt lat="45.8190359" lon="10.0747914"><ele>232.0</ele><time>2026-05-02T15:30:03.935Z</time></trkpt><trkpt lat="45.8189608" lon="10.0748102"><ele>232.00000000000003</ele><time>2026-05-02T15:30:13.808Z</time></trkpt><trkpt lat="45.8189199" lon="10.0749043"><ele>232.00000000000003</ele><time>2026-05-02T15:30:14.809Z</time></trkpt><trkpt lat="45.8188973" lon="10.0750078"><ele>232.0</ele><time>2026-05-02T15:30:16.808Z</time></trkpt><trkpt lat="45.8189545" lon="10.0750565"><ele>232.00000000000003</ele><time>2026-05-02T15:30:33.754Z</time></trkpt><trkpt lat="45.8190223" lon="10.075017"><ele>232.00000000000003</ele><time>2026-05-02T15:30:37.749Z</time></trkpt><trkpt lat="45.8190802" lon="10.0749704"><ele>232.00000000000003</ele><time>2026-05-02T15:30:42.858Z</time></trkpt><trkpt lat="45.8190552" lon="10.0748725"><ele>232.0</ele><time>2026-05-02T15:30:47.808Z</time></trkpt><trkpt lat="45.8191198" lon="10.0747726"><ele>232.00000000000003</ele><time>2026-05-02T15:30:54.775Z</time></trkpt><trkpt lat="45.8190756" lon="10.0748532"><ele>232.00000000000003</ele><time>2026-05-02T15:31:07.808Z</time></trkpt><trkpt lat="45.819103" lon="10.0749364"><ele>232.0</ele><time>2026-05-02T15:31:14.808Z</time></trkpt><trkpt lat="45.8190486" lon="10.0749923"><ele>232.00000000000003</ele><time>2026-05-02T15:31:20.772Z</time></trkpt><trkpt lat="45.8189747" lon="10.0749672"><ele>232.00000000000003</ele><time>2026-05-02T15:31:29.807Z</time></trkpt><trkpt lat="45.8189325" lon="10.0748823"><ele>232.00000000000003</ele><time>2026-05-02T15:31:33.806Z</time></trkpt><trkpt lat="45.8189787" lon="10.0748177"><ele>232.0</ele><time>2026-05-02T15:32:04.807Z</time></trkpt><trkpt lat="45.8189632" lon="10.0749117"><ele>232.00000000000003</ele><time>2026-05-02T15:33:49.807Z</time></trkpt><trkpt lat="45.8188992" lon="10.0749343"><ele>232.00000000000003</ele><time>2026-05-02T15:33:57.808Z</time></trkpt><trkpt lat="45.8188664" lon="10.0750226"><ele>232.0</ele><time>2026-05-02T15:34:03.806Z</time></trkpt><trkpt lat="45.8189205" lon="10.0750974"><ele>232.00000000000003</ele><time>2026-05-02T15:34:08.806Z</time></trkpt><trkpt lat="45.8189842" lon="10.0751512"><ele>232.00000000000003</ele><time>2026-05-02T15:34:13.807Z</time></trkpt><trkpt lat="45.8190454" lon="10.0752109"><ele>230.2857142857143</ele><time>2026-05-02T15:34:19.807Z</time></trkpt><trkpt lat="45.8191059" lon="10.0752448"><ele>228.57142857142858</ele><time>2026-05-02T15:35:16.806Z</time></trkpt><trkpt lat="45.8191566" lon="10.075303"><ele>226.85714285714286</ele><time>2026-05-02T15:35:39.868Z</time></trkpt><trkpt lat="45.8191816" lon="10.0753989"><ele>225.14285714285717</ele><time>2026-05-02T15:35:47.806Z</time></trkpt><trkpt lat="45.8191658" lon="10.0754896"><ele>223.42857142857144</ele><time>2026-05-02T15:35:53.806Z</time></trkpt><trkpt lat="45.8191518" lon="10.0755811"><ele>221.7142857142857</ele><time>2026-05-02T15:35:59.807Z</time></trkpt><trkpt lat="45.8191991" lon="10.0756518"><ele>220.0</ele><time>2026-05-02T15:36:08.807Z</time></trkpt><trkpt lat="45.8192417" lon="10.075734"><ele>220.42857142857142</ele><time>2026-05-02T15:36:14.808Z</time></trkpt><trkpt lat="45.8192921" lon="10.0757946"><ele>220.85714285714286</ele><time>2026-05-02T15:36:23.806Z</time></trkpt><trkpt lat="45.8193277" lon="10.0758865"><ele>221.28571428571428</ele><time>2026-05-02T15:36:31.807Z</time></trkpt><trkpt lat="45.8193745" lon="10.0759507"><ele>221.71428571428572</ele><time>2026-05-02T15:36:37.728Z</time></trkpt><trkpt lat="45.8194239" lon="10.0760152"><ele>222.14285714285714</ele><time>2026-05-02T15:36:43.808Z</time></trkpt><trkpt lat="45.8194836" lon="10.0760514"><ele>222.57142857142856</ele><time>2026-05-02T15:36:50.807Z</time></trkpt><trkpt lat="45.8195541" lon="10.076131"><ele>223.0</ele><time>2026-05-02T15:38:45.594Z</time></trkpt><trkpt lat="45.8194593" lon="10.0760483"><ele>223.0</ele><time>2026-05-02T15:39:28.807Z</time></trkpt><trkpt lat="45.8194119" lon="10.075988"><ele>223.0</ele><time>2026-05-02T15:39:31.808Z</time></trkpt><trkpt lat="45.8193632" lon="10.0759227"><ele>223.0</ele><time>2026-05-02T15:39:36.807Z</time></trkpt><trkpt lat="45.8193549" lon="10.0758309"><ele>223.0</ele><time>2026-05-02T15:39:41.904Z</time></trkpt><trkpt lat="45.8193158" lon="10.0757572"><ele>223.0</ele><time>2026-05-02T15:39:46.807Z</time></trkpt><trkpt lat="45.8192628" lon="10.0756896"><ele>223.0</ele><time>2026-05-02T15:39:52.808Z</time></trkpt><trkpt lat="45.8192161" lon="10.0756125"><ele>223.0</ele><time>2026-05-02T15:39:59.806Z</time></trkpt><trkpt lat="45.8191773" lon="10.0755341"><ele>222.57142857142856</ele><time>2026-05-02T15:40:04.807Z</time></trkpt><trkpt lat="45.8191133" lon="10.0754744"><ele>222.14285714285714</ele><time>2026-05-02T15:40:15.912Z</time></trkpt><trkpt lat="45.819071" lon="10.075369"><ele>221.71428571428572</ele><time>2026-05-02T15:40:26.645Z</time></trkpt><trkpt lat="45.8190378" lon="10.0752836"><ele>221.28571428571428</ele><time>2026-05-02T15:40:31.807Z</time></trkpt><trkpt lat="45.8189946" lon="10.0752126"><ele>220.85714285714286</ele><time>2026-05-02T15:40:38.807Z</time></trkpt><trkpt lat="45.8189466" lon="10.0751514"><ele>220.42857142857142</ele><time>2026-05-02T15:40:44.807Z</time></trkpt><trkpt lat="45.8189649" lon="10.0750617"><ele>220.0</ele><time>2026-05-02T15:40:53.808Z</time></trkpt><trkpt lat="45.8190075" lon="10.0749807"><ele>220.0</ele><time>2026-05-02T15:41:02.898Z</time></trkpt><trkpt lat="45.8190387" lon="10.0748865"><ele>232.0</ele><time>2026-05-02T15:41:12.807Z</time></trkpt><trkpt lat="45.819022" lon="10.0747818"><ele>232.0</ele><time>2026-05-02T15:41:17.778Z</time></trkpt></trkseg></trk></gpx>